[[{"header":{"parameterUnit":"m.s-1","parameterCategory":1,"la1":30.6,"la2":29.2853,"lo1":-89.7004,"lo2":-87.6739,"dy":0.0162,"dx":0.0183,"nx":112,"ny":82,"refTime":"2024-02-10T06:00:00:Z","depth":0,"parameterNumber":2,"parameterNumberName":"U-component_of_WINDS"},"data":[0.0,0.0,0.0,0.0,0.0,0.0,0.0,0.0,0.0,0.0,0.0,0.0,0.0,0.0,0.0,0.0,0.0,0.0,0.0,0.0,0.0,0.0,0.0,0.0,0.0,0.0,0.0,0.0,0.0,0.0,0.0,0.0,0.0,0.0,0.0,0.0,0.0,0.0,0.0,0.0,0.0,0.0,0.0,0.0,0.0,0.0,0.0,0.0,0.0,0.0,0.0,0.0,0.0,0.0,0.0,0.0,0.0,0.0,0.0,0.0,0.0,0.0,0.0,0.0,0.0,0.0,0.0,0.0,0.0,0.0,0.0,0.0,0.0,0.0,0.0,0.0,0.0,0.0,0.0,0.0,0.0,0.0,0.0,0.0,0.0,0.0,0.0,0.0,0.0,0.0,3.1902,3.4196,3.7792,3.9949,3.9891,3.8645,3.6621,3.3503,0.0,0.0,0.0,0.0,0.0,0.0,0.0,0.0,0.0,0.0,0.0,0.0,0.0,0.0,0.0,0.0,0.0,0.0,0.0,0.0,0.0,0.0,0.0,0.0,0.0,0.0,0.0,0.0,0.0,0.0,0.0,0.0,0.0,0.0,0.0,0.0,0.0,0.0,0.0,0.0,0.0,0.0,0.0,0.0,0.0,0.0,0.0,0.0,0.0,0.0,0.0,0.0,0.0,0.0,0.0,0.0,0.0,0.0,0.0,0.0,0.0,0.0,0.0,0.0,0.0,0.0,0.0,0.0,0.0,0.0,0.0,0.0,0.0,0.0,0.0,0.0,0.0,0.0,0.0,0.0,0.0,0.0,0.0,0.0,0.0,0.0,0.0,0.0,0.0,0.0,0.0,0.0,0.0,0.0,0.0,0.0,0.0,0.0,0.0,0.0,0.0,0.0,0.0,0.0,3.2587,3.6731,3.8888,4.0207,4.0453,3.8868,3.6805,3.4384,0.0,0.0,0.0,0.0,0.0,0.0,0.0,0.0,0.0,0.0,0.0,0.0,0.0,0.0,0.0,0.0,0.0,0.0,0.0,0.0,0.0,0.0,0.0,0.0,0.0,0.0,0.0,0.0,0.0,0.0,0.0,0.0,0.0,0.0,0.0,0.0,0.0,0.0,0.0,0.0,0.0,0.0,0.0,0.0,0.0,0.0,0.0,0.0,0.0,0.0,0.0,0.0,0.0,0.0,0.0,0.0,0.0,0.0,0.0,0.0,0.0,0.0,0.0,0.0,0.0,0.0,0.0,0.0,0.0,0.0,0.0,0.0,0.0,0.0,0.0,0.0,0.0,0.0,0.0,0.0,0.0,0.0,0.0,0.0,0.0,0.0,0.0,0.0,0.0,0.0,0.0,0.0,0.0,0.0,0.0,0.0,0.0,0.0,0.0,0.0,0.0,0.0,0.0,3.2244,3.4505,3.8015,3.9556,4.0481,4.0875,3.8974,3.6885,3.4847,3.3129,0.0,0.0,0.0,0.0,0.0,0.0,0.0,0.0,0.0,0.0,0.0,0.0,0.0,0.0,0.0,0.0,0.0,0.0,0.0,0.0,0.0,0.0,0.0,0.0,0.0,0.0,0.0,0.0,0.0,0.0,0.0,0.0,0.0,0.0,0.0,0.0,0.0,0.0,0.0,0.0,0.0,0.0,0.0,0.0,0.0,0.0,0.0,0.0,0.0,0.0,0.0,0.0,0.0,0.0,0.0,0.0,0.0,0.0,0.0,0.0,0.0,0.0,0.0,0.0,0.0,0.0,0.0,0.0,0.0,0.0,0.0,0.0,0.0,0.0,0.0,0.0,0.0,0.0,0.0,0.0,0.0,0.0,0.0,0.0,0.0,0.0,0.0,0.0,0.0,0.0,0.0,0.0,0.0,0.0,0.0,0.0,0.0,0.0,0.0,0.0,0.0,0.0,3.4128,3.5806,3.8375,3.9573,4.0275,4.0481,3.8648,3.6696,3.483,3.3083,0.0,0.0,0.0,0.0,0.0,0.0,0.0,0.0,0.0,0.0,0.0,0.0,0.0,0.0,0.0,0.0,0.0,0.0,0.0,0.0,0.0,0.0,0.0,0.0,0.0,0.0,0.0,0.0,0.0,0.0,0.0,0.0,0.0,0.0,0.0,0.0,0.0,0.0,0.0,0.0,0.0,0.0,0.0,0.0,0.0,0.0,0.0,0.0,0.0,0.0,0.0,0.0,0.0,0.0,0.0,0.0,0.0,0.0,0.0,0.0,0.0,0.0,0.0,0.0,0.0,0.0,0.0,0.0,0.0,0.0,0.0,0.0,0.0,0.0,0.0,0.0,0.0,0.0,0.0,0.0,0.0,0.0,0.0,0.0,0.0,0.0,0.0,0.0,0.0,0.0,0.0,0.0,0.0,0.0,0.0,0.0,0.0,0.0,0.0,0.0,0.0,0.0,3.3717,3.5309,3.7604,3.8563,3.8905,3.8563,3.7416,3.5909,3.4042,3.2792,0.0,0.0,0.0,0.0,0.0,0.0,0.0,0.0,0.0,0.0,0.0,0.0,0.0,0.0,0.0,0.0,0.0,0.0,0.0,0.0,0.0,0.0,0.0,0.0,0.0,0.0,0.0,0.0,0.0,0.0,0.0,0.0,0.0,0.0,0.0,0.0,0.0,0.0,0.0,0.0,0.0,0.0,0.0,0.0,0.0,0.0,0.0,0.0,0.0,0.0,0.0,0.0,0.0,0.0,0.0,0.0,0.0,0.0,0.0,0.0,0.0,0.0,0.0,0.0,0.0,0.0,0.0,0.0,0.0,0.0,0.0,0.0,0.0,0.0,0.0,0.0,0.0,0.0,0.0,0.0,0.0,0.0,0.0,0.0,0.0,0.0,0.0,0.0,0.0,0.0,0.0,0.0,0.0,0.0,0.0,0.0,0.0,0.0,0.0,0.0,0.0,0.0,3.3888,3.5532,0.0,3.8666,3.9008,3.8392,3.7501,3.608,3.3974,0.0,0.0,0.0,0.0,0.0,0.0,0.0,0.0,0.0,0.0,0.0,0.0,0.0,0.0,0.0,0.0,0.0,0.0,0.0,0.0,0.0,0.0,0.0,0.0,0.0,0.0,0.0,0.0,0.0,0.0,0.0,0.0,0.0,0.0,0.0,0.0,0.0,0.0,0.0,0.0,0.0,0.0,0.0,0.0,0.0,0.0,0.0,0.0,0.0,0.0,0.0,0.0,0.0,0.0,0.0,0.0,0.0,0.0,0.0,0.0,0.0,0.0,0.0,0.0,0.0,0.0,0.0,0.0,0.0,0.0,0.0,0.0,0.0,0.0,0.0,0.0,0.0,0.0,0.0,0.0,0.0,0.0,0.0,0.0,0.0,0.0,0.0,0.0,0.0,0.0,0.0,0.0,0.0,0.0,0.0,0.0,0.0,0.0,0.0,0.0,0.0,0.0,3.245,3.4025,3.5652,0.0,3.8392,3.8666,3.8032,3.7073,3.5737,3.3957,0.0,0.0,0.0,0.0,0.0,0.0,0.0,0.0,0.0,0.0,0.0,0.0,0.0,0.0,0.0,0.0,0.0,0.0,0.0,0.0,0.0,0.0,0.0,0.0,0.0,0.0,0.0,0.0,0.0,0.0,0.0,0.0,0.0,0.0,0.0,0.0,0.0,0.0,0.0,0.0,0.0,0.0,0.0,0.0,0.0,0.0,0.0,0.0,0.0,0.0,0.0,0.0,0.0,0.0,0.0,0.0,0.0,0.0,0.0,0.0,0.0,0.0,0.0,0.0,0.0,0.0,0.0,0.0,0.0,0.0,0.0,0.0,0.0,0.0,0.0,0.0,0.0,0.0,0.0,0.0,0.0,0.0,0.0,0.0,0.0,0.0,0.0,0.0,0.0,0.0,0.0,0.0,0.0,0.0,0.0,0.0,0.0,0.0,0.0,0.0,0.0,0.0,3.2484,3.4025,3.5549,3.7056,3.7535,3.7604,3.7244,3.584,3.4659,0.0,0.0,0.0,0.0,0.0,0.0,0.0,0.0,0.0,0.0,0.0,0.0,0.0,0.0,0.0,0.0,0.0,0.0,0.0,0.0,0.0,0.0,0.0,0.0,0.0,0.0,0.0,0.0,0.0,0.0,0.0,0.0,0.0,0.0,0.0,0.0,0.0,0.0,0.0,0.0,0.0,0.0,0.0,0.0,0.0,0.0,0.0,0.0,0.0,0.0,0.0,0.0,0.0,0.0,0.0,0.0,0.0,0.0,0.0,0.0,0.0,0.0,0.0,0.0,0.0,0.0,0.0,0.0,0.0,0.0,0.0,0.0,0.0,0.0,0.0,0.0,0.0,0.0,0.0,0.0,0.0,0.0,0.0,0.0,0.0,0.0,0.0,0.0,0.0,0.0,0.0,0.0,0.0,0.0,0.0,0.0,0.0,0.0,0.0,0.0,0.0,0.0,0.0,3.2484,3.4025,3.5549,3.7056,3.7535,3.7604,3.7244,3.6063,3.4915,3.3905,0.0,0.0,0.0,0.0,0.0,0.0,0.0,0.0,0.0,0.0,0.0,0.0,0.0,0.0,0.0,0.0,0.0,0.0,0.0,0.0,0.0,0.0,0.0,0.0,0.0,0.0,0.0,0.0,0.0,0.0,0.0,0.0,0.0,0.0,0.0,0.0,0.0,0.0,0.0,0.0,0.0,0.0,0.0,0.0,0.0,0.0,0.0,0.0,0.0,0.0,0.0,0.0,0.0,0.0,0.0,0.0,0.0,0.0,0.0,0.0,0.0,0.0,0.0,0.0,0.0,0.0,0.0,0.0,0.0,0.0,0.0,0.0,0.0,0.0,0.0,0.0,0.0,0.0,0.0,0.0,0.0,0.0,0.0,0.0,0.0,0.0,0.0,0.0,0.0,0.0,0.0,0.0,0.0,0.0,0.0,0.0,0.0,0.0,0.0,0.0,0.0,0.0,3.2724,3.4128,3.5549,3.7056,3.7535,3.7604,3.7244,3.6166,3.5155,3.435,0.0,0.0,0.0,0.0,0.0,0.0,0.0,0.0,0.0,0.0,0.0,0.0,0.0,0.0,0.0,0.0,0.0,0.0,0.0,0.0,0.0,0.0,0.0,0.0,0.0,0.0,0.0,0.0,0.0,0.0,0.0,0.0,0.0,0.0,0.0,0.0,0.0,0.0,0.0,0.0,0.0,0.0,0.0,0.0,0.0,0.0,0.0,0.0,0.0,0.0,0.0,0.0,0.0,0.0,0.0,0.0,0.0,0.0,0.0,0.0,0.0,0.0,0.0,0.0,0.0,0.0,0.0,0.0,0.0,0.0,0.0,0.0,0.0,0.0,0.0,0.0,0.0,0.0,0.0,0.0,0.0,0.0,0.0,0.0,0.0,0.0,0.0,0.0,0.0,0.0,0.0,0.0,0.0,0.0,0.0,0.0,0.0,0.0,0.0,0.0,0.0,0.0,3.3083,3.4299,3.5583,3.7056,3.7535,3.7621,3.7296,3.6217,3.5395,3.5001,0.0,0.0,0.0,0.0,0.0,0.0,0.0,0.0,0.0,0.0,0.0,0.0,0.0,0.0,0.0,0.0,0.0,0.0,0.0,0.0,0.0,0.0,0.0,0.0,0.0,0.0,0.0,0.0,0.0,0.0,0.0,0.0,0.0,0.0,0.0,0.0,0.0,0.0,0.0,0.0,0.0,0.0,0.0,0.0,0.0,0.0,0.0,0.0,0.0,0.0,0.0,0.0,0.0,0.0,0.0,0.0,0.0,0.0,0.0,0.0,4.0137,0.0,0.0,0.0,0.0,0.0,0.0,0.0,0.0,0.0,0.0,0.0,0.0,0.0,0.0,0.0,0.0,0.0,0.0,0.0,0.0,0.0,0.0,0.0,0.0,0.0,0.0,0.0,0.0,0.0,0.0,0.0,0.0,0.0,0.0,0.0,0.0,0.0,0.0,0.0,0.0,0.0,3.3117,3.4522,3.5857,3.7073,3.7535,3.7724,3.7655,3.6611,3.5686,3.5018,3.4453,0.0,0.0,0.0,0.0,0.0,0.0,0.0,0.0,0.0,0.0,0.0,0.0,0.0,0.0,0.0,0.0,0.0,0.0,0.0,0.0,0.0,0.0,0.0,0.0,0.0,0.0,0.0,0.0,0.0,0.0,0.0,0.0,0.0,0.0,0.0,0.0,0.0,0.0,0.0,0.0,0.0,0.0,0.0,0.0,0.0,0.0,0.0,0.0,0.0,0.0,0.0,0.0,0.0,0.0,0.0,0.0,0.0,0.0,0.0,0.0,4.1214,0.0,0.0,0.0,0.0,0.0,0.0,0.0,0.0,0.0,0.0,0.0,0.0,0.0,0.0,0.0,0.0,0.0,0.0,0.0,0.0,0.0,0.0,0.0,0.0,0.0,0.0,0.0,0.0,0.0,0.0,0.0,0.0,0.0,0.0,0.0,0.0,0.0,0.0,0.0,0.0,3.3888,3.4915,3.6011,3.733,3.7809,3.8032,3.8032,3.7176,3.6457,3.608,3.5001,0.0,0.0,0.0,0.0,0.0,0.0,0.0,0.0,0.0,0.0,0.0,0.0,0.0,0.0,0.0,0.0,0.0,0.0,0.0,0.0,0.0,0.0,0.0,0.0,0.0,0.0,0.0,0.0,0.0,0.0,0.0,0.0,0.0,0.0,0.0,0.0,0.0,0.0,0.0,0.0,0.0,0.0,0.0,0.0,0.0,0.0,0.0,0.0,0.0,0.0,0.0,0.0,0.0,4.5478,4.614,4.6947,4.6947,4.7341,4.7879,4.4877,4.3118,4.2393,0.0,0.0,0.0,0.0,0.0,0.0,0.0,0.0,0.0,0.0,0.0,0.0,0.0,0.0,0.0,0.0,0.0,0.0,0.0,0.0,0.0,0.0,0.0,0.0,0.0,3.8363,3.8363,0.0,0.0,0.0,0.0,0.0,0.0,0.0,0.0,0.0,0.0,0.0,0.0,3.4659,3.5361,3.62,3.7518,3.8118,3.8426,3.8426,3.7792,3.7347,3.7227,3.5618,3.4659,0.0,0.0,0.0,0.0,0.0,0.0,0.0,0.0,0.0,0.0,0.0,0.0,0.0,0.0,0.0,0.0,0.0,0.0,0.0,0.0,0.0,0.0,0.0,0.0,0.0,0.0,0.0,0.0,0.0,0.0,0.0,0.0,3.875,3.9206,0.0,0.0,0.0,0.0,0.0,0.0,0.0,0.0,0.0,0.0,0.0,0.0,0.0,0.0,4.5871,4.6616,4.7258,4.7838,4.8314,4.881,4.9307,4.9307,4.9369,4.9452,4.8976,0.0,4.5664,4.4857,0.0,0.0,0.0,0.0,0.0,0.0,0.0,0.0,0.0,0.0,0.0,0.0,0.0,0.0,0.0,0.0,0.0,0.0,0.0,0.0,0.0,0.0,4.043,3.8485,3.8122,3.7806,0.0,3.6428,3.6326,3.5279,3.4366,0.0,0.0,0.0,0.0,0.0,0.0,0.0,3.4385,3.5635,3.6679,3.7227,3.822,3.8837,3.8837,3.8443,3.7912,3.7244,3.6371,3.572,3.5378,3.459,0.0,0.0,0.0,0.0,0.0,0.0,0.0,0.0,0.0,0.0,0.0,0.0,0.0,0.0,0.0,0.0,0.0,0.0,0.0,0.0,0.0,0.0,0.0,0.0,0.0,0.0,0.0,0.0,0.0,3.9475,4.0261,3.993,4.0593,4.0758,0.0,0.0,0.0,0.0,0.0,0.0,0.0,0.0,0.0,4.585,4.6347,4.7258,4.8624,4.9535,5.0487,5.146,5.1646,5.2267,5.3178,5.293,5.3095,5.3571,5.3302,5.206,4.997,4.7258,4.5333,4.4049,0.0,0.0,0.0,0.0,4.3573,4.3511,4.4215,4.4339,0.0,4.4112,0.0,0.0,0.0,0.0,0.0,0.0,0.0,0.0,0.0,0.0,3.9964,3.8273,3.7672,3.7404,3.7153,3.691,3.6393,0.0,3.4847,3.4402,3.4196,0.0,0.0,0.0,0.0,3.4505,3.5515,3.6217,3.7022,3.8066,3.8614,3.9094,3.9505,3.9008,3.8426,3.7878,3.6919,3.6131,3.5532,3.5001,3.4796,0.0,0.0,0.0,0.0,0.0,0.0,0.0,0.0,0.0,0.0,0.0,0.0,0.0,0.0,0.0,0.0,0.0,0.0,0.0,0.0,0.0,0.0,0.0,0.0,0.0,0.0,0.0,0.0,4.0675,4.1483,4.08,4.1938,4.2249,0.0,0.0,0.0,0.0,0.0,0.0,4.525,4.5561,4.6637,4.8666,4.9411,5.0425,5.1791,5.2847,5.3944,5.5062,5.4938,5.5476,5.6552,5.6097,5.6262,5.6883,5.6552,5.5434,5.3592,4.9928,4.7486,4.5995,4.5519,4.4733,4.3925,4.4836,4.5167,4.5271,4.5954,4.6202,4.614,4.5788,0.0,4.4629,4.3594,0.0,0.0,0.0,0.0,4.2201,4.066,3.9935,3.9447,3.8195,3.769,3.7553,3.7724,3.7313,3.6696,0.0,3.5429,3.5018,3.4727,0.0,0.0,0.0,0.0,3.5121,3.6337,3.6731,3.7398,3.8631,3.9025,3.9385,3.9847,3.9385,3.8888,3.8512,3.7501,3.6662,3.6097,3.5635,3.5395,3.5395,0.0,0.0,0.0,0.0,0.0,0.0,0.0,0.0,0.0,0.0,0.0,0.0,0.0,0.0,0.0,0.0,0.0,0.0,0.0,0.0,0.0,0.0,0.0,0.0,0.0,0.0,0.0,0.0,0.0,4.2166,4.3366,0.0,0.0,0.0,0.0,4.407,4.5354,4.672,4.8107,4.8997,5.0135,5.1543,5.2868,5.4213,5.5579,5.6945,5.7856,5.8374,5.7918,5.798,5.8457,5.8001,5.7815,5.7856,5.7836,5.7028,5.5559,5.3199,5.088,4.881,4.8355,4.8127,4.8024,4.7651,4.7506,4.7527,4.7568,4.7589,4.7589,4.7548,4.6947,4.5995,4.465,4.4526,0.0,0.0,4.3852,4.3214,4.1953,4.0935,3.9903,3.8631,3.8289,3.8186,3.7827,3.7724,3.7484,0.0,3.5977,3.5481,3.5446,0.0,3.495,3.495,3.5241,3.5618,3.6063,3.7056,3.7878,3.8306,3.9333,3.9847,3.9522,3.9453,3.9282,3.8905,3.8135,3.769,3.7655,3.6936,3.6542,3.6542,3.6217,0.0,0.0,0.0,0.0,0.0,0.0,0.0,0.0,0.0,0.0,0.0,0.0,0.0,0.0,0.0,0.0,0.0,0.0,0.0,0.0,0.0,0.0,0.0,0.0,0.0,0.0,0.0,0.0,4.4857,4.6347,0.0,0.0,4.5892,4.6244,4.6885,4.792,4.9266,5.0943,5.1626,5.2847,5.4813,5.591,5.7132,5.8519,5.9305,5.9926,6.0361,5.9906,5.9926,6.034,5.9595,5.9409,5.9699,5.9699,5.8912,5.7587,5.709,5.4482,5.0756,4.999,4.9328,4.8831,4.8976,4.9204,4.9452,4.9452,4.9452,4.9307,4.8417,4.7713,4.7072,4.6285,4.6182,4.6264,4.6119,4.5756,4.4905,4.3285,4.2481,4.1519,3.9826,3.9248,3.9094,3.9196,3.8648,3.8118,3.8101,3.7296,3.6525,3.6268,3.6114,3.6029,3.6029,3.6148,3.6457,3.709,3.7724,3.8357,3.8991,3.9642,3.9984,3.9847,3.9607,3.9094,3.822,3.769,3.7193,3.6713,3.6422,3.6285,3.6285,3.6148,3.6029,0.0,0.0,0.0,0.0,0.0,0.0,0.0,0.0,0.0,0.0,0.0,0.0,0.0,0.0,0.0,0.0,0.0,0.0,0.0,0.0,0.0,0.0,0.0,0.0,0.0,0.0,4.6823,4.7424,4.9121,4.9804,4.8707,4.8748,4.9162,4.9928,5.0839,5.2226,5.4213,5.4751,5.5848,5.767,5.8601,5.9512,6.0444,6.1044,6.1499,6.1789,6.1355,6.1292,6.1541,6.063,6.0464,6.0899,6.0754,6.0071,5.9098,5.9409,5.7297,5.3758,5.2681,5.1791,5.1129,5.1129,5.1315,5.1564,5.1398,5.1253,5.0922,4.9701,4.8976,4.8459,4.7713,4.7589,4.7693,4.7527,4.7051,4.6219,4.4377,4.3439,4.2381,4.0797,4.0121,3.9916,4.0173,3.9522,3.894,3.9077,3.8186,3.7313,3.7056,3.7005,3.7005,3.7005,3.7005,3.7279,3.8049,3.8477,3.8957,3.959,4.0001,4.0121,3.9864,3.9847,3.9299,3.8032,3.7844,3.745,3.6679,3.6542,3.6474,3.6474,3.6337,3.6217,3.6097,0.0,0.0,0.0,0.0,0.0,0.0,0.0,0.0,0.0,0.0,0.0,0.0,0.0,0.0,0.0,0.0,0.0,0.0,0.0,0.0,0.0,0.0,0.0,4.5022,4.7051,4.8831,4.9804,5.1522,5.2102,5.0756,5.1025,5.1853,5.322,5.4151,5.5641,5.7856,5.8436,5.9098,6.0009,6.092,6.1396,6.1396,6.2265,6.2679,6.2679,6.2265,6.2058,6.2017,6.1127,6.0961,6.1334,6.092,6.0464,6.0009,6.003,5.9202,5.7836,5.6449,5.5641,5.5124,5.4213,5.3882,5.3778,5.3344,5.2909,5.2371,5.146,5.086,5.0239,4.8893,4.879,4.9038,4.8583,4.7723,4.6658,4.5236,4.3819,4.2514,4.1464,4.0892,4.0618,4.0618,4.0327,3.9967,3.9607,3.8631,3.7844,3.7809,3.7792,3.7792,3.7809,3.7809,0.0,3.8854,3.9265,3.9625,4.0001,4.0378,4.0292,3.9556,4.0155,3.9916,3.8409,3.8666,3.8512,3.7741,3.7364,3.7176,3.7193,3.6816,3.6457,3.6131,0.0,0.0,0.0,0.0,0.0,0.0,0.0,0.0,0.0,0.0,0.0,0.0,0.0,0.0,0.0,0.0,0.0,0.0,0.0,0.0,0.0,0.0,4.6803,4.6927,4.9204,5.1564,5.3468,5.4731,5.5414,5.5352,5.5186,5.5496,5.6531,5.7152,5.8043,5.9347,6.0175,6.0713,6.0961,6.2183,6.2679,6.2327,6.2866,6.3011,6.2679,6.2555,6.2493,6.2493,6.1913,6.1727,6.1831,6.1706,6.121,6.0527,6.0837,6.0154,5.8788,5.7401,5.6573,5.6076,5.5145,5.4399,5.382,5.3696,5.3364,5.295,5.2702,5.2309,5.1791,5.1067,5.0715,5.0529,5.0404,4.9141,4.7622,4.6476,4.4873,4.3248,4.1896,4.1474,4.1388,4.1388,4.1114,4.0909,4.1063,4.0618,3.9881,3.8785,3.8597,3.8683,3.8957,3.8768,0.0,3.9625,3.9813,3.9916,4.0018,4.0618,4.0703,3.995,4.007,3.9539,3.8015,3.7775,3.7347,3.6577,3.6457,3.6525,3.6782,3.6679,3.6713,0.0,0.0,0.0,0.0,0.0,0.0,0.0,0.0,0.0,0.0,0.0,0.0,0.0,0.0,0.0,0.0,0.0,0.0,0.0,0.0,0.0,0.0,4.8272,4.9804,5.0943,5.2495,5.4213,5.6097,5.7484,5.8229,5.8105,5.8208,5.8519,5.9036,5.9326,5.9947,6.1065,6.1624,6.2079,6.2472,6.3238,6.3445,6.299,6.3238,6.3135,6.2679,6.2679,6.2679,6.2679,6.2224,6.2141,0.0,6.212,6.1727,6.1272,6.152,6.1044,0.0,0.0,0.0,0.0,0.0,5.531,5.4668,5.4482,5.4234,5.3965,5.3571,5.3282,5.295,5.2288,5.1895,5.1466,5.0719,4.9592,4.8052,4.6276,4.4745,4.3403,4.2276,4.1816,4.1748,4.1919,4.1662,4.1457,4.1662,4.1525,0.0,4.0241,3.9967,3.9933,4.0155,4.0001,4.007,4.0652,4.0738,4.0738,4.0738,4.1131,4.1149,4.0566,4.0515,0.0,0.0,0.0,3.7587,3.6816,3.6782,0.0,0.0,0.0,3.7364,3.7433,3.7775,0.0,0.0,3.7398,3.7398,0.0,0.0,0.0,0.0,0.0,0.0,0.0,0.0,0.0,0.0,0.0,0.0,0.0,0.0,0.0,0.0,5.0798,5.3282,5.5952,5.6469,5.7008,5.8167,5.9761,6.0485,5.9823,6.0402,6.0878,6.0982,6.0982,6.152,6.2741,0.0,0.0,0.0,0.0,6.3942,6.3383,6.3425,6.3197,6.2679,6.2679,6.2679,6.2679,6.2286,6.2327,6.2679,6.2265,6.2079,6.2038,6.2038,6.1706,6.1023,5.9409,5.8457,5.7898,5.7028,5.6387,5.589,5.5476,0.0,0.0,5.4275,5.3965,5.3758,5.2909,5.2578,5.2025,5.0111,4.9124,4.806,4.537,4.4185,4.3466,4.2708,4.2142,4.1988,4.2279,4.2073,4.1834,4.1834,4.1834,4.1834,4.1834,4.1491,4.1251,4.1286,4.1251,4.1354,4.1714,4.1731,4.1697,4.1697,0.0,0.0,4.1268,4.1234,4.0601,3.9128,3.8922,3.8546,3.7844,3.7827,3.7844,3.7895,3.822,3.8255,3.7946,3.8648,3.9008,3.9025,3.834,3.8203,0.0,0.0,0.0,0.0,0.0,0.0,0.0,0.0,0.0,0.0,0.0,0.0,0.0,0.0,0.0,5.1253,5.3923,5.6469,5.885,6.0154,6.0796,6.0692,6.1003,6.1582,6.2493,6.21,6.2079,6.2804,6.2866,6.3135,6.3756,6.4128,0.0,6.4066,6.4791,6.4563,6.3383,6.3756,6.3507,6.2679,0.0,0.0,6.2679,6.2617,6.2617,6.2679,6.2617,6.2348,6.2038,6.2038,6.1334,6.0216,5.9864,5.9202,5.8415,5.7856,5.7132,5.6428,5.6324,5.6055,5.5641,5.5103,5.4689,5.4296,5.3758,5.3075,0.0,5.047,4.8819,4.7288,4.5743,4.4463,4.3486,4.3169,4.3135,4.3015,4.2792,4.269,4.2638,4.2638,4.2638,4.2638,4.2638,4.2056,4.1714,4.2022,4.1799,4.1731,4.2125,4.1902,4.1697,4.1697,4.1988,4.2022,4.1628,4.1594,4.1097,3.9899,3.8957,3.8375,3.822,3.822,3.8375,3.8683,3.8768,3.8905,3.9128,3.9282,3.9522,3.9813,3.9659,3.9625,0.0,0.0,0.0,0.0,0.0,0.0,0.0,0.0,0.0,0.0,0.0,4.6202,0.0,0.0,5.2019,5.4772,5.6945,5.8995,6.1044,6.212,6.2534,6.2079,6.2597,6.3114,6.3362,6.3362,6.3487,6.3694,6.3735,6.3921,6.4377,6.4604,6.4729,6.4749,6.5163,6.4977,6.4046,6.4294,6.3921,6.3052,6.3259,6.3114,6.2679,6.2928,6.2886,6.2679,6.2679,6.2555,6.2348,6.2348,6.1955,6.1313,6.1106,6.003,5.8581,5.8353,5.7836,5.7215,5.6987,5.6594,5.6097,5.5414,5.5041,5.4731,5.4048,5.353,5.2538,5.0032,4.8669,4.744,4.5362,4.4268,4.37,4.37,4.37,4.3597,4.3221,4.3135,4.3084,4.2895,4.2861,4.2861,4.2861,4.2536,4.2347,4.2536,4.2399,4.2347,4.2553,4.2399,4.2279,4.2279,4.245,4.2501,4.2296,4.1919,4.1303,4.0361,3.9779,3.9453,3.9453,3.9453,3.9556,3.9744,3.995,4.0138,4.0327,4.0498,4.0686,4.0875,4.1063,4.096,0.0,0.0,0.0,0.0,0.0,0.0,0.0,0.0,4.5498,4.6968,4.7982,4.9266,5.1377,5.3406,5.5559,5.7939,5.9699,6.1313,6.2866,6.3487,6.3673,6.3362,6.4108,6.4356,6.3818,6.4356,6.4604,6.4356,6.4315,6.4501,6.4977,6.4977,6.5225,6.566,6.5598,6.535,6.4853,6.4791,6.4294,6.3362,6.3756,6.3549,6.2804,6.3114,6.3073,6.2804,6.2741,6.2679,6.2679,6.2679,6.2617,6.2534,6.2162,6.0858,5.914,5.9036,5.8664,5.8125,5.7649,5.7194,5.6676,5.5745,5.5455,5.5289,5.4379,5.3859,5.2918,4.9569,4.8441,4.7443,4.4846,4.4094,4.4094,4.4094,4.4094,4.3991,4.3597,4.3512,4.3426,4.3135,4.3084,4.3084,4.3084,4.3084,4.3032,4.2878,4.2861,4.2861,4.2861,4.2861,4.2861,4.2861,4.2929,4.2998,4.3066,4.2296,4.1594,4.1063,4.0892,4.0806,4.0806,4.0806,4.0806,4.0806,4.1114,4.1268,4.1286,4.156,4.1697,4.1714,4.2108,4.1971,4.6637,4.5561,0.0,4.5871,4.583,4.6099,0.0,0.0,4.8417,5.0218,5.1315,5.2412,5.3882,5.6304,5.8457,5.9574,6.1934,6.3818,6.4418,6.4915,6.5308,6.5681,6.4791,6.4418,6.5101,6.4915,6.4853,6.5225,6.5288,6.5474,6.5929,6.5971,6.6178,6.6612,6.624,6.5805,6.535,6.4915,6.4294,6.3362,6.3425,6.3383,6.33,6.2928,6.2948,6.3259,6.2866,6.2679,6.2679,6.2679,6.2452,6.21,6.2058,6.1624,6.0982,6.0589,5.9906,5.9078,5.8622,5.8146,5.7608,5.6697,5.6407,5.6242,5.531,5.3792,5.2023,4.9819,4.7877,4.6161,4.4764,4.4471,4.4471,4.4471,4.4471,4.4368,4.4008,4.3923,4.3923,4.3871,4.3871,4.3871,4.3871,4.3871,4.3632,4.2964,4.2861,4.2861,4.2861,4.2861,4.2861,4.2861,4.3152,4.3495,4.3837,4.2861,4.233,4.2587,4.1953,4.1577,4.1577,4.1577,4.1577,4.1577,4.1611,4.1645,4.1645,4.1679,4.1697,4.1714,4.2108,4.2244,4.7237,0.0,0.0,0.0,4.7796,4.8769,4.997,5.0529,5.1212,5.2785,5.4255,5.5828,5.7753,5.9906,6.1769,0.0,6.4356,6.5432,6.5867,6.5619,6.5412,6.5288,6.4563,6.4418,6.535,6.5474,6.5598,6.5805,6.6053,6.6178,6.6116,6.6364,6.6364,6.5991,6.6053,6.5867,6.5412,6.5225,6.4791,6.417,6.4418,6.4294,6.3756,6.3859,6.3673,6.3362,6.2866,6.2679,6.2679,6.2679,6.2555,6.241,6.241,6.2141,6.1686,6.123,6.0485,5.9678,5.9471,5.8767,5.7856,5.7484,5.7173,5.6821,5.618,5.4653,5.2817,5.079,4.8959,4.729,4.587,4.5344,4.519,4.519,4.5019,4.483,4.4676,4.4642,4.4573,4.4351,4.4299,4.4231,4.4025,4.3991,4.3888,4.3563,4.3529,4.3529,4.3529,4.3529,4.3529,4.3529,4.3649,4.382,4.3974,4.3563,4.3358,4.3512,4.3221,4.3032,4.3032,4.3032,4.2929,4.2707,4.269,4.2587,4.2381,4.2381,4.2381,4.2381,4.2758,4.2947,4.7734,0.0,0.0,4.881,5.0301,5.1771,5.2599,5.3427,5.4441,5.6076,5.7546,5.914,6.1065,6.2804,0.0,6.5246,6.6033,6.655,6.6799,6.5991,6.5163,6.4418,6.3735,6.3611,6.4418,6.535,6.5971,6.6095,6.655,6.6737,6.6488,6.6799,6.6737,6.6178,6.624,6.6116,6.5805,6.5536,6.5163,6.4729,6.5039,6.4874,6.4253,6.4604,6.4232,6.3362,6.3011,6.2804,6.2679,6.2679,6.2679,6.2679,6.2679,6.2493,6.2162,6.1831,6.1065,6.0175,6.0175,5.9367,5.8312,5.8312,5.798,5.7525,5.707,5.5426,5.3398,5.1744,4.9736,4.7641,4.6424,4.6029,4.5823,4.5823,4.5618,4.5447,4.5549,4.5567,4.5481,4.5207,4.5138,4.5036,4.4676,4.4522,4.4453,4.4453,4.4368,4.4231,4.4025,4.3991,4.4025,4.4128,4.406,4.4077,4.4282,4.4111,4.4043,4.4128,4.4043,4.3991,4.3991,4.3991,4.3803,4.3409,4.3409,4.3221,4.2861,4.2964,4.3015,4.3015,4.3392,4.3563,0.0,0.0,5.0094,5.1895,5.3385,5.4875,5.6635,5.7401,5.8394,6.0671,6.1541,6.2183,6.3114,6.4418,6.535,6.5412,6.655,6.7295,6.6861,6.5991,6.4915,6.3569,6.2245,6.1624,0.0,6.4149,6.5619,6.6053,6.655,6.6985,6.742,6.7482,6.7668,6.8061,6.7233,6.6799,6.6737,6.5867,6.5163,6.4729,6.4729,6.4729,6.4729,6.4729,6.4232,6.3362,6.3362,6.3114,6.2679,6.2679,6.2679,6.2679,6.2679,6.2679,6.2679,6.2617,6.181,6.0671,6.0671,6.005,5.9264,5.9264,5.8933,5.8477,5.8022,5.5299,5.2398,5.1776,4.9139,4.6234,4.6234,4.6217,4.6217,4.6217,4.62,4.6303,4.6645,4.6731,4.6731,4.6714,4.6714,4.6594,4.6234,4.5858,4.5618,4.5618,4.531,4.4813,4.4094,4.3991,4.4128,4.4471,4.4197,4.4282,4.5019,4.4419,4.4145,4.4488,4.4179,4.3991,4.3991,4.3991,4.3803,4.3409,4.3409,4.3221,4.2861,4.3221,4.3392,4.3409,4.3786,4.3974,0.0,0.0,5.2909,5.4731,5.6449,5.8105,5.9616,6.0527,6.121,6.1706,6.1686,6.1665,6.1976,6.2866,6.3921,6.4791,6.6364,6.742,6.7295,6.6985,6.5805,6.3238,6.2804,0.0,0.0,0.0,0.0,6.5991,6.6799,6.7316,6.7482,6.8041,6.8041,6.7295,6.7254,6.6985,6.6364,6.6033,6.566,6.5163,6.5163,6.5163,6.5163,6.4563,6.4128,6.3818,6.3176,6.2804,6.2679,6.2679,6.2679,6.2679,6.2679,6.2679,6.2679,6.2679,6.2224,6.1582,6.1582,6.0775,5.9802,6.0113,5.9699,5.8974,5.8519,5.5956,5.3254,5.2628,4.9746,4.7039,4.7296,4.7176,4.6988,4.6988,4.6988,4.7091,4.7467,4.7553,4.7553,4.7553,4.7347,4.7039,4.6662,4.6286,4.6046,4.6046,4.5515,4.5019,4.4762,4.495,4.5053,4.4933,4.5019,4.5207,4.5464,4.5241,4.5258,4.5635,4.5549,4.5481,4.5481,4.5241,4.4916,4.4539,4.4282,4.3974,4.3614,4.3734,4.3923,4.4162,4.4556,4.4864,0.0,5.3903,5.5828,5.798,5.9885,6.1437,6.2141,6.2866,6.3176,6.2431,6.1644,6.1065,6.0899,6.1065,6.1727,6.328,6.4542,6.5619,6.6612,6.6178,6.4998,6.2928,6.2493,0.0,0.0,0.0,0.0,6.5681,6.6737,6.7378,6.773,6.8413,6.8413,6.7544,6.7668,6.7295,6.6364,6.6178,6.5867,6.5412,6.5412,6.5412,6.5412,6.4625,6.419,6.4004,6.3259,6.2804,6.2679,6.2679,6.2679,6.2679,6.2679,6.2679,6.2679,6.2679,6.2493,6.2265,6.2265,6.1479,6.0547,6.1023,6.0547,5.974,5.9429,5.721,5.457,5.3653,5.1192,4.8663,4.8281,4.7947,4.7758,4.7758,4.7758,4.7878,4.8255,4.8341,4.8341,4.8341,4.8032,4.7639,4.7262,4.6765,4.6388,4.6251,4.5823,4.5567,4.5686,4.5909,4.596,4.5738,4.5806,4.5858,4.5858,4.5858,4.6029,4.6406,4.6423,4.6423,4.6423,4.6063,4.5635,4.5121,4.4727,4.4419,4.4179,4.4316,4.4573,4.4933,4.5327,4.5635,5.4565,5.6801,5.8871,6.1582,6.3549,6.4729,6.4253,6.4418,6.4294,6.2866,6.1458,6.032,0.0,0.0,5.9119,6.0982,6.1458,6.2534,6.5163,6.4108,6.299,0.0,0.0,0.0,0.0,0.0,0.0,6.5288,0.0,6.7233,6.8165,6.8662,6.891,6.8848,6.8434,6.7751,6.6861,6.6364,6.5867,6.5474,6.5412,6.5412,6.535,6.4915,6.4439,6.4004,6.3549,6.3073,6.2679,6.2679,6.2679,6.2679,6.2679,6.2679,6.2679,6.2679,6.2679,6.2679,6.2679,6.21,6.1458,6.1893,6.1437,6.0713,6.0692,5.8767,5.6379,5.4664,5.2657,5.0652,4.8997,4.8563,4.8546,4.8563,4.858,4.87,4.9077,4.9111,4.9111,4.9094,4.8769,4.8392,4.8032,4.733,4.6731,4.6388,4.6354,4.644,4.6748,4.6782,4.6782,4.6782,4.6491,4.6286,4.6286,4.6303,4.6474,4.6834,4.6851,4.6834,4.6799,4.644,4.5892,4.5156,4.4762,4.4556,4.459,4.495,4.5344,4.5721,4.6114,4.6286,5.7898,6.0589,6.2928,6.4625,6.566,6.6053,6.5246,6.4625,6.3673,6.1603,5.9285,5.7277,0.0,0.0,0.0,5.9988,6.2907,0.0,6.7233,6.7627,0.0,0.0,0.0,6.4749,6.3487,6.3983,0.0,0.0,6.6674,6.7358,6.86,6.9428,6.9531,6.8848,6.8724,6.8227,6.7316,6.6488,6.6053,6.5929,6.5598,6.5225,6.4915,6.4418,6.3983,6.3507,6.3052,6.2804,6.2679,6.2679,6.2679,6.2679,6.2679,6.2679,6.2679,6.2679,6.2679,6.2679,6.2679,6.2327,6.1872,6.1996,6.1644,6.1106,6.0775,5.8319,5.5739,5.5307,5.2436,4.9481,4.9812,4.9556,4.9402,4.9693,4.995,5.0087,4.995,4.9899,4.9796,4.9505,4.9163,4.8769,4.8409,4.7947,4.7707,4.7878,4.7912,4.7639,4.6885,4.6782,4.6782,4.6782,4.6954,4.7073,4.7073,4.733,4.7656,4.8032,4.7793,4.7519,4.7228,4.6577,4.6012,4.5532,4.5156,4.5087,4.5361,4.5481,4.5858,4.6508,4.6902,4.7073,6.0858,6.3176,6.5101,6.6861,6.7047,6.6426,6.5122,6.3983,6.2245,5.8953,5.6718,0.0,0.0,0.0,0.0,0.0,0.0,0.0,6.7171,6.7813,6.7668,0.0,6.6923,0.0,6.5681,6.6053,6.6716,0.0,0.0,6.7668,6.9055,6.98,6.9862,6.9158,6.9345,6.891,6.7813,6.6674,6.6116,6.6095,6.566,6.5163,6.4729,6.4253,6.3942,6.3632,0.0,6.2804,6.299,6.2741,6.2679,6.2679,6.2679,6.2679,6.2679,6.2679,6.2679,6.2679,6.2679,6.2534,6.2327,6.2327,6.2017,6.1603,6.1355,5.9134,5.6789,5.5934,5.3402,5.0772,5.0552,5.0241,5.0139,5.0378,5.0567,5.0618,5.0276,5.019,5.0036,4.9471,4.9197,4.8906,4.8546,4.8306,4.8306,4.8683,4.8752,4.8563,4.8084,4.7878,4.7775,4.7775,4.7827,4.7861,4.7861,4.8049,4.8341,4.8717,4.8392,4.8084,4.7861,4.6971,4.6303,4.5926,4.5549,4.5618,4.6149,4.632,4.6714,4.7296,4.7673,4.7775,6.3549,6.5225,6.6467,6.8537,6.7916,6.6364,6.4439,6.2617,6.0175,5.5807,0.0,5.2826,5.1232,0.0,5.3675,5.6966,0.0,6.1934,6.6488,6.6737,6.6985,6.831,6.8103,6.7813,6.7751,6.7813,6.8165,6.8972,6.8289,6.8372,6.949,7.0007,7.0049,6.9614,6.9862,6.9428,6.8289,6.6923,6.624,6.6178,6.5722,6.5225,6.4729,6.4315,6.4128,6.4004,0.0,0.0,6.3362,6.2928,6.2741,6.2679,6.2679,6.2679,6.2679,6.2679,6.2679,6.2679,6.2679,6.2679,6.2679,6.2679,6.2431,6.212,6.212,6.0292,5.8168,5.6649,5.4597,5.2599,5.1312,5.0824,5.0824,5.0875,5.0875,5.0772,5.043,5.0293,5.0053,4.9368,4.9214,4.906,4.87,4.8597,4.8717,4.9163,4.9128,4.9214,4.9642,4.9317,4.906,4.906,4.8769,4.8563,4.8563,4.8597,4.8769,4.9111,4.8717,4.846,4.8409,4.7365,4.6611,4.6234,4.596,4.6149,4.6851,4.7193,4.7587,4.8015,4.8341,4.8306,6.6116,6.7813,6.8993,6.9738,6.8662,6.6674,6.4066,6.0671,0.0,0.0,5.1895,5.0363,5.0052,5.1667,0.0,5.8291,0.0,0.0,0.0,0.0,6.8724,0.0,0.0,0.0,0.0,0.0,0.0,0.0,0.0,0.0,7.0049,7.0504,7.0545,7.0069,6.9407,6.8972,6.8724,6.773,6.7047,6.6674,6.6219,6.5536,6.4729,6.4667,6.4418,6.4066,6.388,0.0,6.3362,6.33,6.3011,6.2679,6.2679,6.2679,6.2679,6.2679,6.2679,6.2679,6.2679,6.2679,6.2679,6.2679,6.2617,6.2555,6.2555,6.0257,5.7508,5.706,5.4356,5.171,5.1577,5.1423,5.1269,5.1611,5.1663,5.156,5.12,5.0875,5.0481,5.0087,5.0002,4.9847,4.9454,4.9163,4.9214,4.9899,4.9454,4.93,5.0002,4.9488,4.906,4.906,4.9008,4.8974,4.8974,4.9265,4.9454,4.9505,4.8871,4.8341,4.8049,4.7228,4.6611,4.6234,4.6457,4.6817,4.7262,4.733,4.7724,4.8392,4.846,4.8443,6.7792,6.8993,6.9552,6.9738,6.7751,6.4874,6.1624,0.0,0.0,0.0,4.9452,4.8686,4.8686,5.0756,0.0,0.0,0.0,0.0,0.0,0.0,0.0,0.0,0.0,0.0,0.0,0.0,0.0,0.0,0.0,0.0,0.0,7.0504,7.0504,7.0545,6.9428,6.8972,6.9179,6.8061,6.7233,6.6799,6.6343,6.5619,6.4729,6.4729,6.4604,6.4418,6.417,0.0,6.3694,6.3487,6.3114,6.2679,6.2679,6.2679,6.2679,6.2679,6.2679,6.2679,6.2679,6.2679,6.2679,6.2679,6.2679,6.2679,6.2679,6.0859,5.8615,5.7512,5.5328,5.2762,5.2048,5.1714,5.1645,5.18,5.1714,5.1508,5.1354,5.1012,5.0669,5.0481,5.0481,5.0378,5.0224,5.0036,5.0139,5.0687,5.0464,5.0378,5.0721,5.0464,5.0087,4.9693,4.9454,4.9419,4.9659,4.9454,4.9317,4.9317,4.8615,4.8118,4.7947,4.7193,4.6799,4.6817,4.6988,4.7365,4.7947,4.8152,4.8426,4.8769,4.8974,4.8974,6.8869,6.9614,6.9738,6.9428,6.655,6.2804,5.916,5.5207,0.0,0.0,4.7465,4.7486,4.7775,4.9845,5.2205,0.0,0.0,0.0,0.0,0.0,0.0,0.0,0.0,0.0,0.0,0.0,0.0,0.0,0.0,0.0,0.0,7.0545,7.0504,7.0877,6.9738,6.9241,6.949,6.8351,6.744,6.6799,6.6426,6.5784,6.4853,6.4853,6.4853,6.4853,6.4501,0.0,0.0,6.3673,6.3176,6.2679,6.2679,6.2679,6.2679,6.2679,6.2679,6.2679,6.2679,6.2679,6.2679,6.2679,6.2679,6.2679,6.2679,6.112,5.9082,5.7737,5.5702,5.3663,5.2314,5.1851,5.1851,5.1851,5.1645,5.1406,5.1406,5.1166,5.0926,5.0875,5.0858,5.0824,5.0721,5.0721,5.0858,5.1252,5.1252,5.1217,5.1303,5.1217,5.0978,5.0481,5.0087,4.995,5.0276,4.9693,4.9317,4.9317,4.8512,4.8084,4.8169,4.7433,4.721,4.7604,4.7758,4.8101,4.8615,4.906,4.93,4.93,4.9505,4.9505,6.9179,7.0111,7.0442,6.9221,6.5846,6.1851,5.8208,0.0,0.0,4.7424,4.6761,4.6844,4.8086,4.9535,5.1543,0.0,0.0,5.7939,0.0,0.0,0.0,0.0,0.0,0.0,0.0,0.0,0.0,0.0,0.0,0.0,0.0,7.0814,7.0814,7.0877,7.0359,6.9862,6.949,6.8972,6.8103,6.6799,6.6737,6.624,6.535,6.535,6.535,6.535,6.5308,0.0,0.0,6.4004,6.3487,6.2679,6.2679,6.2679,6.2679,6.2679,6.2679,6.2679,6.2679,6.2679,6.2679,6.2679,6.2679,6.2679,6.2679,6.0175,5.7493,5.7287,5.4791,5.2083,5.1868,5.1851,5.1851,5.1851,5.1817,5.18,5.18,5.1765,5.1663,5.1303,5.1252,5.1149,5.0772,5.0721,5.0858,5.1252,5.1012,5.0909,5.1252,5.1012,5.0875,5.1166,5.0858,5.0618,5.0669,5.0327,5.0087,5.0087,4.906,4.8597,4.8974,4.8238,4.7998,4.8375,4.906,4.9265,4.9026,4.9745,5.0087,5.0087,4.9745,4.9796,6.9055,7.038,7.0545,6.9158,6.5743,6.152,5.7049,0.0,0.0,4.6968,4.6037,4.6037,4.7651,4.8624,4.9783,5.1626,5.2288,0.0,0.0,0.0,0.0,0.0,0.0,0.0,0.0,0.0,0.0,0.0,0.0,0.0,0.0,7.1311,7.1187,7.0877,7.0421,6.9945,6.949,6.9034,6.8289,6.7233,6.6923,6.6488,6.5805,6.5536,6.5412,6.5412,6.5412,0.0,0.0,6.419,6.3694,6.3052,6.2804,6.2679,6.2679,6.2679,6.2679,6.2679,6.2679,6.2679,6.2679,6.2679,6.2679,6.2679,6.2679,6.1802,6.0175,5.7962,5.6156,5.458,5.2546,5.1851,5.1851,5.1851,5.1851,5.1851,5.1851,5.1851,5.18,5.1663,5.1645,5.1611,5.1423,5.1406,5.1457,5.1611,5.1508,5.1457,5.1611,5.1508,5.1457,5.1611,5.1063,5.0721,5.0721,5.019,4.9745,4.9505,4.8871,4.8546,4.8717,4.8426,4.8546,4.9163,4.9454,4.9745,5.0053,5.0378,5.0515,5.0515,5.0327,5.0378,6.7668,6.949,6.9924,6.86,6.5122,6.0775,0.0,0.0,0.0,4.6326,4.5643,4.5871,4.7403,4.8169,4.8831,4.9638,5.0239,5.175,5.502,0.0,0.0,0.0,0.0,0.0,0.0,0.0,0.0,0.0,0.0,0.0,0.0,0.0,7.1373,7.0877,7.0566,7.0111,6.949,6.9179,6.8434,6.7295,6.6944,6.6488,6.5909,6.5557,6.5412,6.5412,0.0,0.0,0.0,6.419,6.3694,6.3135,6.2804,6.2679,6.2679,6.2679,6.2679,6.2679,6.2679,6.2679,6.2679,6.2679,6.2679,6.2679,6.2679,6.2221,6.13,5.8859,5.7268,5.5911,5.2777,5.1851,5.1851,5.1851,5.1851,5.1851,5.1851,5.1851,5.1851,5.1851,5.1851,5.1851,5.1851,5.1851,5.1851,5.1851,5.1851,5.1851,5.1851,5.1851,5.1851,5.1851,5.1371,5.1063,5.1063,5.0481,5.0002,4.9745,4.9163,4.8923,4.9111,4.8923,4.9163,4.9933,5.0036,5.0327,5.0721,5.0961,5.1012,5.0909,5.0909,5.0824,6.4729,6.7109,6.8537,6.7171,6.3735,5.9388,0.0,0.0,4.7175,4.5374,4.5705,4.6616,4.7527,4.8438,4.9204,4.968,5.0508,5.1915,5.4234,0.0,0.0,0.0,0.0,0.0,0.0,0.0,0.0,0.0,0.0,0.0,0.0,0.0,7.1373,7.0877,7.0877,7.0421,6.949,6.949,6.8558,6.6799,6.6799,6.6302,6.5412,6.5412,6.5412,0.0,0.0,0.0,0.0,6.4066,6.3507,6.2679,6.2679,6.2679,6.2679,6.2679,6.2679,6.2679,6.2679,6.2679,6.2679,6.2679,6.2679,6.2679,6.2679,6.1561,5.9973,5.9973,5.7474,5.4104,5.2297,5.1851,5.1851,5.1851,5.1851,5.1851,5.1851,5.1851,5.1851,5.1851,5.1851,5.1851,5.1851,5.1851,5.1851,5.1851,5.1851,5.1851,5.1851,5.1851,5.1851,5.1851,5.1851,5.1851,5.1851,5.1508,5.1303,5.1303,5.0224,4.9933,5.0669,4.9984,4.995,5.0669,5.1115,5.1115,5.0721,5.1457,5.1663,5.1303,5.1303,5.1115,5.9741,6.2158,6.3762,6.1756,5.9512,5.6718,5.2309,0.0,4.7734,4.6223,4.5912,4.6368,4.7879,4.8396,4.8955,5.0032,5.0715,5.1584,5.295,0.0,0.0,0.0,0.0,0.0,0.0,0.0,0.0,0.0,0.0,0.0,0.0,0.0,7.1001,7.0877,7.0566,7.0111,6.949,6.9179,6.8475,6.7254,6.6923,6.6488,6.5867,6.5557,0.0,0.0,0.0,0.0,0.0,6.3859,6.3425,6.3114,6.2804,6.2679,6.2679,6.2679,6.2679,6.2679,6.2679,6.2679,6.2679,6.2679,6.2679,6.2679,6.2679,6.2221,6.1541,6.0416,5.7474,5.458,5.3893,5.2759,5.1851,5.1851,5.1851,5.1851,5.1851,5.1851,5.1851,5.1851,5.1851,5.1851,5.1851,5.1851,5.1851,5.1851,5.1851,5.1851,5.1851,5.1851,5.1851,5.1851,5.1851,5.1748,5.1508,5.1354,5.12,5.0909,5.0567,5.0481,5.0721,5.0481,5.0618,5.1115,5.1252,5.1354,5.1508,5.1748,5.18,5.1697,5.1697,5.1611,0.0,5.8641,6.0373,5.8494,5.6945,0.0,0.0,0.0,0.0,4.6119,4.5892,4.6326,4.7631,4.8148,4.8603,4.9266,4.9928,5.0653,5.1584,0.0,0.0,0.0,0.0,0.0,0.0,0.0,0.0,0.0,0.0,0.0,0.0,0.0,7.0877,7.0877,7.0421,6.9945,6.949,6.891,6.8123,6.7233,6.6737,6.6302,6.5846,6.5536,0.0,0.0,0.0,0.0,0.0,6.3611,6.3259,6.3073,6.2804,6.2679,6.2679,6.2679,6.2679,6.2679,6.2679,6.2679,6.2679,6.2679,6.2679,6.2679,6.2679,6.2679,6.2241,5.975,5.7287,5.5229,5.3893,5.2742,5.1851,5.1851,5.1851,5.1851,5.1851,5.1851,5.1851,5.1851,5.1851,5.1851,5.1851,5.1851,5.1851,5.1851,5.1988,5.2091,5.2091,5.2091,5.2142,5.2296,5.2039,5.18,5.1748,5.1594,5.1406,5.1166,5.1012,5.1012,5.1166,5.1012,5.1115,5.1508,5.1508,5.1611,5.1851,5.1851,5.1851,5.1851,5.1851,5.1851,0.0,5.6147,5.7669,5.6821,5.5186,5.3075,0.0,0.0,0.0,0.0,0.0,4.6471,4.6989,4.7755,4.821,4.7879,4.8583,4.9473,5.0342,0.0,0.0,0.0,0.0,0.0,0.0,0.0,0.0,0.0,0.0,0.0,0.0,0.0,0.0,7.0814,7.0359,6.9924,6.949,6.86,6.7689,6.6799,6.6343,6.5867,6.5412,6.5412,0.0,0.0,0.0,0.0,0.0,6.3321,6.3052,6.2679,6.2679,6.2679,6.2679,6.2679,6.2679,6.2679,6.2679,6.2679,6.2679,6.2679,6.2679,6.2679,6.2679,6.2679,6.2001,5.8635,5.7474,5.6798,5.3221,5.2117,5.2134,5.1902,5.1902,5.1902,5.1902,5.1868,5.1851,5.1851,5.1851,5.1851,5.1851,5.1868,5.1902,5.1902,5.2228,5.2467,5.2467,5.2467,5.2622,5.2964,5.233,5.2039,5.2382,5.2091,5.1851,5.1851,5.156,5.1508,5.1851,5.1508,5.1508,5.1851,5.1851,5.1851,5.1851,5.1851,5.1851,5.1851,5.1851,5.1851,4.9962,0.0,5.2112,4.9911,4.9428,4.8966,0.0,0.0,0.0,0.0,0.0,4.6182,4.732,4.7713,4.8169,4.9121,4.9742,5.0301,5.086,0.0,0.0,0.0,0.0,0.0,0.0,0.0,0.0,0.0,0.0,0.0,0.0,0.0,0.0,7.0359,6.9883,6.9614,6.9531,6.8289,6.7358,6.6799,6.6343,6.5867,6.5412,6.5412,0.0,0.0,0.0,0.0,6.3362,6.299,6.2804,6.2679,6.2679,6.2679,6.2679,6.2679,6.2679,6.2679,6.2679,6.2679,6.2679,6.2679,6.2679,6.2679,6.2679,6.2679,6.246,6.1561,6.0436,5.8839,5.6609,5.5237,5.3892,5.2496,5.2279,5.2279,5.2279,5.2056,5.1851,5.1851,5.1851,5.1851,5.1851,5.2091,5.2279,5.2279,5.2622,5.2861,5.2861,5.2861,5.2913,5.3015,5.257,5.233,5.2416,5.2091,5.1851,5.1851,5.1765,5.1765,5.1851,5.1765,5.1765,5.1851,5.1851,5.1851,5.1851,5.1851,5.1851,5.1851,5.1851,5.1851,4.8543,4.94,5.0006,4.7954,4.7783,4.742,4.5678,0.0,0.0,0.0,0.0,0.0,4.6678,0.0,0.0,4.8376,4.9059,0.0,0.0,0.0,0.0,0.0,0.0,0.0,0.0,0.0,0.0,0.0,0.0,0.0,0.0,0.0,0.0,7.0193,6.9552,6.9096,6.891,6.7751,6.6861,6.6157,6.5681,6.535,6.5101,6.5101,6.4853,0.0,0.0,0.0,6.3052,6.2804,6.2679,6.2679,6.2679,6.2679,6.2679,6.2679,6.2679,6.2679,6.2679,6.2679,6.2679,6.2679,6.2679,6.2679,6.2679,6.2679,6.246,6.1802,6.102,5.9803,5.7756,5.6373,5.5177,5.3853,5.324,5.2622,5.2467,5.2382,5.2296,5.1902,5.2142,5.233,5.2142,5.2433,5.2707,5.2707,5.3015,5.3272,5.3272,5.3272,5.3306,5.3495,5.3015,5.2776,5.2913,5.2433,5.2039,5.1851,5.1851,5.1851,5.1851,5.1851,5.1851,5.1851,5.1851,5.1851,5.1851,5.1851,5.1851,5.1851,5.1851,5.1851,4.8584,4.9382,4.9897,4.8488,4.789,4.7346,4.6016,0.0,0.0,0.0,0.0,0.0,0.0,0.0,0.0,0.0,0.0,0.0,0.0,0.0,0.0,0.0,0.0,0.0,0.0,0.0,0.0,0.0,0.0,0.0,0.0,0.0,0.0,6.9986,6.9179,6.8475,6.7979,6.7171,6.6364,6.5536,6.4977,6.4729,6.4729,6.4667,6.4377,6.3942,0.0,0.0,6.2679,6.2679,6.2679,6.2679,6.2679,6.2679,6.2679,6.2679,6.2679,6.2679,6.2679,6.2679,6.2679,6.2679,6.2679,6.2679,6.2679,6.2741,6.2543,6.098,6.0796,6.0567,5.8456,5.711,5.6219,5.541,5.4223,5.3015,5.2673,5.2776,5.2724,5.2056,5.2433,5.2759,5.2467,5.2759,5.3015,5.3101,5.3409,5.3649,5.3649,5.3649,5.3752,5.4094,5.3495,5.3221,5.3512,5.2913,5.233,5.1954,5.1902,5.1851,5.1851,5.1902,5.1902,5.1851,5.1851,5.1851,5.1851,5.1902,5.1902,5.1851,5.1902,5.1902,4.9434,5.0384,5.0648,4.8513,4.7831,4.7462,0.0,0.0,0.0,0.0,0.0,0.0,0.0,0.0,0.0,0.0,0.0,0.0,0.0,0.0,0.0,0.0,0.0,0.0,0.0,0.0,0.0,0.0,0.0,0.0,0.0,0.0,0.0,6.9034,6.8537,6.7875,6.7047,6.6861,6.655,6.5991,6.5163,6.4729,6.4729,6.4356,6.3921,6.3487,0.0,6.3176,6.2679,6.2679,6.2679,6.2679,6.2679,6.2679,6.2679,6.2679,6.2679,6.2679,6.2679,6.2679,6.2679,6.2679,6.2679,6.2679,6.2679,6.2948,6.328,6.3038,6.2837,6.2536,6.1249,5.961,5.8079,5.6638,5.4838,5.3461,5.3409,5.2913,5.2485,5.2382,5.2193,5.2108,5.2382,5.2759,5.3118,5.3409,5.3803,5.4043,5.4043,5.4043,5.4077,5.4128,5.3752,5.3512,5.3563,5.317,5.2759,5.2382,5.2039,5.1851,5.1851,5.2176,5.2193,5.1851,5.1851,5.1851,5.1851,5.2193,5.2193,5.1851,5.2193,5.2176,4.8951,4.9617,4.9995,4.951,4.9418,0.0,0.0,0.0,0.0,0.0,0.0,0.0,0.0,0.0,0.0,0.0,0.0,0.0,0.0,0.0,0.0,0.0,0.0,0.0,0.0,0.0,0.0,0.0,0.0,0.0,0.0,0.0,0.0,0.0,6.7792,6.7109,6.6426,6.6178,6.5805,6.535,6.4687,6.4377,6.4356,6.388,6.3569,6.3362,0.0,6.3114,6.2679,6.2679,6.2679,6.2679,6.2679,6.2679,6.2679,6.2679,6.2679,6.2679,6.2679,6.2679,6.2679,6.2679,6.2679,6.2679,6.2679,6.299,6.3425,6.3694,6.3921,6.3884,6.3149,6.2005,6.0825,5.9684,5.7437,5.5225,5.5217,5.416,5.3204,5.281,5.2913,5.3067,5.3067,5.3358,5.3683,5.3837,5.4026,5.4128,5.4128,5.4128,5.4128,5.4128,5.3991,5.3854,5.3854,5.3512,5.3152,5.2776,5.2193,5.1954,5.2142,5.2142,5.2039,5.1851,5.2056,5.2142,5.2176,5.257,5.2673,5.2485,5.2673,5.2673,4.8676,4.9089,4.9686,5.0582,0.0,0.0,0.0,0.0,0.0,0.0,0.0,0.0,0.0,0.0,0.0,0.0,0.0,0.0,0.0,0.0,0.0,0.0,0.0,0.0,0.0,0.0,0.0,0.0,0.0,0.0,0.0,0.0,0.0,0.0,6.6985,6.6302,6.5929,6.537,6.4977,6.4729,6.417,6.388,6.388,6.3425,6.3197,6.3197,6.3197,6.299,6.2679,6.2679,6.2679,6.2679,6.2679,6.2679,6.2679,6.2679,6.2679,6.2679,6.2679,6.2679,6.2679,6.2679,6.2679,6.2679,6.2804,6.3176,6.3632,6.4108,6.448,6.4667,6.4439,6.3489,6.255,6.2193,5.9306,5.6835,5.6546,5.5172,5.3735,5.3255,5.3461,5.37,5.3563,5.3803,5.4043,5.4128,5.4128,5.4128,5.4128,5.4128,5.4128,5.4128,5.4128,5.4128,5.4128,5.3803,5.3461,5.3306,5.2536,5.2228,5.2416,5.2245,5.2091,5.2005,5.2382,5.257,5.257,5.2964,5.3101,5.3015,5.3118,5.3101,4.9548,5.0145,5.065,0.0,0.0,0.0,0.0,0.0,0.0,0.0,0.0,0.0,0.0,0.0,0.0,0.0,0.0,0.0,0.0,0.0,0.0,0.0,0.0,0.0,0.0,0.0,0.0,0.0,0.0,0.0,0.0,0.0,0.0,0.0,0.0,6.5495,6.5474,6.4604,6.4356,6.4729,6.3859,6.3425,6.3425,6.2928,6.2741,6.2741,6.2741,6.27,6.2679,6.2679,6.2679,6.2679,6.2679,6.2679,6.2679,6.2679,6.2679,6.2679,6.2679,6.2679,6.2679,6.2679,6.2679,6.2741,6.3197,6.3632,6.4108,6.4542,6.4729,6.4791,6.5225,6.3955,6.2609,6.255,5.973,5.6943,5.6907,5.4979,5.317,5.3461,5.3015,5.2776,5.3461,5.3563,5.37,5.4077,5.4128,5.4128,5.4128,5.4128,5.4128,5.4128,5.4128,5.4128,5.4128,5.3803,5.37,5.4026,5.3358,5.2776,5.2433,5.2759,5.2776,5.2382,5.2776,5.2964,5.2964,5.3358,5.3358,5.3015,5.3358,5.3358,4.886,4.9548,0.0,0.0,0.0,0.0,0.0,0.0,0.0,0.0,0.0,0.0,0.0,0.0,0.0,0.0,0.0,0.0,0.0,0.0,0.0,0.0,0.0,0.0,0.0,0.0,0.0,0.0,0.0,0.0,0.0,0.0,0.0,0.0,0.0,6.4977,6.4977,6.4108,6.3735,6.3859,6.3549,6.3362,6.3362,6.2866,6.2679,6.2679,6.2679,6.2679,6.2679,6.2679,6.2679,6.2679,6.2679,6.2679,6.2679,6.2679,6.2679,6.2679,6.2679,6.2679,6.2679,6.2679,6.2679,6.2741,6.2866,6.3487,6.4108,6.4253,6.4729,6.5101,6.5039,6.4523,6.3819,6.3819,6.218,6.0219,5.908,5.6964,5.5155,5.4147,5.37,5.3598,5.3854,5.3906,5.394,5.4128,5.4128,5.4128,5.4128,5.4128,5.4128,5.4128,5.4128,5.4128,5.4128,5.3991,5.3991,5.4128,5.3443,5.3067,5.3118,5.3067,5.2964,5.281,5.317,5.3358,5.3358,5.3752,5.3837,5.37,5.3837,5.3837,4.8423,4.8905,0.0,0.0,0.0,0.0,0.0,0.0,0.0,0.0,0.0,0.0,0.0,0.0,0.0,0.0,0.0,0.0,0.0,0.0,0.0,0.0,0.0,0.0,0.0,0.0,0.0,0.0,0.0,0.0,0.0,0.0,0.0,0.0,6.4791,6.4294,6.4294,6.3549,6.3176,6.3176,6.3176,6.3176,6.3135,6.2804,6.2679,6.2679,6.2679,6.2679,6.2679,6.2679,6.2679,6.2679,6.2679,6.2679,6.2679,6.2679,6.2679,6.2679,6.2679,6.2679,6.2679,6.2679,6.2679,6.27,6.2866,6.3362,6.388,6.419,6.4625,6.4936,6.4791,6.4853,6.4915,6.4915,6.3813,6.2318,6.0786,5.8421,5.6506,5.5126,5.4422,5.4043,5.4283,5.4283,5.4334,5.4471,5.4488,5.4437,5.4334,5.4283,5.4283,5.4128,5.4128,5.4128,5.4128,5.4128,5.4128,5.4128,5.3649,5.3409,5.3563,5.3306,5.317,5.317,5.3546,5.3752,5.3752,5.3991,5.4128,5.4128,5.4128,5.4128,4.8538,0.0,0.0,0.0,0.0,0.0,0.0,0.0,0.0,0.0,0.0,0.0,0.0,0.0,0.0,0.0,0.0,0.0,0.0,0.0,0.0,0.0,0.0,0.0,0.0,0.0,0.0,0.0,0.0,0.0,0.0,0.0,0.0,0.0,6.3859,6.3362,6.3362,6.2928,6.2679,6.2679,6.2679,6.2679,6.2679,6.2679,6.2679,6.2679,6.2679,6.2679,6.2679,6.2679,6.2679,6.2679,6.2679,6.2679,6.2679,6.2679,6.2679,6.2679,6.2679,6.2679,6.2679,6.2679,6.2679,6.2741,6.3238,6.3362,6.3569,6.448,6.4418,6.419,6.4604,6.5101,6.5412,6.5412,6.4016,6.2491,6.2074,5.8929,5.6348,5.6366,5.4961,5.3803,5.4539,5.4676,5.4831,5.5224,5.5276,5.5122,5.4728,5.4676,5.4539,5.418,5.4128,5.4128,5.4128,5.4128,5.4128,5.4128,5.4128,5.394,5.3563,5.3563,5.3563,5.3563,5.394,5.4128,5.4128,5.4128,5.4128,5.4128,5.4128,5.4128,4.9043,0.0,0.0,0.0,0.0,0.0,0.0,0.0,0.0,0.0,0.0,0.0,0.0,0.0,0.0,0.0,0.0,0.0,0.0,0.0,0.0,0.0,0.0,0.0,0.0,0.0,0.0,0.0,0.0,0.0,0.0,0.0,0.0,0.0,6.3694,6.3362,6.3362,6.2928,6.2679,6.2679,6.2679,6.2679,6.2679,6.2679,6.2679,6.2679,6.2679,6.2679,6.2679,6.2679,6.2679,6.2679,6.2679,6.2679,6.2679,6.2679,6.2679,6.2679,6.2679,6.2679,6.2679,6.2679,6.2679,6.27,6.2866,6.3362,6.3921,6.419,6.4625,6.5039,6.5163,6.5308,6.535,6.4977,6.4728,6.4205,6.2702,6.0533,5.8384,5.7,5.5559,5.4437,5.4625,5.4916,5.5122,5.5259,5.5276,5.5122,5.4728,5.4676,5.4625,5.4522,5.4522,5.4522,5.4522,5.4283,5.4128,5.4128,5.4128,5.4077,5.3991,5.4197,5.4334,5.4334,5.4728,5.4916,5.4916,5.4625,5.4522,5.4522,5.4231,5.4128,0.0,0.0,0.0,0.0,0.0,0.0,0.0,0.0,0.0,0.0,0.0,0.0,0.0,0.0,0.0,0.0,0.0,0.0,0.0,0.0,0.0,0.0,0.0,0.0,0.0,0.0,0.0,0.0,0.0,0.0,0.0,0.0,0.0,0.0,6.3321,6.3114,6.3114,6.2804,6.2679,6.2679,6.2493,6.2493,6.2679,6.2679,6.2679,6.2679,6.2679,6.2679,6.2679,6.2679,6.2679,6.2679,6.2679,6.2679,6.2679,6.2679,6.2679,6.2679,6.2679,6.2679,6.2679,6.2679,6.2679,6.2679,6.2679,6.3073,6.3569,6.3942,6.4439,6.4977,6.5308,6.5412,6.535,6.5039,6.5225,6.5142,6.3813,6.1543,5.9476,5.8166,5.6217,5.4728,5.4882,5.5224,5.5515,5.5704,5.5567,5.5413,5.5156,5.5019,5.4916,5.4916,5.4916,5.4916,5.4916,5.4574,5.4334,5.4334,5.4231,5.4128,5.4128,5.4488,5.4676,5.4676,5.507,5.5173,5.5019,5.4968,5.4831,5.4676,5.4625,5.4488,0.0,0.0,0.0,0.0,0.0,0.0,0.0,0.0,0.0,0.0,0.0,0.0,0.0,0.0,0.0,0.0,0.0,0.0,0.0,0.0,0.0,0.0,0.0,0.0,0.0,0.0,0.0,0.0,0.0,0.0,0.0,0.0,0.0,0.0,6.2866,6.2617,6.2617,6.2555,6.2555,6.2555,6.2162,6.2203,6.2617,6.2617,6.2617,6.2679,6.2679,6.2679,6.2679,6.2679,6.2679,6.2679,6.2679,6.2679,6.2679,6.2679,6.2679,6.2679,6.2679,6.2679,6.2679,6.2679,6.2679,6.2679,6.2679,6.27,6.2928,6.3756,6.4066,6.4315,6.5163,6.537,6.5412,6.5412,6.5412,6.5288,6.4853,6.2081,5.9654,5.9256,5.6794,5.4831,5.5224,5.5601,5.5995,5.6337,5.6046,5.5789,5.5789,5.5515,5.531,5.531,5.531,5.531,5.5276,5.4916,5.4676,5.4625,5.4334,5.4128,5.418,5.4522,5.4728,5.4728,5.5173,5.5173,5.4831,5.5173,5.5122,5.4728,5.5122,5.507,0.0,0.0,0.0,0.0,0.0,0.0,0.0,0.0,0.0,0.0,0.0,0.0,0.0,0.0,0.0,0.0,0.0,0.0,0.0,0.0,0.0,0.0,0.0,0.0,0.0,0.0,0.0,0.0,0.0,0.0,0.0,0.0,0.0,6.2804,6.241,6.2183,6.2183,6.181,6.1624,0.0,6.1541,6.1727,6.2183,6.2183,6.2348,6.2679,6.2679,6.2679,6.2679,6.2679,6.2679,6.2679,6.2679,6.2679,6.2679,6.2679,6.2679,6.2679,6.2679,6.2679,6.2679,6.2679,6.2679,6.2679,6.2679,6.2928,6.3259,6.3445,6.4046,6.4604,6.4853,6.5163,6.5412,6.5412,6.5412,6.5412,6.5288,6.2279,5.9749,5.9654,5.7225,5.5173,5.5259,5.5807,5.6286,5.6389,5.6046,5.5789,5.5789,5.5738,5.5704,5.5704,5.5704,5.5567,5.5276,5.4916,5.4574,5.4283,5.418,5.4283,5.4539,5.4933,5.5122,5.5122,5.5807,5.6098,5.5995,5.5789,5.5498,5.5122,5.5224,5.507,0.0,0.0,0.0,0.0,0.0,0.0,0.0,0.0,0.0,0.0,0.0,0.0,0.0,0.0,0.0,0.0,0.0,0.0,0.0,0.0,0.0,0.0,0.0,0.0,0.0,0.0,0.0,0.0,0.0,0.0,0.0,6.2162,6.2038,6.2038,6.1831,6.1706,6.1706,6.1458,6.1355,6.1355,6.1127,6.1148,6.1417,6.2058,6.2348,6.239,6.2617,6.2679,6.2679,6.2679,6.2679,6.2679,6.2679,6.2679,6.2679,6.2679,6.2679,6.2679,6.2679,6.2679,6.2679,6.2679,6.2679,6.2679,6.2679,6.2866,6.3135,6.3569,6.4046,6.4501,6.4936,6.5225,6.5412,6.5412,6.5412,6.5412,6.5412,6.3212,6.1172,6.006,5.8202,5.6684,5.5557,5.5892,5.6389,5.6389,5.62,5.6098,5.6098,5.6098,5.6098,5.6098,5.6098,5.5944,5.555,5.5173,5.4779,5.442,5.4231,5.4283,5.4676,5.507,5.5361,5.5515,5.6098,5.6286,5.6098,5.6098,5.5892,5.5515,5.5704,5.5601,0.0,0.0,0.0,0.0,0.0,0.0,0.0,0.0,0.0,0.0,0.0,0.0,0.0,0.0,0.0,0.0,0.0,0.0,0.0,0.0,0.0,0.0,0.0,0.0,0.0,0.0,0.0,0.0,0.0,0.0,6.1913,6.1479,6.123,6.123,6.1065,6.1023,6.1106,6.0961,6.0899,6.0982,6.0692,6.0527,6.0485,6.1831,6.2245,6.1934,6.2307,6.2493,6.2555,6.2555,6.2617,6.2679,6.2679,6.2679,6.2679,6.2679,6.2679,6.2679,6.2679,6.2679,6.2679,6.2679,6.2679,6.2679,6.2679,6.2679,6.2866,6.3694,6.4004,6.4253,6.5101,6.535,6.5412,6.5412,6.5412,6.5412,6.5412,6.4088,6.207,6.0098,5.8831,5.7618,5.5729,5.5995,5.6389,5.6389,5.6389,5.6389,5.6389,5.6389,5.6389,5.6389,5.6337,5.6132,5.5755,5.5361,5.5019,5.4625,5.4368,5.4385,5.4779,5.5173,5.5515,5.5892,5.6235,5.6235,5.5892,5.6235,5.6183,5.5807,5.6183,5.6183,0.0,0.0,0.0,0.0,0.0,0.0,0.0,0.0,0.0,0.0,0.0,0.0,0.0,0.0,0.0,0.0,0.0,0.0,0.0,0.0,0.0,0.0,0.0,0.0,0.0,0.0,0.0,0.0,0.0,0.0,6.1458,6.1023,6.0775,6.0775,5.9988,5.9761,6.0175,5.9388,5.9181,5.9574,5.9926,5.9864,5.9533,6.0899,6.1499,6.1437,6.1499,6.1748,6.212,6.212,6.2348,6.2679,6.2679,6.2679,6.2679,6.2679,6.2679,6.2679,6.2679,6.2679,6.2679,6.2679,6.2679,6.2679,6.2679,6.2679,6.2804,6.33,6.3756,6.419,6.4667,6.5101,6.5412,6.5412,6.5412,6.5412,6.5412,6.2629,6.0079,5.9787,5.7628,5.5781,5.6149,5.6337,5.6389,5.6389,5.6389,5.6389,5.6389,5.6389,5.6389,5.6389,5.6098,5.5738,5.5361,5.4968,5.4591,5.4231,5.4471,5.4779,5.5173,5.555,5.5892,5.6286,5.6337,5.6337,5.6286,5.6337,5.6183,5.5807,5.6183,5.6183,0.0,0.0,0.0,0.0,0.0,0.0,0.0,0.0,0.0,0.0,0.0,0.0,0.0,0.0,0.0,0.0,0.0,0.0,0.0,0.0,0.0,0.0,0.0,0.0,0.0,0.0,0.0,0.0,0.0,6.1458,6.1003,6.0299,5.9906,5.9906,5.9264,5.9015,5.9202,5.8808,5.8705,5.8912,5.9119,5.9119,5.8933,5.9802,6.0485,6.0982,6.123,6.1603,6.2017,6.1748,6.2058,6.2679,6.241,6.2472,6.2679,6.2679,6.2679,6.2679,6.2679,6.2679,6.2679,6.2679,6.2679,6.2679,6.2679,6.2679,6.2804,6.3569,6.388,6.4232,6.4915,6.5288,6.5412,6.5412,6.5412,6.5412,6.5412,6.3665,6.1553,5.9888,5.7423,5.5755,5.6286,5.6389,5.6389,5.6389,5.6389,5.6389,5.6389,5.6389,5.6389,5.6389,5.6046,5.5738,5.5567,5.5224,5.4933,5.4779,5.4916,5.5173,5.555,5.5944,5.62,5.6389,5.6389,5.6389,5.6389,5.6389,5.6286,5.6132,5.6286,5.6286,0.0,0.0,0.0,0.0,0.0,0.0,0.0,0.0,0.0,0.0,0.0,0.0,0.0,0.0,0.0,0.0,0.0,0.0,0.0,0.0,0.0,0.0,0.0,0.0,0.0,0.0,0.0,0.0,0.0,6.092,6.0361,5.9574,5.9078,5.8953,5.8498,5.8312,5.8436,5.8436,5.8374,5.825,5.8374,5.8436,5.8457,5.8912,5.9574,6.0361,6.0796,6.1272,6.1665,6.1313,6.1706,6.2493,6.2162,6.2307,6.2679,6.2679,6.2679,6.2679,6.2679,6.2679,6.2679,6.2679,6.2679,6.2679,6.2679,6.2679,6.2866,6.3818,6.4066,6.4253,6.5163,6.5412,6.5412,6.5412,6.5412,6.5204,6.4368,6.3398,6.1899,5.8873,5.6838,5.5755,5.6046,5.6183,5.6235,5.6235,5.6235,5.6286,5.6389,5.6389,5.6389,5.6389,5.5944,5.5704,5.5789,5.5361,5.5173,5.5259,5.5361,5.5567,5.5944,5.6235,5.644,5.6526,5.644,5.6389,5.6389,5.6389,5.6389,5.6389,5.6389,5.6389,0.0,0.0,0.0,0.0,0.0,0.0,0.0,0.0,0.0,0.0,0.0,0.0,0.0,0.0,0.0,0.0,0.0,0.0,0.0,0.0,0.0,0.0,0.0,0.0,0.0,0.0,0.0,0.0,0.0,6.032,5.9409,5.8912,5.8436,5.8001,5.7546,5.7504,5.7939,5.796,5.7732,5.7297,5.7732,5.796,5.796,5.8436,5.8912,5.9409,5.9864,6.032,6.0754,6.0734,6.1251,6.2058,6.2038,6.2307,6.2679,6.2679,6.2679,6.2679,6.2679,6.2679,6.2679,6.2679,6.2679,6.2679,6.2679,6.2679,6.2866,6.3818,6.4066,6.4253,6.5163,6.5412,6.5412,6.5412,6.5412,6.4577,6.1226,6.0326,5.9123,5.6123,5.5293,5.531,5.531,5.5601,5.5841,5.5841,5.5841,5.5944,5.6337,5.6389,5.6389,5.6389,5.5755,5.5413,5.5755,5.5122,5.4882,5.5259,5.5601,5.5944,5.6337,5.6389,5.6577,5.6902,5.6577,5.6389,5.6389,5.6389,5.6389,5.6389,5.6389,5.6389,0.0,0.0,0.0,0.0,0.0,0.0,0.0,0.0,0.0,0.0,0.0,0.0,0.0,0.0,0.0,0.0,0.0,0.0,0.0,0.0,0.0,0.0,0.0,0.0,0.0,0.0,0.0,0.0,0.0,0.0,5.9326,5.8581,5.8084,5.7918,5.7463,5.7318,5.7463,5.7463,5.7401,5.7235,5.7401,5.7463,5.7484,5.796,5.8415,5.8891,5.9347,5.9988,6.0651,6.0361,6.0941,6.1996,6.1706,6.2038,6.2679,6.2679,6.2679,6.2679,6.2679,6.2679,6.2679,6.2679,6.2679,6.2679,6.2679,6.2866,6.3259,6.388,6.4253,6.4625,6.5246,6.5412,6.5495,6.5784,6.5619,6.4889,6.3031,6.1392,5.9959,5.761,5.621,5.5361,5.555,5.5704,5.5892,5.6132,5.6183,5.6235,5.6389,5.6389,5.6389,5.6389,5.5909,5.5755,5.6132,5.5704,5.5652,5.632,5.6474,5.6714,5.7074,5.7348,5.7416,5.7296,5.7159,5.6868,5.6389,5.6389,5.6389,5.6389,5.6389,5.6389,5.5137,0.0,0.0,0.0,0.0,0.0,0.0,0.0,0.0,0.0,0.0,0.0,0.0,0.0,0.0,0.0,0.0,0.0,0.0,0.0,0.0,0.0,0.0,0.0,0.0,0.0,0.0,0.0,0.0,0.0,5.8643,5.8022,5.7546,5.7235,5.709,5.7008,5.7008,5.7152,5.7235,5.7235,5.7235,5.7235,5.7256,5.7711,5.8167,5.8643,5.9098,5.974,6.0423,6.0113,6.0713,6.1769,6.1458,6.1893,6.2679,6.2679,6.2679,6.2679,6.2679,6.2679,6.2679,6.2679,6.2679,6.2679,6.2679,6.2886,6.3259,6.388,6.4294,6.4667,6.5246,6.5412,6.5495,6.5805,6.566,6.5119,6.4532,6.248,6.0161,5.8159,5.6369,5.531,5.5413,5.5652,5.5892,5.6149,5.6183,5.6235,5.6389,5.6492,5.6526,5.6389,5.6149,5.6098,5.6389,5.6149,5.6286,5.6902,5.7057,5.7296,5.769,5.7844,5.7844,5.7707,5.745,5.7057,5.6577,5.644,5.6389,5.6389,5.6389,5.644,0.0,0.0,0.0,0.0,0.0,0.0,0.0,0.0,0.0,0.0,0.0,0.0,0.0,0.0,0.0,0.0,0.0,0.0,0.0,0.0,0.0,0.0,0.0,0.0,0.0,0.0,0.0,0.0,0.0,5.8187,5.7277,5.7194,5.678,5.591,5.6304,5.6552,5.6573,5.6987,5.7215,5.7235,5.7235,5.7235,5.7256,5.7711,5.8167,5.8622,5.9098,5.9554,5.9968,5.9988,6.0527,6.1334,6.1334,6.1893,6.2679,6.2679,6.2679,6.2679,6.2679,6.2679,6.2679,6.2679,6.2679,6.2679,6.2679,6.2679,6.2866,6.3818,6.4066,6.4315,6.5184,6.5412,6.5412,6.5432,6.5412,6.5412,6.5432,6.259,5.9409,5.7947,5.642,5.5122,5.4779,5.531,5.5789,5.5807,5.5807,5.5944,5.6337,5.6714,5.6817,5.644,5.6389,5.6389,5.6389,5.6389,5.6577,5.6954,5.7313,5.7707,5.8084,5.7742,5.7707,5.8084,5.7348,5.6954,5.6954,5.6577,5.6389,5.6389,5.6389,5.6611,5.8789,0.0,0.0,0.0,0.0,0.0,0.0,0.0,0.0,0.0,0.0,0.0,0.0,0.0,0.0,0.0,0.0,0.0,0.0,0.0,0.0,0.0,0.0,0.0,0.0,0.0,0.0,0.0,5.8374,5.7856,5.7256,5.6614,5.6138,5.589,5.5993,5.6221,5.6552,5.6676,5.6904,5.7235,5.7235,5.7235,5.7256,5.7711,5.798,5.8146,5.8953,5.9367,5.9512,5.9843,6.034,6.0899,6.121,6.1706,6.2245,6.2555,6.2679,6.2679,6.2679,6.2679,6.2679,6.2679,6.2679,6.2679,6.2679,6.2928,6.33,6.388,6.4294,6.4667,6.5288,6.5412,6.5495,6.5846,6.566,6.5495,6.5846,6.3756,6.1232,5.9428,5.6475,5.4574,5.5019,5.5276,5.5601,5.6132,5.6235,5.6235,5.6389,5.6714,5.6817,5.644,5.6629,5.6817,5.6817,5.6817,5.7057,5.7742,5.7896,5.8084,5.8478,5.8375,5.8238,5.8084,5.7605,5.7211,5.6954,5.6851,5.6663,5.6389,5.6663,5.6851,6.0537,5.9589,5.8475,0.0,0.0,0.0,5.6488,5.6729,0.0,0.0,0.0,0.0,0.0,0.0,0.0,0.0,0.0,0.0,0.0,0.0,0.0,0.0,0.0,0.0,0.0,0.0,0.0,5.8312,5.7711,5.707,5.6407,5.5703,5.531,5.531,5.5496,5.5807,5.6262,5.6469,5.678,5.7235,5.7235,5.7235,5.7256,5.7898,5.8105,5.798,5.9098,5.9471,5.9347,5.9802,6.0382,6.0982,6.1251,6.1748,6.2327,6.2617,6.2679,6.2679,6.2679,6.2679,6.2679,6.2679,6.2679,6.2679,6.2679,6.2866,6.3238,6.388,6.4542,6.5101,6.535,6.5412,6.5474,6.5743,6.5598,6.5474,6.5743,6.4178,6.2125,6.0238,5.7547,5.5531,5.5402,5.5413,5.5704,5.6286,5.6389,5.6389,5.6389,5.6868,5.6971,5.644,5.6868,5.7057,5.6766,5.7005,5.7348,5.7793,5.8135,5.8427,5.8615,5.8615,5.8529,5.8324,5.7947,5.7553,5.7194,5.6868,5.668,5.6629,5.6851,5.7108,6.1926,6.1291,6.0527,6.1253,5.9236,0.0,5.8211,5.6843,5.5523,0.0,0.0,0.0,0.0,0.0,0.0,0.0,0.0,0.0,0.0,0.0,0.0,0.0,0.0,0.0,0.0,5.7608,5.7277,5.7732,5.6925,5.6055,5.5227,5.4772,5.4544,5.4544,5.4917,5.5331,5.5786,5.6262,5.6718,5.7152,5.7194,5.7235,5.7256,5.8125,5.8291,5.7918,5.9264,5.9595,5.9264,5.9719,6.0423,6.1189,6.1251,6.1748,6.2472,6.2555,6.2617,6.2617,6.2679,6.2679,6.2679,6.2679,6.2679,6.2679,6.2679,6.2679,6.2866,6.3818,6.4687,6.535,6.5412,6.5412,6.5412,6.5412,6.5412,6.5412,6.5412,6.3995,6.2377,6.0238,5.8446,5.6938,5.5402,5.555,5.5892,5.6286,5.6337,5.6389,5.6389,5.7022,5.7211,5.6526,5.7074,5.7211,5.6577,5.7108,5.7502,5.7553,5.8238,5.8615,5.8615,5.8615,5.8615,5.8564,5.8187,5.7844,5.7502,5.6817,5.668,5.7005,5.7057,5.7399,0.0,0.0,0.0,0.0,0.0,0.0,5.7996,5.6925,5.6202,0.0,0.0,0.0,0.0,0.0,0.0,0.0,0.0,0.0,0.0,0.0,0.0,0.0,0.0,0.0,0.0,5.6676,5.6324,5.6801,5.5973,5.5372,5.5186,5.4772,5.4544,5.4544,5.4627,5.4875,5.531,5.5786,5.6242,5.6697,5.7049,5.7235,5.7256,5.7794,5.7794,5.7422,5.8436,5.8829,5.8788,5.9243,5.9761,6.0299,6.0671,6.092,6.1168,6.1893,6.2162,6.2203,6.2555,6.2679,6.2679,6.2679,6.2679,6.2679,6.2679,6.2679,6.2866,6.3818,6.4439,6.4977,6.5308,6.5412,6.5412,6.5412,6.5412,6.5412,6.5412,6.5204,6.3785,6.0453,5.8446,5.6885,5.5251,5.5361,5.5841,5.5892,5.6183,5.6389,5.6389,5.7022,5.7348,5.6902,5.7245,5.745,5.7313,5.7416,5.7656,5.7947,5.8375,5.8615,5.8615,5.8615,5.8478,5.8187,5.7793,5.7605,5.7502,5.7365,5.7313,5.7399,5.7707,5.7793,0.0,0.0,0.0,6.4492,0.0,0.0,0.0,5.7911,5.6869,0.0,0.0,0.0,0.0,0.0,0.0,0.0,0.0,0.0,0.0,0.0,0.0,0.0,0.0,0.0,0.0,5.6138,5.5869,5.5869,5.5455,5.5082,5.4875,5.4648,5.442,5.4192,5.442,5.4648,5.4855,5.531,5.5869,5.6573,5.678,5.7008,5.7256,5.7711,5.767,5.7277,5.8208,5.8601,5.8643,5.9119,5.9574,6.003,6.0506,6.0961,6.1417,6.1872,6.2162,6.239,6.2617,6.2679,6.2679,6.2679,6.2679,6.2679,6.2679,6.2866,6.3176,6.388,6.4377,6.4853,6.5288,6.5412,6.5412,6.5412,6.5412,6.5412,6.5412,6.5412,6.4557,6.2167,6.0193,5.8329,5.5441,5.5276,5.5652,5.6046,5.6098,5.6149,5.6337,5.7022,5.7348,5.7005,5.745,5.7707,5.7502,5.769,5.7896,5.8084,5.8427,5.8615,5.8615,5.8615,5.8478,5.8101,5.8084,5.7896,5.7502,5.7896,5.7981,5.7793,5.7998,5.8084,0.0,0.0,0.0,0.0,0.0,6.4163,0.0,0.0,0.0,5.7925,0.0,0.0,0.0,0.0,0.0,0.0,0.0,0.0,0.0,0.0,0.0,0.0,0.0,0.0,0.0,5.5732,5.5372,5.5082,5.4979,5.4772,5.442,5.4482,5.4296,5.3737,5.4172,5.4399,5.4399,5.4834,5.5476,5.6304,5.6387,5.6656,5.7111,5.7484,5.7504,5.7277,5.8022,5.8394,5.8519,5.8974,5.9429,5.9906,6.0361,6.1003,6.1665,6.1831,6.212,6.2452,6.2617,6.2679,6.2679,6.2679,6.2679,6.2679,6.2679,6.2928,6.3321,6.3818,6.4253,6.4729,6.5163,6.535,6.5412,6.5412,6.5412,6.5412,6.5412,6.5412,6.5057,6.3632,6.24,6.0296,5.6456,5.5626,5.5652,5.6183,5.6046,5.6046,5.644,5.7074,5.7399,5.7194,5.7742,5.7947,5.7656,5.7896,5.8084,5.8084,5.8427,5.8615,5.8615,5.8615,5.8478,5.8187,5.8478,5.8324,5.7707,5.8324,5.8427,5.8084,5.8135,5.8324,0.0,0.0,0.0,0.0,6.795,0.0,0.0,0.0,6.1767,6.0148,0.0,0.0,0.0,0.0,0.0,0.0,0.0,0.0,0.0,0.0,0.0,0.0,0.0,0.0,0.0,0.0,5.4234,5.4586,5.4234,5.3985,5.3923,5.4317,5.4151,5.3282,5.3696,5.3923,5.3923,5.4379,5.4855,5.5352,5.5745,5.62,5.6635,5.6697,5.6904,5.7235,5.7339,5.7608,5.8043,5.8498,5.8953,5.9429,5.9885,6.0133,6.032,6.1127,6.1458,6.1603,6.241,6.2679,6.2679,6.2679,6.2679,6.2679,6.2679,6.2741,6.2866,6.3321,6.3797,6.4253,6.4667,6.5101,6.5412,6.5412,6.5412,6.5412,6.5412,6.5412,6.5057,6.3632,6.3365,6.2234,5.8638,5.7034,5.6183,5.5892,5.6132,5.6474,5.6851,5.7262,5.7605,5.7947,5.805,5.8084,5.8033,5.805,5.8084,5.8084,5.8427,5.8615,5.8615,5.8615,5.8615,5.8564,5.8615,5.8581,5.8478,5.8581,5.8427,5.8101,5.8427,5.8427,0.0,0.0,0.0,0.0,0.0,0.0,6.5737,0.0,6.2522,0.0,0.0,0.0,0.0,0.0,0.0,0.0,5.6086,0.0,0.0,0.0,0.0,0.0,0.0,0.0,0.0,0.0,0.0,0.0,5.3261,5.3344,5.3075,5.3489,5.3447,5.2806,5.322,5.3344,5.3075,5.3778,5.4358,5.4813,5.5269,5.5848,5.6573,5.6573,5.6801,5.7235,5.7235,5.7484,5.7939,5.8125,5.8643,5.9326,5.9512,5.9926,6.0464,6.1106,6.152,6.1831,6.2472,6.2679,6.2679,6.2679,6.2679,6.2679,6.2679,6.2679,6.2804,6.3238,6.3507,6.3818,6.4542,6.4853,6.5101,6.535,6.5412,6.5412,6.5412,6.5619,6.572,6.5475,6.4707,6.3398,6.097,5.8909,5.7528,5.6383,5.6098,5.6183,5.6577,5.6954,5.7348,5.7707,5.7947,5.8187,5.8375,5.8375,5.8375,5.8375,5.8341,5.8324,5.8324,5.8324,5.8324,5.8324,5.8529,5.8529,5.8324,5.8529,5.8529,5.8375,5.8564,5.8529,6.8664,0.0,0.0,0.0,0.0,0.0,0.0,0.0,0.0,0.0,0.0,0.0,0.0,0.0,5.9108,5.8144,0.0,5.599,0.0,0.0,0.0,0.0,0.0,0.0,0.0,0.0,0.0,0.0,0.0,5.3195,5.2516,5.293,5.2909,5.2329,5.2743,5.2826,5.2495,5.3282,5.3903,5.4358,5.4793,5.5414,5.618,5.618,5.6511,5.7049,5.7049,5.7297,5.7732,5.7877,5.8394,5.9119,5.9243,5.9781,6.0547,6.1003,6.1458,6.1913,6.2348,6.2555,6.2679,6.2679,6.2679,6.2679,6.2679,6.2679,6.2741,6.3073,6.3259,6.3507,6.417,6.4542,6.4791,6.5163,6.535,6.5412,6.5412,6.5784,6.624,6.6737,6.5481,6.3971,6.2436,6.0324,5.8274,5.6606,5.6132,5.6098,5.6474,5.6766,5.7142,5.7605,5.7947,5.8238,5.8581,5.8615,5.8615,5.8615,5.8375,5.8238,5.8238,5.8238,5.8238,5.8238,5.8478,5.8478,5.8238,5.8478,5.8615,5.8615,5.8615,5.8615,0.0,0.0,0.0,6.9265,0.0,0.0,0.0,0.0,6.673,0.0,0.0,0.0,6.6207,6.4235,6.2381,6.2115,5.9664,0.0,0.0,0.0,0.0,0.0,0.0,0.0,0.0,0.0,0.0,0.0,0.0,0.0,5.2495,5.293,5.2764,5.1853,5.2267,5.2516,5.2495,5.2971,5.3427,5.3882,5.4337,5.4793,5.5227,5.5227,5.5724,5.6594,5.6594,5.6842,5.7277,5.7732,5.8208,5.8684,5.9119,5.9595,6.0071,6.0527,6.0982,6.1437,6.1893,6.2327,6.2679,6.2679,6.2679,6.2679,6.2679,6.2679,6.2679,6.2679,6.3011,6.3383,6.3425,6.4046,6.4729,6.4729,6.5101,6.5412,6.5412,6.5784,6.624,6.6737,6.5481,6.3971,6.2436,6.0526,5.8577,5.6606,5.6389,5.6526,5.6902,5.6954,5.7245,5.7998,5.8084,5.8238,5.8581,5.8615,5.8615,5.8615,5.8615,5.8615,5.8615,5.8615,5.8615,5.8615,5.8615,5.8615,5.8615,5.8615,5.8615,5.8615,5.8615,5.8615,0.0,0.0,7.1592,6.984,0.0,0.0,0.0,0.0,0.0,0.0,0.0,0.0,6.592,6.4363,6.2957,6.2658,6.0227,5.8617,0.0,0.0,0.0,0.0,0.0,0.0,0.0,0.0,0.0,0.0,0.0,0.0,0.0,5.1688,5.1978,5.1357,5.1791,5.204,5.204,5.2806,5.3261,5.3427,5.4172,5.4772,5.5186,5.5186,5.5517,5.6117,5.6428,5.6656,5.6821,5.7277,5.7918,5.8622,5.8788,5.9305,6.005,6.0506,6.0961,6.1458,6.2203,6.2555,6.2679,6.2679,6.2679,6.2679,6.2679,6.2679,6.2679,6.2679,6.2804,6.3052,6.3673,6.4066,6.4439,6.5039,6.5288,6.5412,6.5412,6.5784,6.6157,6.6302,6.6496,6.5587,6.2299,6.1589,6.0068,5.6858,5.6389,5.644,5.6577,5.6577,5.6868,5.7605,5.7707,5.7947,5.8564,5.8615,5.8529,5.829,5.829,5.829,5.829,5.829,5.8375,5.8615,5.8615,5.8615,5.8615,5.8615,5.8615,5.8615,5.8615,5.8615,7.167,7.1984,0.0,7.0677,7.0442,0.0,6.8638,0.0,6.8716,0.0,0.0,0.0,6.6861,6.5615,6.4393,6.3712,6.167,6.0098,0.0,5.8844,0.0,0.0,0.0,0.0,0.0,0.0,0.0,0.0,0.0,0.0,0.0,0.0,5.1584,5.1129,5.1564,5.1874,5.204,5.2806,5.3261,5.3427,5.4172,5.4689,5.4958,5.4958,5.5207,5.5662,5.6117,5.6324,5.6366,5.6987,5.7587,5.8146,5.8477,5.9078,5.9802,6.0257,6.0816,6.1479,6.2369,6.2679,6.2679,6.2679,6.2679,6.2679,6.2679,6.2679,6.2804,6.33,6.3176,6.3176,6.4253,6.4418,6.4439,6.5039,6.5288,6.5412,6.5412,6.5784,6.6157,6.6302,6.6496,6.5567,6.2299,6.1589,6.005,5.6858,5.6389,5.6389,5.6389,5.6389,5.6629,5.7245,5.7399,5.7793,5.8564,5.8615,5.8529,5.829,5.829,5.829,5.829,5.829,5.8632,5.9403,5.8906,5.8872,5.9403,5.8872,5.8615,5.8615,5.8615,5.8615]},{"header":{"parameterUnit":"m.s-1","parameterCategory":1,"la1":30.6,"la2":29.2853,"lo1":-89.7004,"lo2":-87.6739,"dy":0.0162,"dx":0.0183,"nx":112,"ny":82,"refTime":"2024-02-10T06:00:00:Z","depth":0,"parameterNumber":3,"parameterNumberName":"V-component_of_WINDS"},"data":[0.0,0.0,0.0,0.0,0.0,0.0,0.0,0.0,0.0,0.0,0.0,0.0,0.0,0.0,0.0,0.0,0.0,0.0,0.0,0.0,0.0,0.0,0.0,0.0,0.0,0.0,0.0,0.0,0.0,0.0,0.0,0.0,0.0,0.0,0.0,0.0,0.0,0.0,0.0,0.0,0.0,0.0,0.0,0.0,0.0,0.0,0.0,0.0,0.0,0.0,0.0,0.0,0.0,0.0,0.0,0.0,0.0,0.0,0.0,0.0,0.0,0.0,0.0,0.0,0.0,0.0,0.0,0.0,0.0,0.0,0.0,0.0,0.0,0.0,0.0,0.0,0.0,0.0,0.0,0.0,0.0,0.0,0.0,0.0,0.0,0.0,0.0,0.0,0.0,0.0,-6.5408,-7.0113,-7.7486,-8.2822,-8.458,-8.2404,-7.8089,-7.144,0.0,0.0,0.0,0.0,0.0,0.0,0.0,0.0,0.0,0.0,0.0,0.0,0.0,0.0,0.0,0.0,0.0,0.0,0.0,0.0,0.0,0.0,0.0,0.0,0.0,0.0,0.0,0.0,0.0,0.0,0.0,0.0,0.0,0.0,0.0,0.0,0.0,0.0,0.0,0.0,0.0,0.0,0.0,0.0,0.0,0.0,0.0,0.0,0.0,0.0,0.0,0.0,0.0,0.0,0.0,0.0,0.0,0.0,0.0,0.0,0.0,0.0,0.0,0.0,0.0,0.0,0.0,0.0,0.0,0.0,0.0,0.0,0.0,0.0,0.0,0.0,0.0,0.0,0.0,0.0,0.0,0.0,0.0,0.0,0.0,0.0,0.0,0.0,0.0,0.0,0.0,0.0,0.0,0.0,0.0,0.0,0.0,0.0,0.0,0.0,0.0,0.0,0.0,0.0,-6.6813,-7.5309,-7.9733,-8.2436,-8.3402,-8.0134,-7.5881,-7.089,0.0,0.0,0.0,0.0,0.0,0.0,0.0,0.0,0.0,0.0,0.0,0.0,0.0,0.0,0.0,0.0,0.0,0.0,0.0,0.0,0.0,0.0,0.0,0.0,0.0,0.0,0.0,0.0,0.0,0.0,0.0,0.0,0.0,0.0,0.0,0.0,0.0,0.0,0.0,0.0,0.0,0.0,0.0,0.0,0.0,0.0,0.0,0.0,0.0,0.0,0.0,0.0,0.0,0.0,0.0,0.0,0.0,0.0,0.0,0.0,0.0,0.0,0.0,0.0,0.0,0.0,0.0,0.0,0.0,0.0,0.0,0.0,0.0,0.0,0.0,0.0,0.0,0.0,0.0,0.0,0.0,0.0,0.0,0.0,0.0,0.0,0.0,0.0,0.0,0.0,0.0,0.0,0.0,0.0,0.0,0.0,0.0,0.0,0.0,0.0,0.0,0.0,0.0,-6.611,-7.0745,-7.7942,-8.1102,-8.2998,-8.3805,-7.9908,-7.5625,-7.1447,-6.9067,0.0,0.0,0.0,0.0,0.0,0.0,0.0,0.0,0.0,0.0,0.0,0.0,0.0,0.0,0.0,0.0,0.0,0.0,0.0,0.0,0.0,0.0,0.0,0.0,0.0,0.0,0.0,0.0,0.0,0.0,0.0,0.0,0.0,0.0,0.0,0.0,0.0,0.0,0.0,0.0,0.0,0.0,0.0,0.0,0.0,0.0,0.0,0.0,0.0,0.0,0.0,0.0,0.0,0.0,0.0,0.0,0.0,0.0,0.0,0.0,0.0,0.0,0.0,0.0,0.0,0.0,0.0,0.0,0.0,0.0,0.0,0.0,0.0,0.0,0.0,0.0,0.0,0.0,0.0,0.0,0.0,0.0,0.0,0.0,0.0,0.0,0.0,0.0,0.0,0.0,0.0,0.0,0.0,0.0,0.0,0.0,0.0,0.0,0.0,0.0,0.0,0.0,-6.9972,-7.3413,-7.8679,-8.1137,-8.2577,-8.2998,-7.9241,-7.5239,-7.1412,-6.7831,0.0,0.0,0.0,0.0,0.0,0.0,0.0,0.0,0.0,0.0,0.0,0.0,0.0,0.0,0.0,0.0,0.0,0.0,0.0,0.0,0.0,0.0,0.0,0.0,0.0,0.0,0.0,0.0,0.0,0.0,0.0,0.0,0.0,0.0,0.0,0.0,0.0,0.0,0.0,0.0,0.0,0.0,0.0,0.0,0.0,0.0,0.0,0.0,0.0,0.0,0.0,0.0,0.0,0.0,0.0,0.0,0.0,0.0,0.0,0.0,0.0,0.0,0.0,0.0,0.0,0.0,0.0,0.0,0.0,0.0,0.0,0.0,0.0,0.0,0.0,0.0,0.0,0.0,0.0,0.0,0.0,0.0,0.0,0.0,0.0,0.0,0.0,0.0,0.0,0.0,0.0,0.0,0.0,0.0,0.0,0.0,0.0,0.0,0.0,0.0,0.0,0.0,-6.913,-7.2395,-7.71,-7.9066,-7.9768,-7.9066,-7.6713,-7.3624,-6.9797,-6.7234,0.0,0.0,0.0,0.0,0.0,0.0,0.0,0.0,0.0,0.0,0.0,0.0,0.0,0.0,0.0,0.0,0.0,0.0,0.0,0.0,0.0,0.0,0.0,0.0,0.0,0.0,0.0,0.0,0.0,0.0,0.0,0.0,0.0,0.0,0.0,0.0,0.0,0.0,0.0,0.0,0.0,0.0,0.0,0.0,0.0,0.0,0.0,0.0,0.0,0.0,0.0,0.0,0.0,0.0,0.0,0.0,0.0,0.0,0.0,0.0,0.0,0.0,0.0,0.0,0.0,0.0,0.0,0.0,0.0,0.0,0.0,0.0,0.0,0.0,0.0,0.0,0.0,0.0,0.0,0.0,0.0,0.0,0.0,0.0,0.0,0.0,0.0,0.0,0.0,0.0,0.0,0.0,0.0,0.0,0.0,0.0,0.0,0.0,0.0,0.0,0.0,0.0,-6.9481,-7.2851,0.0,-7.9276,-7.9978,-7.8715,-7.6889,-7.3975,-6.9656,0.0,0.0,0.0,0.0,0.0,0.0,0.0,0.0,0.0,0.0,0.0,0.0,0.0,0.0,0.0,0.0,0.0,0.0,0.0,0.0,0.0,0.0,0.0,0.0,0.0,0.0,0.0,0.0,0.0,0.0,0.0,0.0,0.0,0.0,0.0,0.0,0.0,0.0,0.0,0.0,0.0,0.0,0.0,0.0,0.0,0.0,0.0,0.0,0.0,0.0,0.0,0.0,0.0,0.0,0.0,0.0,0.0,0.0,0.0,0.0,0.0,0.0,0.0,0.0,0.0,0.0,0.0,0.0,0.0,0.0,0.0,0.0,0.0,0.0,0.0,0.0,0.0,0.0,0.0,0.0,0.0,0.0,0.0,0.0,0.0,0.0,0.0,0.0,0.0,0.0,0.0,0.0,0.0,0.0,0.0,0.0,0.0,0.0,0.0,0.0,0.0,0.0,-6.6532,-6.9762,-7.3097,0.0,-7.8715,-7.9276,-7.7977,-7.6011,-7.3273,-6.9621,0.0,0.0,0.0,0.0,0.0,0.0,0.0,0.0,0.0,0.0,0.0,0.0,0.0,0.0,0.0,0.0,0.0,0.0,0.0,0.0,0.0,0.0,0.0,0.0,0.0,0.0,0.0,0.0,0.0,0.0,0.0,0.0,0.0,0.0,0.0,0.0,0.0,0.0,0.0,0.0,0.0,0.0,0.0,0.0,0.0,0.0,0.0,0.0,0.0,0.0,0.0,0.0,0.0,0.0,0.0,0.0,0.0,0.0,0.0,0.0,0.0,0.0,0.0,0.0,0.0,0.0,0.0,0.0,0.0,0.0,0.0,0.0,0.0,0.0,0.0,0.0,0.0,0.0,0.0,0.0,0.0,0.0,0.0,0.0,0.0,0.0,0.0,0.0,0.0,0.0,0.0,0.0,0.0,0.0,0.0,0.0,0.0,0.0,0.0,0.0,0.0,0.0,-6.6602,-6.9762,-7.2886,-7.5976,-7.6959,-7.71,-7.6362,-7.3483,-7.1061,0.0,0.0,0.0,0.0,0.0,0.0,0.0,0.0,0.0,0.0,0.0,0.0,0.0,0.0,0.0,0.0,0.0,0.0,0.0,0.0,0.0,0.0,0.0,0.0,0.0,0.0,0.0,0.0,0.0,0.0,0.0,0.0,0.0,0.0,0.0,0.0,0.0,0.0,0.0,0.0,0.0,0.0,0.0,0.0,0.0,0.0,0.0,0.0,0.0,0.0,0.0,0.0,0.0,0.0,0.0,0.0,0.0,0.0,0.0,0.0,0.0,0.0,0.0,0.0,0.0,0.0,0.0,0.0,0.0,0.0,0.0,0.0,0.0,0.0,0.0,0.0,0.0,0.0,0.0,0.0,0.0,0.0,0.0,0.0,0.0,0.0,0.0,0.0,0.0,0.0,0.0,0.0,0.0,0.0,0.0,0.0,0.0,0.0,0.0,0.0,0.0,0.0,0.0,-6.6602,-6.9762,-7.2886,-7.5976,-7.6959,-7.71,-7.6362,-7.394,-7.1587,-6.9516,0.0,0.0,0.0,0.0,0.0,0.0,0.0,0.0,0.0,0.0,0.0,0.0,0.0,0.0,0.0,0.0,0.0,0.0,0.0,0.0,0.0,0.0,0.0,0.0,0.0,0.0,0.0,0.0,0.0,0.0,0.0,0.0,0.0,0.0,0.0,0.0,0.0,0.0,0.0,0.0,0.0,0.0,0.0,0.0,0.0,0.0,0.0,0.0,0.0,0.0,0.0,0.0,0.0,0.0,0.0,0.0,0.0,0.0,0.0,0.0,0.0,0.0,0.0,0.0,0.0,0.0,0.0,0.0,0.0,0.0,0.0,0.0,0.0,0.0,0.0,0.0,0.0,0.0,0.0,0.0,0.0,0.0,0.0,0.0,0.0,0.0,0.0,0.0,0.0,0.0,0.0,0.0,0.0,0.0,0.0,0.0,0.0,0.0,0.0,0.0,0.0,0.0,-6.7093,-6.9972,-7.2886,-7.5976,-7.6959,-7.71,-7.6362,-7.415,-7.2079,-7.0429,0.0,0.0,0.0,0.0,0.0,0.0,0.0,0.0,0.0,0.0,0.0,0.0,0.0,0.0,0.0,0.0,0.0,0.0,0.0,0.0,0.0,0.0,0.0,0.0,0.0,0.0,0.0,0.0,0.0,0.0,0.0,0.0,0.0,0.0,0.0,0.0,0.0,0.0,0.0,0.0,0.0,0.0,0.0,0.0,0.0,0.0,0.0,0.0,0.0,0.0,0.0,0.0,0.0,0.0,0.0,0.0,0.0,0.0,0.0,0.0,0.0,0.0,0.0,0.0,0.0,0.0,0.0,0.0,0.0,0.0,0.0,0.0,0.0,0.0,0.0,0.0,0.0,0.0,0.0,0.0,0.0,0.0,0.0,0.0,0.0,0.0,0.0,0.0,0.0,0.0,0.0,0.0,0.0,0.0,0.0,0.0,0.0,0.0,0.0,0.0,0.0,0.0,-6.7831,-7.0323,-7.2957,-7.5976,-7.6959,-7.7135,-7.6468,-7.4256,-7.257,-7.1763,0.0,0.0,0.0,0.0,0.0,0.0,0.0,0.0,0.0,0.0,0.0,0.0,0.0,0.0,0.0,0.0,0.0,0.0,0.0,0.0,0.0,0.0,0.0,0.0,0.0,0.0,0.0,0.0,0.0,0.0,0.0,0.0,0.0,0.0,0.0,0.0,0.0,0.0,0.0,0.0,0.0,0.0,0.0,0.0,0.0,0.0,0.0,0.0,0.0,0.0,0.0,0.0,0.0,0.0,0.0,0.0,0.0,0.0,0.0,0.0,-6.4233,0.0,0.0,0.0,0.0,0.0,0.0,0.0,0.0,0.0,0.0,0.0,0.0,0.0,0.0,0.0,0.0,0.0,0.0,0.0,0.0,0.0,0.0,0.0,0.0,0.0,0.0,0.0,0.0,0.0,0.0,0.0,0.0,0.0,0.0,0.0,0.0,0.0,0.0,0.0,0.0,0.0,-6.7901,-7.078,-7.3518,-7.6011,-7.6959,-7.7345,-7.7205,-7.5063,-7.3167,-7.1798,-7.0639,0.0,0.0,0.0,0.0,0.0,0.0,0.0,0.0,0.0,0.0,0.0,0.0,0.0,0.0,0.0,0.0,0.0,0.0,0.0,0.0,0.0,0.0,0.0,0.0,0.0,0.0,0.0,0.0,0.0,0.0,0.0,0.0,0.0,0.0,0.0,0.0,0.0,0.0,0.0,0.0,0.0,0.0,0.0,0.0,0.0,0.0,0.0,0.0,0.0,0.0,0.0,0.0,0.0,0.0,0.0,0.0,0.0,0.0,0.0,0.0,-6.5955,0.0,0.0,0.0,0.0,0.0,0.0,0.0,0.0,0.0,0.0,0.0,0.0,0.0,0.0,0.0,0.0,0.0,0.0,0.0,0.0,0.0,0.0,0.0,0.0,0.0,0.0,0.0,0.0,0.0,0.0,0.0,0.0,0.0,0.0,0.0,0.0,0.0,0.0,0.0,0.0,-6.9481,-7.1587,-7.3834,-7.6538,-7.7521,-7.7977,-7.7977,-7.6222,-7.4747,-7.3975,-7.1763,0.0,0.0,0.0,0.0,0.0,0.0,0.0,0.0,0.0,0.0,0.0,0.0,0.0,0.0,0.0,0.0,0.0,0.0,0.0,0.0,0.0,0.0,0.0,0.0,0.0,0.0,0.0,0.0,0.0,0.0,0.0,0.0,0.0,0.0,0.0,0.0,0.0,0.0,0.0,0.0,0.0,0.0,0.0,0.0,0.0,0.0,0.0,0.0,0.0,0.0,0.0,0.0,0.0,-7.278,-7.384,-7.5132,-7.5132,-7.5761,-7.6622,-7.1819,-6.9003,-6.7844,0.0,0.0,0.0,0.0,0.0,0.0,0.0,0.0,0.0,0.0,0.0,0.0,0.0,0.0,0.0,0.0,0.0,0.0,0.0,0.0,0.0,0.0,0.0,0.0,0.0,-7.029,-7.029,0.0,0.0,0.0,0.0,0.0,0.0,0.0,0.0,0.0,0.0,0.0,0.0,-7.1061,-7.25,-7.4221,-7.6924,-7.8153,-7.8785,-7.8785,-7.7486,-7.6573,-7.6327,-7.3027,-7.1061,0.0,0.0,0.0,0.0,0.0,0.0,0.0,0.0,0.0,0.0,0.0,0.0,0.0,0.0,0.0,0.0,0.0,0.0,0.0,0.0,0.0,0.0,0.0,0.0,0.0,0.0,0.0,0.0,0.0,0.0,0.0,0.0,-6.2013,-6.2742,0.0,0.0,0.0,0.0,0.0,0.0,0.0,0.0,0.0,0.0,0.0,0.0,0.0,0.0,-7.3409,-7.4602,-7.5628,-7.6556,-7.7318,-7.8113,-7.8908,-7.8908,-7.9007,-7.914,-7.8378,0.0,-7.3078,-7.1786,0.0,0.0,0.0,0.0,0.0,0.0,0.0,0.0,0.0,0.0,0.0,0.0,0.0,0.0,0.0,0.0,0.0,0.0,0.0,0.0,0.0,0.0,-7.0026,-7.2,-7.2458,-7.2624,0.0,-7.1882,-7.0531,-7.1147,-7.0073,0.0,0.0,0.0,0.0,0.0,0.0,0.0,-7.0499,-7.3062,-7.5204,-7.6327,-7.8363,-7.9627,-7.9627,-7.882,-7.7731,-7.6362,-7.4572,-7.3238,-7.2535,-7.092,0.0,0.0,0.0,0.0,0.0,0.0,0.0,0.0,0.0,0.0,0.0,0.0,0.0,0.0,0.0,0.0,0.0,0.0,0.0,0.0,0.0,0.0,0.0,0.0,0.0,0.0,0.0,0.0,0.0,-6.3173,-6.4432,-6.3902,-6.4962,-6.5227,0.0,0.0,0.0,0.0,0.0,0.0,0.0,0.0,0.0,-7.3376,-7.4171,-7.5628,-7.7815,-7.9272,-8.0796,-8.2353,-8.2651,-8.3645,-8.5103,-8.4705,-8.497,-8.5732,-8.5302,-8.3314,-7.9968,-7.5628,-7.2548,-7.0494,0.0,0.0,0.0,0.0,-6.9732,-6.9633,-7.0759,-7.0958,0.0,-7.0593,0.0,0.0,0.0,0.0,0.0,0.0,0.0,0.0,0.0,0.0,-7.1727,-7.4712,-7.5148,-7.502,-7.5755,-7.4437,-7.2993,0.0,-7.1447,-7.0534,-7.0113,0.0,0.0,0.0,0.0,-7.0745,-7.2816,-7.4256,-7.5906,-7.8047,-7.9171,-8.0154,-8.0997,-7.9978,-7.8785,-7.7661,-7.5695,-7.408,-7.2851,-7.1763,-7.1342,0.0,0.0,0.0,0.0,0.0,0.0,0.0,0.0,0.0,0.0,0.0,0.0,0.0,0.0,0.0,0.0,0.0,0.0,0.0,0.0,0.0,0.0,0.0,0.0,0.0,0.0,0.0,0.0,-6.5094,-6.6386,-6.5293,-6.7115,-6.7612,0.0,0.0,0.0,0.0,0.0,0.0,-7.2415,-7.2912,-7.4635,-7.7881,-7.9074,-8.0697,-8.2883,-8.4573,-8.6328,-8.8117,-8.7919,-8.878,-9.0502,-8.9774,-9.0039,-9.1032,-9.0502,-8.8714,-8.5765,-7.9902,-7.5993,-7.3608,-7.2846,-7.1587,-7.0295,-7.1753,-7.2283,-7.2448,-7.3541,-7.3939,-7.384,-7.3276,0.0,-7.1421,-6.9765,0.0,0.0,0.0,0.0,-6.9888,-7.2233,-7.3171,-7.4188,-7.7027,-7.7275,-7.6994,-7.7345,-7.6503,-7.5239,0.0,-7.2641,-7.1798,-7.1201,0.0,0.0,0.0,0.0,-7.2009,-7.4501,-7.5309,-7.6678,-7.9206,-8.0014,-8.0751,-8.1699,-8.0751,-7.9733,-7.896,-7.6889,-7.5168,-7.401,-7.3062,-7.257,-7.257,0.0,0.0,0.0,0.0,0.0,0.0,0.0,0.0,0.0,0.0,0.0,0.0,0.0,0.0,0.0,0.0,0.0,0.0,0.0,0.0,0.0,0.0,0.0,0.0,0.0,0.0,0.0,0.0,0.0,-6.7479,-6.9401,0.0,0.0,0.0,0.0,-7.0527,-7.2581,-7.4767,-7.6987,-7.8411,-8.0233,-8.2486,-8.4606,-8.6759,-8.8945,-9.1132,-9.2589,-9.3418,-9.2689,-9.2788,-9.355,-9.2821,-9.2523,-9.2589,-9.2556,-9.1264,-8.8912,-8.5136,-8.1426,-7.8113,-7.7384,-7.702,-7.6854,-7.6258,-7.6026,-7.6059,-7.6125,-7.6159,-7.6159,-7.6092,-7.5132,-7.3608,-7.1455,-7.1256,0.0,0.0,-7.2267,-7.4101,-7.4912,-7.6183,-7.7476,-7.8336,-7.8504,-7.8293,-7.7556,-7.7345,-7.6854,0.0,-7.3764,-7.2746,-7.2676,0.0,-7.1658,-7.1658,-7.2254,-7.3027,-7.394,-7.5976,-7.7661,-7.8539,-8.0646,-8.1699,-8.1032,-8.0891,-8.054,-7.9768,-7.8188,-7.7275,-7.7205,-7.573,-7.4923,-7.4923,-7.4256,0.0,0.0,0.0,0.0,0.0,0.0,0.0,0.0,0.0,0.0,0.0,0.0,0.0,0.0,0.0,0.0,0.0,0.0,0.0,0.0,0.0,0.0,0.0,0.0,0.0,0.0,0.0,0.0,-7.1786,-7.4171,0.0,0.0,-7.3442,-7.4005,-7.5032,-7.6689,-7.8842,-8.1525,-8.2618,-8.4573,-8.772,-8.9475,-9.143,-9.3649,-9.4908,-9.5902,-9.6598,-9.5869,-9.5902,-9.6565,-9.5372,-9.5074,-9.5538,-9.5538,-9.4279,-9.2159,-9.1364,-8.719,-8.1227,-8.0001,-7.8941,-7.8146,-7.8378,-7.8742,-7.914,-7.914,-7.914,-7.8908,-7.7484,-7.6357,-7.533,-7.4072,-7.3906,-7.4038,-7.3807,-7.3941,-7.4734,-7.6897,-7.7433,-7.8085,-8.0316,-8.047,-8.0154,-8.0365,-7.9241,-7.8153,-7.8118,-7.6468,-7.4888,-7.4361,-7.4045,-7.3869,-7.3869,-7.4115,-7.4747,-7.6046,-7.7345,-7.8644,-7.9943,-8.1277,-8.198,-8.1699,-8.1207,-8.0154,-7.8363,-7.7275,-7.6257,-7.5274,-7.4677,-7.4396,-7.4396,-7.4115,-7.3869,0.0,0.0,0.0,0.0,0.0,0.0,0.0,0.0,0.0,0.0,0.0,0.0,0.0,0.0,0.0,0.0,0.0,0.0,0.0,0.0,0.0,0.0,0.0,0.0,0.0,0.0,-7.4933,-7.5894,-7.861,-7.9703,-7.7947,-7.8014,-7.8676,-7.9902,-8.1359,-8.3579,-8.6759,-8.762,-8.9376,-9.2291,-9.3782,-9.524,-9.673,-9.7691,-9.842,-9.8883,-9.8188,-9.8088,-9.8486,-9.7028,-9.6763,-9.7459,-9.7227,-9.6134,-9.4577,-9.5074,-9.1695,-8.603,-8.4308,-8.2883,-8.1823,-8.1823,-8.2121,-8.2519,-8.2254,-8.2022,-8.1492,-7.9537,-7.8378,-7.755,-7.6357,-7.6159,-7.6324,-7.6059,-7.6033,-7.6542,-7.8837,-7.9179,-7.9707,-8.2276,-8.2261,-8.1839,-8.2366,-8.1032,-7.9838,-8.0119,-7.8293,-7.6503,-7.5976,-7.5871,-7.5871,-7.5871,-7.5871,-7.6432,-7.8012,-7.889,-7.9873,-8.1172,-8.2015,-8.2261,-8.1734,-8.1699,-8.0575,-7.7977,-7.7591,-7.6784,-7.5204,-7.4923,-7.4782,-7.4782,-7.4501,-7.4256,-7.401,0.0,0.0,0.0,0.0,0.0,0.0,0.0,0.0,0.0,0.0,0.0,0.0,0.0,0.0,0.0,0.0,0.0,0.0,0.0,0.0,0.0,0.0,0.0,-7.2051,-7.5297,-7.8146,-7.9703,-8.2453,-8.338,-8.1227,-8.1658,-8.2983,-8.5169,-8.666,-8.9045,-9.2589,-9.3517,-9.4577,-9.6035,-9.7492,-9.8254,-9.8254,-9.9645,-10.0308,-10.0308,-9.9645,-9.9314,-9.9248,-9.7823,-9.7558,-9.8155,-9.7492,-9.6763,-9.6035,-9.6068,-9.4743,-9.2556,-9.0337,-8.9045,-8.8217,-8.6759,-8.6229,-8.6063,-8.5368,-8.4672,-8.3811,-8.2353,-8.1393,-8.0399,-7.8246,-7.808,-7.8477,-7.7749,-7.8645,-8.0006,-8.0774,-8.1551,-8.2546,-8.4082,-8.384,-8.3279,-8.3279,-8.2682,-8.1945,-8.1207,-7.9206,-7.7591,-7.7521,-7.7486,-7.7486,-7.7521,-7.7521,0.0,-7.9662,-8.0505,-8.1242,-8.2015,-8.2787,-8.2612,-8.1102,-8.2331,-8.1839,-7.875,-7.9276,-7.896,-7.738,-7.6608,-7.6222,-7.6257,-7.5484,-7.4747,-7.408,0.0,0.0,0.0,0.0,0.0,0.0,0.0,0.0,0.0,0.0,0.0,0.0,0.0,0.0,0.0,0.0,0.0,0.0,0.0,0.0,0.0,0.0,-7.49,-7.5098,-7.8742,-8.2519,-8.5567,-8.7587,-8.868,-8.8581,-8.8316,-8.8813,-9.0469,-9.1463,-9.2888,-9.4975,-9.63,-9.7161,-9.7558,-9.9513,-10.0308,-9.9745,-10.0606,-10.0838,-10.0308,-10.0109,-10.001,-10.001,-9.9082,-9.8784,-9.895,-9.8751,-9.7956,-9.6863,-9.736,-9.6266,-9.408,-9.1861,-9.0536,-8.9741,-8.825,-8.7057,-8.613,-8.5931,-8.5401,-8.4738,-8.4341,-8.3711,-8.2883,-8.1724,-8.1161,-8.0863,-8.0664,-8.0983,-8.1659,-8.2989,-8.3512,-8.397,-8.4957,-8.5034,-8.4859,-8.4859,-8.4297,-8.3876,-8.4192,-8.3279,-8.1769,-7.9522,-7.9136,-7.9311,-7.9873,-7.9487,0.0,-8.1242,-8.1629,-8.1839,-8.205,-8.3279,-8.3454,-8.1909,-8.2155,-8.1067,-7.7942,-7.7451,-7.6573,-7.4993,-7.4747,-7.4888,-7.5414,-7.5204,-7.5274,0.0,0.0,0.0,0.0,0.0,0.0,0.0,0.0,0.0,0.0,0.0,0.0,0.0,0.0,0.0,0.0,0.0,0.0,0.0,0.0,0.0,0.0,-7.7252,-7.9703,-8.1525,-8.401,-8.6759,-8.9774,-9.1993,-9.3186,-9.2987,-9.3153,-9.3649,-9.4478,-9.4941,-9.5935,-9.7724,-9.8618,-9.9347,-9.9977,-10.1202,-10.1534,-10.0805,-10.1202,-10.1037,-10.0308,-10.0308,-10.0308,-10.0308,-9.9579,-9.9447,0.0,-9.9414,-9.8784,-9.8055,-9.8453,-9.7691,0.0,0.0,0.0,0.0,0.0,-8.8515,-8.7488,-8.719,-8.6792,-8.6362,-8.5732,-8.5268,-8.4738,-8.3678,-8.3049,-8.2764,-8.2766,-8.2536,-8.281,-8.4351,-8.4598,-8.4725,-8.5728,-8.5736,-8.5596,-8.5947,-8.542,-8.4999,-8.542,-8.5139,0.0,-8.2506,-8.1945,-8.1874,-8.2331,-8.2015,-8.2155,-8.3349,-8.3524,-8.3524,-8.3524,-8.4332,-8.4367,-8.3173,-8.3068,0.0,0.0,0.0,-7.7064,-7.5484,-7.5414,0.0,0.0,0.0,-7.6608,-7.6748,-7.7451,0.0,0.0,-7.6678,-7.6678,0.0,0.0,0.0,0.0,0.0,0.0,0.0,0.0,0.0,0.0,0.0,0.0,0.0,0.0,0.0,0.0,-8.1293,-8.5268,-8.9542,-9.037,-9.1231,-9.3086,-9.5637,-9.6797,-9.5736,-9.6664,-9.7426,-9.7592,-9.7592,-9.8453,-10.0407,0.0,0.0,0.0,0.0,-10.2329,-10.1434,-10.1501,-10.1136,-10.0308,-10.0308,-10.0308,-10.0308,-9.9679,-9.9745,-10.0308,-9.9645,-9.9347,-9.9281,-9.9281,-9.8751,-9.7658,-9.5074,-9.355,-9.2656,-9.1264,-9.0237,-8.9442,-8.878,0.0,0.0,-8.6858,-8.6362,-8.603,-8.4672,-8.4142,-8.4072,-8.4228,-8.3813,-8.3663,-8.5328,-8.5333,-8.5307,-8.6604,-8.6403,-8.6087,-8.6684,-8.6263,-8.5771,-8.5771,-8.5771,-8.5771,-8.5771,-8.5069,-8.4578,-8.4648,-8.4578,-8.4788,-8.5526,-8.5561,-8.5491,-8.5491,0.0,0.0,-8.4613,-8.4543,-8.3244,-8.0224,-7.9803,-7.903,-7.7591,-7.7556,-7.7591,-7.7696,-7.8363,-7.8434,-7.7802,-7.9241,-7.9978,-8.0014,-7.8609,-7.8328,0.0,0.0,0.0,0.0,0.0,0.0,0.0,0.0,0.0,0.0,0.0,0.0,0.0,0.0,0.0,-8.2022,-8.6295,-9.037,-9.4179,-9.6266,-9.7293,-9.7128,-9.7625,-9.8552,-10.001,-9.938,-9.9347,-10.0507,-10.0606,-10.1037,-10.2031,-10.2627,0.0,-10.2527,-10.3687,-10.3322,-10.1434,-10.2031,-10.1633,-10.0308,0.0,0.0,-10.0308,-10.0209,-10.0209,-10.0308,-10.0209,-9.9778,-9.9281,-9.9281,-9.8155,-9.6366,-9.5803,-9.4743,-9.3484,-9.2589,-9.143,-9.0304,-9.0138,-8.9707,-8.9045,-8.8184,-8.7521,-8.6892,-8.603,-8.4937,0.0,-8.4833,-8.4984,-8.5309,-8.6943,-8.7736,-8.8181,-8.851,-8.844,-8.8194,-8.7738,-8.7527,-8.7422,-8.7422,-8.7422,-8.7422,-8.7422,-8.6228,-8.5526,-8.6158,-8.5701,-8.5561,-8.6368,-8.5912,-8.5491,-8.5491,-8.6087,-8.6158,-8.535,-8.528,-8.4262,-8.1804,-7.9873,-7.8679,-7.8363,-7.8363,-7.8679,-7.9311,-7.9487,-7.9768,-8.0224,-8.054,-8.1032,-8.1629,-8.1313,-8.1242,0.0,0.0,0.0,0.0,0.0,0.0,0.0,0.0,0.0,0.0,0.0,-7.3939,0.0,0.0,-8.3248,-8.7654,-9.1132,-9.4411,-9.7691,-9.9414,-10.0076,-9.9347,-10.0175,-10.1004,-10.1401,-10.1401,-10.16,-10.1931,-10.1997,-10.2296,-10.3024,-10.3389,-10.3588,-10.3621,-10.4283,-10.3985,-10.2494,-10.2892,-10.2296,-10.0904,-10.1236,-10.1004,-10.0308,-10.0705,-10.0639,-10.0308,-10.0308,-10.0109,-9.9778,-9.9778,-9.9149,-9.8122,-9.779,-9.6068,-9.3749,-9.3384,-9.2556,-9.1562,-9.1198,-9.0569,-8.9774,-8.868,-8.8084,-8.7587,-8.6494,-8.5666,-8.5316,-8.6223,-8.6462,-8.692,-8.8549,-8.9275,-8.9598,-8.9598,-8.9598,-8.9388,-8.8615,-8.844,-8.8334,-8.7948,-8.7878,-8.7878,-8.7878,-8.7211,-8.6825,-8.7211,-8.693,-8.6825,-8.7246,-8.693,-8.6684,-8.6684,-8.7035,-8.7141,-8.6719,-8.5947,-8.4683,-8.2752,-8.1558,-8.0891,-8.0891,-8.0891,-8.1102,-8.1488,-8.1909,-8.2296,-8.2682,-8.3033,-8.3419,-8.3805,-8.4192,-8.3981,0.0,0.0,0.0,0.0,0.0,0.0,0.0,0.0,-7.2813,-7.5165,-7.6788,-7.8842,-8.2221,-8.5467,-8.8912,-9.2722,-9.5538,-9.8122,-10.0606,-10.16,-10.1898,-10.1401,-10.2594,-10.2991,-10.213,-10.2991,-10.3389,-10.2991,-10.2925,-10.3223,-10.3985,-10.3985,-10.4383,-10.5078,-10.4979,-10.4581,-10.3786,-10.3687,-10.2892,-10.1401,-10.2031,-10.1699,-10.0507,-10.1004,-10.0937,-10.0507,-10.0407,-10.0308,-10.0308,-10.0308,-10.0209,-10.0076,-9.948,-9.7393,-9.4643,-9.4478,-9.3881,-9.302,-9.2258,-9.1529,-9.0701,-8.921,-8.8747,-8.8482,-8.7024,-8.6612,-8.6778,-8.7613,-8.7841,-8.8295,-8.9948,-9.0406,-9.0406,-9.0406,-9.0406,-9.0195,-8.9388,-8.9212,-8.9037,-8.844,-8.8334,-8.8334,-8.8334,-8.8334,-8.8229,-8.7913,-8.7878,-8.7878,-8.7878,-8.7878,-8.7878,-8.7878,-8.8018,-8.8159,-8.8299,-8.6719,-8.528,-8.4192,-8.384,-8.3665,-8.3665,-8.3665,-8.3665,-8.3665,-8.4297,-8.4613,-8.4648,-8.521,-8.5491,-8.5526,-8.6333,-8.6052,-7.4635,-7.2912,0.0,-7.3409,-7.3343,-7.3773,0.0,0.0,-7.7484,-8.0366,-8.2121,-8.3877,-8.6229,-9.0105,-9.355,-9.5339,-9.9115,-10.213,-10.3091,-10.3886,-10.4515,-10.5111,-10.3687,-10.3091,-10.4184,-10.3886,-10.3786,-10.4383,-10.4482,-10.478,-10.5509,-10.5575,-10.5906,-10.6602,-10.6006,-10.531,-10.4581,-10.3886,-10.2892,-10.1401,-10.1501,-10.1434,-10.1302,-10.0705,-10.0739,-10.1236,-10.0606,-10.0308,-10.0308,-10.0308,-9.9944,-9.938,-9.9314,-9.8618,-9.7592,-9.6962,-9.5869,-9.4544,-9.3815,-9.3053,-9.2192,-9.0734,-9.0271,-9.0006,-8.8515,-8.8212,-8.8317,-8.8504,-8.8638,-8.9148,-9.0773,-9.1178,-9.1178,-9.1178,-9.1178,-9.0968,-9.023,-9.0055,-9.0055,-8.9949,-8.9949,-8.9949,-8.9949,-8.9949,-8.9458,-8.8089,-8.7878,-8.7878,-8.7878,-8.7878,-8.7878,-8.7878,-8.8475,-8.9177,-8.9879,-8.7878,-8.679,-8.7316,-8.6017,-8.5245,-8.5245,-8.5245,-8.5245,-8.5245,-8.5315,-8.5385,-8.5385,-8.5455,-8.5491,-8.5526,-8.6333,-8.6614,-7.5595,0.0,0.0,0.0,-7.649,-7.8047,-7.9968,-8.0863,-8.1956,-8.4473,-8.6825,-8.9343,-9.2424,-9.5869,-9.885,0.0,-10.2991,-10.4714,-10.5409,-10.5012,-10.4681,-10.4482,-10.3322,-10.3091,-10.4581,-10.478,-10.4979,-10.531,-10.5708,-10.5906,-10.5807,-10.6205,-10.6205,-10.5608,-10.5708,-10.5409,-10.4681,-10.4383,-10.3687,-10.2693,-10.3091,-10.2892,-10.2031,-10.2196,-10.1898,-10.1401,-10.0606,-10.0308,-10.0308,-10.0308,-10.0109,-9.9877,-9.9877,-9.9447,-9.8718,-9.7989,-9.6797,-9.5505,-9.5173,-9.4047,-9.2589,-9.1993,-9.1496,-9.0933,-8.9906,-9.0066,-9.0568,-9.0692,-9.1117,-9.1819,-9.3015,-9.2969,-9.2653,-9.2653,-9.2302,-9.1916,-9.16,-9.1529,-9.1389,-9.0932,-9.0827,-9.0687,-9.0265,-9.0195,-8.9985,-8.9317,-8.9247,-8.9247,-8.9247,-8.9247,-8.9247,-8.9247,-8.9493,-8.9844,-9.016,-8.9317,-8.8896,-8.9212,-8.8615,-8.8229,-8.8229,-8.8229,-8.8018,-8.7562,-8.7527,-8.7316,-8.6895,-8.6895,-8.6895,-8.6895,-8.7667,-8.8054,-7.639,0.0,0.0,-7.8113,-8.0498,-8.285,-8.4175,-8.55,-8.7123,-8.9741,-9.2093,-9.4643,-9.7724,-10.0507,0.0,-10.4416,-10.5674,-10.6503,-10.69,-10.5608,-10.4283,-10.3091,-10.1997,-10.1799,-10.3091,-10.4581,-10.5575,-10.5774,-10.6503,-10.6801,-10.6403,-10.69,-10.6801,-10.5906,-10.6006,-10.5807,-10.531,-10.4879,-10.4283,-10.3588,-10.4084,-10.3819,-10.2826,-10.3389,-10.2792,-10.1401,-10.0838,-10.0507,-10.0308,-10.0308,-10.0308,-10.0308,-10.0308,-10.001,-9.948,-9.895,-9.7724,-9.63,-9.63,-9.5008,-9.3318,-9.3318,-9.2788,-9.2059,-9.1331,-9.179,-9.2489,-9.2396,-9.3049,-9.4008,-9.4658,-9.4373,-9.3952,-9.3952,-9.3531,-9.3179,-9.339,-9.3425,-9.325,-9.2688,-9.2547,-9.2337,-9.16,-9.1284,-9.1143,-9.1143,-9.0968,-9.0687,-9.0265,-9.0195,-9.0265,-9.0476,-9.0336,-9.0371,-9.0792,-9.0441,-9.0301,-9.0476,-9.0301,-9.0195,-9.0195,-9.0195,-8.9809,-8.9001,-8.9001,-8.8615,-8.7878,-8.8089,-8.8194,-8.8194,-8.8966,-8.9317,0.0,0.0,-8.0167,-8.3049,-8.5434,-8.7819,-9.0635,-9.1861,-9.3451,-9.7095,-9.8486,-9.9513,-10.1004,-10.3091,-10.4581,-10.4681,-10.6503,-10.7695,-10.7,-10.5608,-10.3886,-10.1732,-9.9612,-9.8618,0.0,-10.266,-10.5012,-10.5708,-10.6503,-10.7198,-10.7894,-10.7993,-10.8292,-10.8921,-10.7596,-10.69,-10.6801,-10.5409,-10.4283,-10.3588,-10.3588,-10.3588,-10.3588,-10.3588,-10.2792,-10.1401,-10.1401,-10.1004,-10.0308,-10.0308,-10.0308,-10.0308,-10.0308,-10.0308,-10.0308,-10.0209,-9.8917,-9.7095,-9.7095,-9.6101,-9.4842,-9.4842,-9.4312,-9.3583,-9.2854,-9.3413,-9.4044,-9.3406,-9.3895,-9.4794,-9.4794,-9.4759,-9.4759,-9.4759,-9.4724,-9.4935,-9.5637,-9.5813,-9.5813,-9.5778,-9.5778,-9.5532,-9.4794,-9.4022,-9.3531,-9.3531,-9.2899,-9.188,-9.0406,-9.0195,-9.0476,-9.1178,-9.0616,-9.0792,-9.2302,-9.1073,-9.0511,-9.1213,-9.0581,-9.0195,-9.0195,-9.0195,-8.9809,-8.9001,-8.9001,-8.8615,-8.7878,-8.8615,-8.8966,-8.9001,-8.9774,-9.016,0.0,0.0,-8.4672,-8.7587,-9.0337,-9.2987,-9.5405,-9.6863,-9.7956,-9.8751,-9.8718,-9.8685,-9.9182,-10.0606,-10.2296,-10.3687,-10.6205,-10.7894,-10.7695,-10.7198,-10.531,-10.1202,-10.0507,0.0,0.0,0.0,0.0,-10.5608,-10.69,-10.7728,-10.7993,-10.8888,-10.8888,-10.7695,-10.7629,-10.7198,-10.6205,-10.5674,-10.5078,-10.4283,-10.4283,-10.4283,-10.4283,-10.3322,-10.2627,-10.213,-10.1103,-10.0507,-10.0308,-10.0308,-10.0308,-10.0308,-10.0308,-10.0308,-10.0308,-10.0308,-9.9579,-9.8552,-9.8552,-9.726,-9.5703,-9.62,-9.5538,-9.4378,-9.3649,-9.4523,-9.558,-9.4944,-9.5561,-9.6445,-9.6971,-9.6725,-9.6339,-9.6339,-9.6339,-9.655,-9.7322,-9.7498,-9.7498,-9.7498,-9.7077,-9.6445,-9.5672,-9.49,-9.4408,-9.4408,-9.332,-9.2302,-9.1775,-9.2161,-9.2372,-9.2126,-9.2302,-9.2688,-9.3215,-9.2758,-9.2793,-9.3566,-9.339,-9.325,-9.325,-9.2758,-9.2091,-9.1319,-9.0792,-9.016,-8.9423,-8.9669,-9.0055,-9.0546,-9.1354,-9.1986,0.0,-8.6262,-8.9343,-9.2788,-9.5836,-9.832,-9.9447,-10.0606,-10.1103,-9.991,-9.8652,-9.7724,-9.7459,-9.7724,-9.8784,-10.1269,-10.3289,-10.5012,-10.6602,-10.5906,-10.4018,-10.0705,-10.001,0.0,0.0,0.0,0.0,-10.5111,-10.6801,-10.7828,-10.8391,-10.9484,-10.9484,-10.8093,-10.8292,-10.7695,-10.6205,-10.5906,-10.5409,-10.4681,-10.4681,-10.4681,-10.4681,-10.3422,-10.2726,-10.2428,-10.1236,-10.0507,-10.0308,-10.0308,-10.0308,-10.0308,-10.0308,-10.0308,-10.0308,-10.0308,-10.001,-9.9645,-9.9645,-9.8387,-9.6896,-9.7658,-9.6896,-9.5604,-9.5107,-9.5686,-9.6453,-9.6296,-9.6788,-9.7604,-9.8446,-9.8305,-9.7919,-9.7919,-9.7919,-9.8165,-9.8937,-9.9113,-9.9113,-9.9113,-9.8481,-9.7673,-9.6901,-9.5883,-9.511,-9.483,-9.3952,-9.3425,-9.3671,-9.4127,-9.4233,-9.3776,-9.3917,-9.4022,-9.4022,-9.4022,-9.4373,-9.5146,-9.5181,-9.5181,-9.5181,-9.4443,-9.3566,-9.2512,-9.1705,-9.1073,-9.0581,-9.0862,-9.1389,-9.2126,-9.2934,-9.3566,-8.7322,-9.09,-9.4213,-9.8552,-10.1699,-10.3588,-10.2826,-10.3091,-10.2892,-10.0606,-9.8353,-9.6532,0.0,0.0,-9.461,-9.7592,-9.8353,-10.0076,-10.4283,-10.2594,-10.0805,0.0,0.0,0.0,0.0,0.0,0.0,-10.4482,0.0,-10.7596,-10.9087,-10.9882,-11.0279,-11.018,-10.9517,-10.8424,-10.7,-10.6205,-10.5409,-10.478,-10.4681,-10.4681,-10.4581,-10.3886,-10.3124,-10.2428,-10.1699,-10.0937,-10.0308,-10.0308,-10.0308,-10.0308,-10.0308,-10.0308,-10.0308,-10.0308,-10.0308,-10.0308,-10.0308,-9.938,-9.8353,-9.9049,-9.832,-9.7161,-9.7128,-9.6845,-9.6675,-9.761,-9.7999,-9.8347,-9.9356,-9.9569,-9.9534,-9.9569,-9.9604,-9.985,-10.0623,-10.0693,-10.0693,-10.0658,-9.9991,-9.9218,-9.8481,-9.7041,-9.5813,-9.511,-9.504,-9.5216,-9.5848,-9.5918,-9.5918,-9.5918,-9.5321,-9.49,-9.49,-9.4935,-9.5286,-9.6023,-9.6058,-9.6023,-9.5953,-9.5216,-9.4092,-9.2583,-9.1775,-9.1354,-9.1424,-9.2161,-9.2969,-9.3741,-9.4549,-9.49,-9.2656,-9.6962,-10.0705,-10.3422,-10.5078,-10.5708,-10.4416,-10.3422,-10.1898,-9.8585,-9.4875,-9.1662,0.0,0.0,0.0,-9.6001,-10.0672,0.0,-10.7596,-10.8225,0.0,0.0,0.0,-10.3621,-10.16,-10.2395,0.0,0.0,-10.6701,-10.7795,-10.9782,-11.1107,-11.1273,-11.018,-10.9981,-10.9186,-10.7728,-10.6403,-10.5708,-10.5509,-10.4979,-10.4383,-10.3886,-10.3091,-10.2395,-10.1633,-10.0904,-10.0507,-10.0308,-10.0308,-10.0308,-10.0308,-10.0308,-10.0308,-10.0308,-10.0308,-10.0308,-10.0308,-10.0308,-9.9745,-9.9016,-9.9215,-9.8652,-9.779,-9.726,-9.8026,-9.9023,-9.9265,-9.9665,-10.0337,-10.1567,-10.1606,-10.129,-10.1886,-10.2413,-10.2694,-10.2413,-10.2308,-10.2097,-10.15,-10.0798,-9.9991,-9.9253,-9.8305,-9.7814,-9.8165,-9.8235,-9.7673,-9.6129,-9.5918,-9.5918,-9.5918,-9.6269,-9.6515,-9.6515,-9.7041,-9.7709,-9.8481,-9.7989,-9.7428,-9.6831,-9.5497,-9.4338,-9.3355,-9.2583,-9.2442,-9.3004,-9.325,-9.4022,-9.5356,-9.6164,-9.6515,-9.7393,-10.1103,-10.4184,-10.7,-10.7298,-10.6304,-10.4217,-10.2395,-9.9612,-9.4345,-9.0767,0.0,0.0,0.0,0.0,0.0,0.0,0.0,-10.7496,-10.8523,-10.8292,0.0,-10.7099,0.0,-10.5111,-10.5708,-10.6768,0.0,0.0,-10.8292,-11.0511,-11.1704,-11.1803,-11.0677,-11.0975,-11.0279,-10.8523,-10.6701,-10.5807,-10.5774,-10.5078,-10.4283,-10.3588,-10.2826,-10.2329,-10.1832,0.0,-10.0507,-10.0805,-10.0407,-10.0308,-10.0308,-10.0308,-10.0308,-10.0308,-10.0308,-10.0308,-10.0308,-10.0308,-10.0076,-9.9745,-9.9745,-9.9248,-9.8585,-9.8188,-9.8904,-9.9865,-10.0391,-10.0966,-10.1834,-10.3075,-10.301,-10.2799,-10.3291,-10.3677,-10.3782,-10.308,-10.2905,-10.2589,-10.143,-10.0868,-10.0271,-9.9534,-9.9043,-9.9043,-9.9815,-9.9955,-9.9569,-9.8586,-9.8165,-9.7954,-9.7954,-9.806,-9.813,-9.813,-9.8516,-9.9113,-9.9885,-9.9218,-9.8586,-9.813,-9.6304,-9.4935,-9.4163,-9.339,-9.3531,-9.4619,-9.497,-9.5778,-9.6971,-9.7744,-9.7954,-10.1699,-10.4383,-10.637,-10.9683,-10.8689,-10.6205,-10.3124,-10.0209,-9.63,-8.931,0.0,-8.454,-8.1989,0.0,-8.5898,-9.1165,0.0,-9.9115,-10.6403,-10.6801,-10.7198,-10.9318,-10.8987,-10.8523,-10.8424,-10.8523,-10.9087,-11.0379,-10.9285,-10.9418,-11.1207,-11.2035,-11.2101,-11.1405,-11.1803,-11.1107,-10.9285,-10.7099,-10.6006,-10.5906,-10.5178,-10.4383,-10.3588,-10.2925,-10.2627,-10.2428,0.0,0.0,-10.1401,-10.0705,-10.0407,-10.0308,-10.0308,-10.0308,-10.0308,-10.0308,-10.0308,-10.0308,-10.0308,-10.0308,-10.0308,-10.0308,-9.991,-9.9414,-9.9414,-9.9849,-10.0244,-10.1155,-10.2144,-10.3231,-10.4051,-10.4204,-10.4204,-10.4309,-10.4309,-10.4098,-10.3396,-10.3115,-10.2624,-10.1219,-10.0903,-10.0587,-9.985,-9.964,-9.9885,-10.0798,-10.0728,-10.0903,-10.1781,-10.1114,-10.0587,-10.0587,-9.9991,-9.9569,-9.9569,-9.964,-9.9991,-10.0693,-9.9885,-9.9359,-9.9253,-9.7112,-9.5567,-9.4794,-9.4233,-9.4619,-9.6058,-9.6761,-9.7568,-9.8446,-9.9113,-9.9043,-10.5807,-10.8523,-11.0412,-11.1604,-10.9882,-10.6701,-10.2527,-9.7095,0.0,0.0,-8.3049,-8.0598,-8.0101,-8.2684,0.0,-9.3285,0.0,0.0,0.0,0.0,-10.9981,0.0,0.0,0.0,0.0,0.0,0.0,0.0,0.0,0.0,-11.2101,-11.283,-11.2896,-11.2134,-11.1074,-11.0379,-10.9981,-10.8391,-10.7298,-10.6701,-10.5973,-10.4879,-10.3588,-10.3488,-10.3091,-10.2527,-10.2229,0.0,-10.1401,-10.1302,-10.0838,-10.0308,-10.0308,-10.0308,-10.0308,-10.0308,-10.0308,-10.0308,-10.0308,-10.0308,-10.0308,-10.0308,-10.0209,-10.0109,-10.0109,-10.1282,-10.2688,-10.2938,-10.3863,-10.4857,-10.5748,-10.5433,-10.5117,-10.5819,-10.5924,-10.5713,-10.4976,-10.4309,-10.3502,-10.2694,-10.2518,-10.2202,-10.1395,-10.0798,-10.0903,-10.2308,-10.1395,-10.1079,-10.2518,-10.1465,-10.0587,-10.0587,-10.0482,-10.0412,-10.0412,-10.1009,-10.1395,-10.15,-10.0201,-9.9113,-9.8516,-9.6831,-9.5567,-9.4794,-9.5251,-9.5988,-9.6901,-9.7041,-9.7849,-9.9218,-9.9359,-9.9324,-10.849,-11.0412,-11.1306,-11.1604,-10.8424,-10.3819,-9.8618,0.0,0.0,0.0,-7.914,-7.7914,-7.7914,-8.1227,0.0,0.0,0.0,0.0,0.0,0.0,0.0,0.0,0.0,0.0,0.0,0.0,0.0,0.0,0.0,0.0,0.0,-11.283,-11.283,-11.2896,-11.1107,-11.0379,-11.071,-10.8921,-10.7596,-10.69,-10.6171,-10.5012,-10.3588,-10.3588,-10.3389,-10.3091,-10.2693,0.0,-10.1931,-10.16,-10.1004,-10.0308,-10.0308,-10.0308,-10.0308,-10.0308,-10.0308,-10.0308,-10.0308,-10.0308,-10.0308,-10.0308,-10.0308,-10.0308,-10.0308,-10.1286,-10.2556,-10.3223,-10.4057,-10.5249,-10.6127,-10.6029,-10.5889,-10.6205,-10.6029,-10.5608,-10.5292,-10.459,-10.3888,-10.3502,-10.3502,-10.3291,-10.2975,-10.2589,-10.2799,-10.3923,-10.3466,-10.3291,-10.3993,-10.3466,-10.2694,-10.1886,-10.1395,-10.1325,-10.1816,-10.1395,-10.1114,-10.1114,-9.9675,-9.8656,-9.8305,-9.6761,-9.5953,-9.5988,-9.6339,-9.7112,-9.8305,-9.8727,-9.9288,-9.9991,-10.0412,-10.0412,-11.0213,-11.1405,-11.1604,-11.1107,-10.6503,-10.0507,-9.4676,-8.8349,0.0,0.0,-7.596,-7.5993,-7.6457,-7.9769,-8.3546,0.0,0.0,0.0,0.0,0.0,0.0,0.0,0.0,0.0,0.0,0.0,0.0,0.0,0.0,0.0,0.0,-11.2896,-11.283,-11.3426,-11.1604,-11.0809,-11.1207,-10.9385,-10.7927,-10.69,-10.6304,-10.5277,-10.3786,-10.3786,-10.3786,-10.3786,-10.3223,0.0,0.0,-10.1898,-10.1103,-10.0308,-10.0308,-10.0308,-10.0308,-10.0308,-10.0308,-10.0308,-10.0308,-10.0308,-10.0308,-10.0308,-10.0308,-10.0308,-10.0308,-10.122,-10.2333,-10.3097,-10.4211,-10.532,-10.6083,-10.631,-10.631,-10.631,-10.5889,-10.5397,-10.5397,-10.4906,-10.4414,-10.4309,-10.4274,-10.4204,-10.3993,-10.3993,-10.4274,-10.5081,-10.5081,-10.5011,-10.5187,-10.5011,-10.452,-10.3502,-10.2694,-10.2413,-10.308,-10.1886,-10.1114,-10.1114,-9.9464,-9.8586,-9.8762,-9.7252,-9.6796,-9.7603,-9.7919,-9.8621,-9.9675,-10.0587,-10.1079,-10.1079,-10.15,-10.15,-11.071,-11.22,-11.2731,-11.0776,-10.5376,-9.8983,-9.3153,0.0,0.0,-7.5894,-7.4833,-7.4966,-7.6954,-7.9272,-8.2486,0.0,0.0,-9.2722,0.0,0.0,0.0,0.0,0.0,0.0,0.0,0.0,0.0,0.0,0.0,0.0,0.0,-11.3327,-11.3327,-11.3426,-11.2598,-11.1803,-11.1207,-11.0379,-10.8987,-10.69,-10.6801,-10.6006,-10.4581,-10.4581,-10.4581,-10.4581,-10.4515,0.0,0.0,-10.2428,-10.16,-10.0308,-10.0308,-10.0308,-10.0308,-10.0308,-10.0308,-10.0308,-10.0308,-10.0308,-10.0308,-10.0308,-10.0308,-10.0308,-10.0308,-10.1649,-10.3189,-10.3348,-10.4693,-10.6197,-10.6345,-10.631,-10.631,-10.631,-10.624,-10.6205,-10.6205,-10.6135,-10.5924,-10.5187,-10.5081,-10.4871,-10.4098,-10.3993,-10.4274,-10.5081,-10.459,-10.4379,-10.5081,-10.459,-10.4309,-10.4906,-10.4274,-10.3782,-10.3888,-10.3186,-10.2694,-10.2694,-10.0587,-9.964,-10.0412,-9.8902,-9.8411,-9.9183,-10.0587,-10.1009,-10.0517,-10.1992,-10.2694,-10.2694,-10.1992,-10.2097,-11.0511,-11.2631,-11.2896,-11.0677,-10.5211,-9.8453,-9.1297,0.0,0.0,-7.5165,-7.3674,-7.3674,-7.6258,-7.7815,-7.967,-8.2618,-8.3678,0.0,0.0,0.0,0.0,0.0,0.0,0.0,0.0,0.0,0.0,0.0,0.0,0.0,0.0,-11.4122,-11.3923,-11.3426,-11.2697,-11.1935,-11.1207,-11.0478,-10.9285,-10.7596,-10.7099,-10.6403,-10.531,-10.4879,-10.4681,-10.4681,-10.4681,0.0,0.0,-10.2726,-10.1931,-10.0904,-10.0507,-10.0308,-10.0308,-10.0308,-10.0308,-10.0308,-10.0308,-10.0308,-10.0308,-10.0308,-10.0308,-10.0308,-10.0308,-10.0851,-10.1649,-10.2971,-10.3967,-10.4847,-10.5969,-10.631,-10.631,-10.631,-10.631,-10.631,-10.631,-10.631,-10.6205,-10.5924,-10.5889,-10.5819,-10.5433,-10.5397,-10.5503,-10.5819,-10.5608,-10.5503,-10.5819,-10.5608,-10.5503,-10.5819,-10.4695,-10.3993,-10.3993,-10.2905,-10.1992,-10.15,-10.0201,-9.9534,-9.9885,-9.9288,-9.9534,-10.0798,-10.1395,-10.1992,-10.2624,-10.3291,-10.3572,-10.3572,-10.3186,-10.3291,-10.8292,-11.1207,-11.1902,-10.9782,-10.4217,-9.726,0.0,0.0,0.0,-7.4138,-7.3045,-7.3409,-7.586,-7.7086,-7.8146,-7.9438,-8.0399,-8.2817,-8.8051,0.0,0.0,0.0,0.0,0.0,0.0,0.0,0.0,0.0,0.0,0.0,0.0,0.0,-11.4221,-11.3426,-11.2929,-11.22,-11.1207,-11.071,-10.9517,-10.7695,-10.7132,-10.6403,-10.5476,-10.4913,-10.4681,-10.4681,0.0,0.0,0.0,-10.2726,-10.1931,-10.1037,-10.0507,-10.0308,-10.0308,-10.0308,-10.0308,-10.0308,-10.0308,-10.0308,-10.0308,-10.0308,-10.0308,-10.0308,-10.0308,-10.0547,-10.102,-10.2462,-10.3314,-10.4055,-10.5854,-10.631,-10.631,-10.631,-10.631,-10.631,-10.631,-10.631,-10.631,-10.631,-10.631,-10.631,-10.631,-10.631,-10.631,-10.631,-10.631,-10.631,-10.631,-10.631,-10.631,-10.631,-10.5327,-10.4695,-10.4695,-10.3502,-10.2518,-10.1992,-10.0798,-10.0307,-10.0693,-10.0307,-10.0798,-10.2378,-10.2589,-10.3186,-10.3993,-10.4485,-10.459,-10.4379,-10.4379,-10.4204,-10.3588,-10.7397,-10.9683,-10.7496,-10.1997,-9.5041,0.0,0.0,-7.5496,-7.2614,-7.3144,-7.4602,-7.6059,-7.7517,-7.8742,-7.9504,-8.0829,-8.3082,-8.6792,0.0,0.0,0.0,0.0,0.0,0.0,0.0,0.0,0.0,0.0,0.0,0.0,0.0,-11.4221,-11.3426,-11.3426,-11.2697,-11.1207,-11.1207,-10.9716,-10.69,-10.69,-10.6105,-10.4681,-10.4681,-10.4681,0.0,0.0,0.0,0.0,-10.2527,-10.1633,-10.0308,-10.0308,-10.0308,-10.0308,-10.0308,-10.0308,-10.0308,-10.0308,-10.0308,-10.0308,-10.0308,-10.0308,-10.0308,-10.0308,-10.0952,-10.1813,-10.1813,-10.3155,-10.505,-10.6048,-10.631,-10.631,-10.631,-10.631,-10.631,-10.631,-10.631,-10.631,-10.631,-10.631,-10.631,-10.631,-10.631,-10.631,-10.631,-10.631,-10.631,-10.631,-10.631,-10.631,-10.631,-10.631,-10.631,-10.631,-10.5608,-10.5187,-10.5187,-10.2975,-10.2378,-10.3888,-10.2483,-10.2413,-10.3888,-10.4801,-10.4801,-10.3993,-10.5503,-10.5924,-10.5187,-10.5187,-10.4801,-9.5143,-9.8514,-10.0087,-9.8351,-9.524,-9.0767,-8.3711,0.0,-7.639,-7.3972,-7.3475,-7.4204,-7.6622,-7.745,-7.8345,-8.0067,-8.1161,-8.2552,-8.4738,0.0,0.0,0.0,0.0,0.0,0.0,0.0,0.0,0.0,0.0,0.0,0.0,0.0,-11.3625,-11.3426,-11.2929,-11.22,-11.1207,-11.071,-10.9583,-10.7629,-10.7099,-10.6403,-10.5409,-10.4913,0.0,0.0,0.0,0.0,0.0,-10.2196,-10.1501,-10.1004,-10.0507,-10.0308,-10.0308,-10.0308,-10.0308,-10.0308,-10.0308,-10.0308,-10.0308,-10.0308,-10.0308,-10.0308,-10.0308,-10.0547,-10.0919,-10.1551,-10.3155,-10.4847,-10.5202,-10.5819,-10.631,-10.631,-10.631,-10.631,-10.631,-10.631,-10.631,-10.631,-10.631,-10.631,-10.631,-10.631,-10.631,-10.631,-10.631,-10.631,-10.631,-10.631,-10.631,-10.631,-10.631,-10.61,-10.5608,-10.5292,-10.4976,-10.4379,-10.3677,-10.3502,-10.3993,-10.3502,-10.3782,-10.4801,-10.5081,-10.5292,-10.5608,-10.61,-10.6205,-10.5994,-10.5994,-10.5819,0.0,-9.2048,-9.3861,-9.3158,-9.1132,0.0,0.0,0.0,0.0,-7.3807,-7.3442,-7.4138,-7.6225,-7.7053,-7.7782,-7.8842,-7.9902,-8.1061,-8.2552,0.0,0.0,0.0,0.0,0.0,0.0,0.0,0.0,0.0,0.0,0.0,0.0,0.0,-11.3426,-11.3426,-11.2697,-11.1935,-11.1207,-11.0279,-10.902,-10.7596,-10.6801,-10.6105,-10.5376,-10.4879,0.0,0.0,0.0,0.0,0.0,-10.1799,-10.1236,-10.0937,-10.0507,-10.0308,-10.0308,-10.0308,-10.0308,-10.0308,-10.0308,-10.0308,-10.0308,-10.0308,-10.0308,-10.0308,-10.0308,-10.0308,-10.058,-10.1944,-10.3348,-10.4419,-10.5202,-10.5784,-10.631,-10.631,-10.631,-10.631,-10.631,-10.631,-10.631,-10.631,-10.631,-10.631,-10.631,-10.631,-10.631,-10.631,-10.6591,-10.6802,-10.6802,-10.6802,-10.6907,-10.7223,-10.6696,-10.6205,-10.61,-10.5784,-10.5397,-10.4906,-10.459,-10.459,-10.4906,-10.459,-10.4801,-10.5608,-10.5608,-10.5819,-10.631,-10.631,-10.631,-10.631,-10.631,-10.631,0.0,-8.6872,-8.9656,-9.0057,-8.8316,-8.4937,0.0,0.0,0.0,0.0,0.0,-7.437,-7.5198,-7.6424,-7.7152,-7.6622,-7.7749,-7.9173,-8.0564,0.0,0.0,0.0,0.0,0.0,0.0,0.0,0.0,0.0,0.0,0.0,0.0,0.0,0.0,-11.3327,-11.2598,-11.1902,-11.1207,-10.9782,-10.8325,-10.69,-10.6171,-10.5409,-10.4681,-10.4681,0.0,0.0,0.0,0.0,0.0,-10.1335,-10.0904,-10.0308,-10.0308,-10.0308,-10.0308,-10.0308,-10.0308,-10.0308,-10.0308,-10.0308,-10.0308,-10.0308,-10.0308,-10.0308,-10.0308,-10.0308,-10.0683,-10.259,-10.3155,-10.3529,-10.5588,-10.6267,-10.6302,-10.6416,-10.6416,-10.6416,-10.6416,-10.6345,-10.631,-10.631,-10.631,-10.631,-10.631,-10.6345,-10.6416,-10.6416,-10.7083,-10.7574,-10.7574,-10.7574,-10.789,-10.8592,-10.7293,-10.6696,-10.7399,-10.6802,-10.631,-10.631,-10.5713,-10.5608,-10.631,-10.5608,-10.5608,-10.631,-10.631,-10.631,-10.631,-10.631,-10.631,-10.631,-10.631,-10.631,-7.2356,0.0,-7.6896,-7.6856,-7.7214,-7.686,0.0,0.0,0.0,0.0,0.0,-7.3906,-7.5728,-7.6357,-7.7086,-7.861,-7.9604,-8.0498,-8.1393,0.0,0.0,0.0,0.0,0.0,0.0,0.0,0.0,0.0,0.0,0.0,0.0,0.0,0.0,-11.2598,-11.1836,-11.1405,-11.1273,-10.9285,-10.7795,-10.69,-10.6171,-10.5409,-10.4681,-10.4681,0.0,0.0,0.0,0.0,-10.1401,-10.0805,-10.0507,-10.0308,-10.0308,-10.0308,-10.0308,-10.0308,-10.0308,-10.0308,-10.0308,-10.0308,-10.0308,-10.0308,-10.0308,-10.0308,-10.0308,-10.0308,-10.0444,-10.0952,-10.1584,-10.2428,-10.3721,-10.4988,-10.6342,-10.7039,-10.7188,-10.7188,-10.7188,-10.6732,-10.631,-10.631,-10.631,-10.631,-10.631,-10.6802,-10.7188,-10.7188,-10.789,-10.8382,-10.8382,-10.8382,-10.8487,-10.8698,-10.7785,-10.7293,-10.7469,-10.6802,-10.631,-10.631,-10.6135,-10.6135,-10.631,-10.6135,-10.6135,-10.631,-10.631,-10.631,-10.631,-10.631,-10.631,-10.631,-10.631,-10.631,-6.8055,-7.0224,-7.242,-7.3142,-7.358,-7.3722,-7.2746,0.0,0.0,0.0,0.0,0.0,-7.4701,0.0,0.0,-7.7417,-7.8511,0.0,0.0,0.0,0.0,0.0,0.0,0.0,0.0,0.0,0.0,0.0,0.0,0.0,0.0,0.0,0.0,-11.2333,-11.1306,-11.0577,-11.0279,-10.8424,-10.7,-10.5873,-10.5111,-10.4581,-10.4184,-10.4184,-10.3786,0.0,0.0,0.0,-10.0904,-10.0507,-10.0308,-10.0308,-10.0308,-10.0308,-10.0308,-10.0308,-10.0308,-10.0308,-10.0308,-10.0308,-10.0308,-10.0308,-10.0308,-10.0308,-10.0308,-10.0308,-10.0444,-10.0851,-10.1554,-10.2546,-10.3132,-10.4915,-10.6562,-10.6843,-10.7368,-10.789,-10.7574,-10.7399,-10.7223,-10.6416,-10.6907,-10.7293,-10.6907,-10.7504,-10.8066,-10.8066,-10.8698,-10.9224,-10.9224,-10.9224,-10.9295,-10.9681,-10.8698,-10.8206,-10.8487,-10.7504,-10.6696,-10.631,-10.631,-10.631,-10.631,-10.631,-10.631,-10.631,-10.631,-10.631,-10.631,-10.631,-10.631,-10.631,-10.631,-10.631,-6.687,-6.9231,-7.1926,-7.3258,-7.3044,-7.256,-7.2579,0.0,0.0,0.0,0.0,0.0,0.0,0.0,0.0,0.0,0.0,0.0,0.0,0.0,0.0,0.0,0.0,0.0,0.0,0.0,0.0,0.0,0.0,0.0,0.0,0.0,0.0,-11.2002,-11.071,-10.9583,-10.8788,-10.7496,-10.6205,-10.4879,-10.3985,-10.3588,-10.3588,-10.3488,-10.3024,-10.2329,0.0,0.0,-10.0308,-10.0308,-10.0308,-10.0308,-10.0308,-10.0308,-10.0308,-10.0308,-10.0308,-10.0308,-10.0308,-10.0308,-10.0308,-10.0308,-10.0308,-10.0308,-10.0308,-10.0407,-10.0577,-10.1487,-10.2189,-10.2823,-10.332,-10.5183,-10.6855,-10.6441,-10.7576,-10.8698,-10.7995,-10.8206,-10.8101,-10.6732,-10.7504,-10.8171,-10.7574,-10.8171,-10.8698,-10.8873,-10.9505,-10.9997,-10.9997,-10.9997,-11.0207,-11.091,-10.9681,-10.9119,-10.9716,-10.8487,-10.7293,-10.6521,-10.6416,-10.631,-10.631,-10.6416,-10.6416,-10.631,-10.631,-10.631,-10.631,-10.6416,-10.6416,-10.631,-10.6416,-10.6416,-6.8039,-6.9666,-7.0679,-6.9606,-6.927,-6.9382,0.0,0.0,0.0,0.0,0.0,0.0,0.0,0.0,0.0,0.0,0.0,0.0,0.0,0.0,0.0,0.0,0.0,0.0,0.0,0.0,0.0,0.0,0.0,0.0,0.0,0.0,0.0,-11.0478,-10.9683,-10.8623,-10.7298,-10.7,-10.6503,-10.5608,-10.4283,-10.3588,-10.3588,-10.2991,-10.2296,-10.16,0.0,-10.1103,-10.0308,-10.0308,-10.0308,-10.0308,-10.0308,-10.0308,-10.0308,-10.0308,-10.0308,-10.0308,-10.0308,-10.0308,-10.0308,-10.0308,-10.0308,-10.0308,-10.0308,-10.0739,-10.1269,-10.1373,-10.1544,-10.205,-10.3464,-10.536,-10.6968,-10.765,-10.8797,-10.961,-10.9505,-10.8487,-10.7609,-10.7399,-10.7012,-10.6837,-10.7399,-10.8171,-10.8908,-10.9505,-11.0313,-11.0804,-11.0804,-11.0804,-11.0874,-11.098,-11.0207,-10.9716,-10.9821,-10.9014,-10.8171,-10.7399,-10.6696,-10.631,-10.631,-10.6977,-10.7012,-10.631,-10.631,-10.631,-10.631,-10.7012,-10.7012,-10.631,-10.7012,-10.6977,-6.7376,-6.8292,-6.9128,-6.9092,-6.9925,0.0,0.0,0.0,0.0,0.0,0.0,0.0,0.0,0.0,0.0,0.0,0.0,0.0,0.0,0.0,0.0,0.0,0.0,0.0,0.0,0.0,0.0,0.0,0.0,0.0,0.0,0.0,0.0,0.0,-10.849,-10.7397,-10.6304,-10.5906,-10.531,-10.4581,-10.3521,-10.3024,-10.2991,-10.2229,-10.1732,-10.1401,0.0,-10.1004,-10.0308,-10.0308,-10.0308,-10.0308,-10.0308,-10.0308,-10.0308,-10.0308,-10.0308,-10.0308,-10.0308,-10.0308,-10.0308,-10.0308,-10.0308,-10.0308,-10.0308,-10.0805,-10.1501,-10.1931,-10.2296,-10.2733,-10.3049,-10.4741,-10.6422,-10.6574,-10.8023,-10.9564,-10.8956,-10.9223,-10.9084,-10.8276,-10.8487,-10.8803,-10.8803,-10.94,-11.0067,-11.0383,-11.0769,-11.098,-11.098,-11.098,-11.098,-11.098,-11.0699,-11.0418,-11.0418,-10.9716,-10.8979,-10.8206,-10.7012,-10.6521,-10.6907,-10.6907,-10.6696,-10.631,-10.6732,-10.6907,-10.6977,-10.7785,-10.7995,-10.7609,-10.7995,-10.7995,-6.6997,-6.7565,-6.8387,-6.962,0.0,0.0,0.0,0.0,0.0,0.0,0.0,0.0,0.0,0.0,0.0,0.0,0.0,0.0,0.0,0.0,0.0,0.0,0.0,0.0,0.0,0.0,0.0,0.0,0.0,0.0,0.0,0.0,0.0,0.0,-10.7198,-10.6105,-10.5509,-10.4614,-10.3985,-10.3588,-10.2693,-10.2229,-10.2229,-10.1501,-10.1136,-10.1136,-10.1136,-10.0805,-10.0308,-10.0308,-10.0308,-10.0308,-10.0308,-10.0308,-10.0308,-10.0308,-10.0308,-10.0308,-10.0308,-10.0308,-10.0308,-10.0308,-10.0308,-10.0308,-10.0507,-10.1103,-10.1832,-10.2594,-10.319,-10.3488,-10.3124,-10.4626,-10.6189,-10.5583,-10.7544,-10.9178,-10.8624,-10.9459,-11.0172,-10.9189,-10.961,-11.0102,-10.9821,-11.0313,-11.0804,-11.098,-11.098,-11.098,-11.098,-11.098,-11.098,-11.098,-11.098,-11.098,-11.098,-11.0313,-10.961,-10.9295,-10.7715,-10.7083,-10.7469,-10.7118,-10.6802,-10.6626,-10.7399,-10.7785,-10.7785,-10.8592,-10.8873,-10.8698,-10.8908,-10.8873,-6.8197,-6.9019,-6.9714,0.0,0.0,0.0,0.0,0.0,0.0,0.0,0.0,0.0,0.0,0.0,0.0,0.0,0.0,0.0,0.0,0.0,0.0,0.0,0.0,0.0,0.0,0.0,0.0,0.0,0.0,0.0,0.0,0.0,0.0,0.0,0.0,-10.4813,-10.478,-10.3389,-10.2991,-10.3588,-10.2196,-10.1501,-10.1501,-10.0705,-10.0407,-10.0407,-10.0407,-10.0341,-10.0308,-10.0308,-10.0308,-10.0308,-10.0308,-10.0308,-10.0308,-10.0308,-10.0308,-10.0308,-10.0308,-10.0308,-10.0308,-10.0308,-10.0308,-10.0407,-10.1136,-10.1832,-10.2594,-10.3289,-10.3588,-10.3687,-10.4383,-10.5394,-10.629,-10.6189,-10.7756,-10.9386,-10.9317,-10.9076,-10.9014,-10.961,-10.8698,-10.8206,-10.961,-10.9821,-11.0102,-11.0874,-11.098,-11.098,-11.098,-11.098,-11.098,-11.098,-11.098,-11.098,-11.098,-11.0313,-11.0102,-11.0769,-10.94,-10.8206,-10.7504,-10.8171,-10.8206,-10.7399,-10.8206,-10.8592,-10.8592,-10.94,-10.94,-10.8698,-10.94,-10.94,-6.7249,-6.8197,0.0,0.0,0.0,0.0,0.0,0.0,0.0,0.0,0.0,0.0,0.0,0.0,0.0,0.0,0.0,0.0,0.0,0.0,0.0,0.0,0.0,0.0,0.0,0.0,0.0,0.0,0.0,0.0,0.0,0.0,0.0,0.0,0.0,-10.3985,-10.3985,-10.2594,-10.1997,-10.2196,-10.1699,-10.1401,-10.1401,-10.0606,-10.0308,-10.0308,-10.0308,-10.0308,-10.0308,-10.0308,-10.0308,-10.0308,-10.0308,-10.0308,-10.0308,-10.0308,-10.0308,-10.0308,-10.0308,-10.0308,-10.0308,-10.0308,-10.0308,-10.0407,-10.0606,-10.16,-10.2594,-10.2826,-10.3588,-10.4184,-10.4084,-10.4268,-10.4654,-10.4654,-10.6089,-10.7528,-10.8247,-10.8846,-10.9425,-11.0405,-11.0102,-10.9891,-11.0418,-11.0523,-11.0594,-11.098,-11.098,-11.098,-11.098,-11.098,-11.098,-11.098,-11.098,-11.098,-11.098,-11.0699,-11.0699,-11.098,-10.9575,-10.8803,-10.8908,-10.8803,-10.8592,-10.8276,-10.9014,-10.94,-10.94,-11.0207,-11.0383,-11.0102,-11.0383,-11.0383,-6.6649,-6.7313,0.0,0.0,0.0,0.0,0.0,0.0,0.0,0.0,0.0,0.0,0.0,0.0,0.0,0.0,0.0,0.0,0.0,0.0,0.0,0.0,0.0,0.0,0.0,0.0,0.0,0.0,0.0,0.0,0.0,0.0,0.0,0.0,-10.3687,-10.2892,-10.2892,-10.1699,-10.1103,-10.1103,-10.1103,-10.1103,-10.1037,-10.0507,-10.0308,-10.0308,-10.0308,-10.0308,-10.0308,-10.0308,-10.0308,-10.0308,-10.0308,-10.0308,-10.0308,-10.0308,-10.0308,-10.0308,-10.0308,-10.0308,-10.0308,-10.0308,-10.0308,-10.0341,-10.0606,-10.1401,-10.2229,-10.2726,-10.3422,-10.3919,-10.3687,-10.3786,-10.3886,-10.3886,-10.5161,-10.6325,-10.6894,-10.816,-10.9129,-10.9964,-11.0357,-11.0804,-11.1296,-11.1296,-11.1401,-11.1682,-11.1717,-11.1612,-11.1401,-11.1296,-11.1296,-11.098,-11.098,-11.098,-11.098,-11.098,-11.098,-11.098,-10.9997,-10.9505,-10.9821,-10.9295,-10.9014,-10.9014,-10.9786,-11.0207,-11.0207,-11.0699,-11.098,-11.098,-11.098,-11.098,-6.6807,0.0,0.0,0.0,0.0,0.0,0.0,0.0,0.0,0.0,0.0,0.0,0.0,0.0,0.0,0.0,0.0,0.0,0.0,0.0,0.0,0.0,0.0,0.0,0.0,0.0,0.0,0.0,0.0,0.0,0.0,0.0,0.0,0.0,-10.2196,-10.1401,-10.1401,-10.0705,-10.0308,-10.0308,-10.0308,-10.0308,-10.0308,-10.0308,-10.0308,-10.0308,-10.0308,-10.0308,-10.0308,-10.0308,-10.0308,-10.0308,-10.0308,-10.0308,-10.0308,-10.0308,-10.0308,-10.0308,-10.0308,-10.0308,-10.0308,-10.0308,-10.0308,-10.0407,-10.1202,-10.1401,-10.1732,-10.319,-10.3091,-10.2726,-10.3389,-10.4184,-10.4681,-10.4681,-10.5495,-10.6088,-10.5381,-10.686,-10.8243,-10.8277,-10.9041,-11.0313,-11.1822,-11.2103,-11.2419,-11.3227,-11.3332,-11.3016,-11.2209,-11.2103,-11.1822,-11.1085,-11.098,-11.098,-11.098,-11.098,-11.098,-11.098,-11.098,-11.0594,-10.9821,-10.9821,-10.9821,-10.9821,-11.0594,-11.098,-11.098,-11.098,-11.098,-11.098,-11.098,-11.098,-6.7502,0.0,0.0,0.0,0.0,0.0,0.0,0.0,0.0,0.0,0.0,0.0,0.0,0.0,0.0,0.0,0.0,0.0,0.0,0.0,0.0,0.0,0.0,0.0,0.0,0.0,0.0,0.0,0.0,0.0,0.0,0.0,0.0,0.0,-10.1931,-10.1401,-10.1401,-10.0705,-10.0308,-10.0308,-10.0308,-10.0308,-10.0308,-10.0308,-10.0308,-10.0308,-10.0308,-10.0308,-10.0308,-10.0308,-10.0308,-10.0308,-10.0308,-10.0308,-10.0308,-10.0308,-10.0308,-10.0308,-10.0308,-10.0308,-10.0308,-10.0308,-10.0308,-10.0341,-10.0606,-10.1401,-10.2296,-10.2726,-10.3422,-10.4084,-10.4283,-10.4515,-10.4581,-10.3985,-10.46,-10.5288,-10.5918,-10.6992,-10.8091,-10.8916,-11.0227,-11.1612,-11.1998,-11.2595,-11.3016,-11.3297,-11.3332,-11.3016,-11.2209,-11.2103,-11.1998,-11.1787,-11.1787,-11.1787,-11.1787,-11.1296,-11.098,-11.098,-11.098,-11.0874,-11.0699,-11.112,-11.1401,-11.1401,-11.2209,-11.2595,-11.2595,-11.1998,-11.1787,-11.1787,-11.119,-11.098,0.0,0.0,0.0,0.0,0.0,0.0,0.0,0.0,0.0,0.0,0.0,0.0,0.0,0.0,0.0,0.0,0.0,0.0,0.0,0.0,0.0,0.0,0.0,0.0,0.0,0.0,0.0,0.0,0.0,0.0,0.0,0.0,0.0,0.0,-10.1335,-10.1004,-10.1004,-10.0507,-10.0308,-10.0308,-10.001,-10.001,-10.0308,-10.0308,-10.0308,-10.0308,-10.0308,-10.0308,-10.0308,-10.0308,-10.0308,-10.0308,-10.0308,-10.0308,-10.0308,-10.0308,-10.0308,-10.0308,-10.0308,-10.0308,-10.0308,-10.0308,-10.0308,-10.0308,-10.0308,-10.0937,-10.1732,-10.2329,-10.3124,-10.3985,-10.4515,-10.4681,-10.4581,-10.4084,-10.4383,-10.4757,-10.5161,-10.6595,-10.7851,-10.8253,-11.0331,-11.2209,-11.2525,-11.3227,-11.3824,-11.421,-11.3929,-11.3613,-11.3086,-11.2805,-11.2595,-11.2595,-11.2595,-11.2595,-11.2595,-11.1893,-11.1401,-11.1401,-11.119,-11.098,-11.098,-11.1717,-11.2103,-11.2103,-11.2911,-11.3121,-11.2805,-11.27,-11.2419,-11.2103,-11.1998,-11.1717,0.0,0.0,0.0,0.0,0.0,0.0,0.0,0.0,0.0,0.0,0.0,0.0,0.0,0.0,0.0,0.0,0.0,0.0,0.0,0.0,0.0,0.0,0.0,0.0,0.0,0.0,0.0,0.0,0.0,0.0,0.0,0.0,0.0,0.0,-10.0606,-10.0209,-10.0209,-10.0109,-10.0109,-10.0109,-9.948,-9.9546,-10.0209,-10.0209,-10.0209,-10.0308,-10.0308,-10.0308,-10.0308,-10.0308,-10.0308,-10.0308,-10.0308,-10.0308,-10.0308,-10.0308,-10.0308,-10.0308,-10.0308,-10.0308,-10.0308,-10.0308,-10.0308,-10.0308,-10.0308,-10.0341,-10.0705,-10.2031,-10.2527,-10.2925,-10.4283,-10.4614,-10.4681,-10.4681,-10.4681,-10.4482,-10.3786,-10.5921,-10.7619,-10.6902,-10.9684,-11.2419,-11.3227,-11.3999,-11.4807,-11.5509,-11.4912,-11.4385,-11.4385,-11.3824,-11.3402,-11.3402,-11.3402,-11.3402,-11.3332,-11.2595,-11.2103,-11.1998,-11.1401,-11.098,-11.1085,-11.1787,-11.2209,-11.2209,-11.3121,-11.3121,-11.2419,-11.3121,-11.3016,-11.2209,-11.3016,-11.2911,0.0,0.0,0.0,0.0,0.0,0.0,0.0,0.0,0.0,0.0,0.0,0.0,0.0,0.0,0.0,0.0,0.0,0.0,0.0,0.0,0.0,0.0,0.0,0.0,0.0,0.0,0.0,0.0,0.0,0.0,0.0,0.0,0.0,-10.0507,-9.9877,-9.9513,-9.9513,-9.8917,-9.8618,0.0,-9.8486,-9.8784,-9.9513,-9.9513,-9.9778,-10.0308,-10.0308,-10.0308,-10.0308,-10.0308,-10.0308,-10.0308,-10.0308,-10.0308,-10.0308,-10.0308,-10.0308,-10.0308,-10.0308,-10.0308,-10.0308,-10.0308,-10.0308,-10.0308,-10.0308,-10.0705,-10.1236,-10.1534,-10.2494,-10.3389,-10.3786,-10.4283,-10.4681,-10.4681,-10.4681,-10.4681,-10.4482,-10.6258,-10.779,-10.7619,-11.0516,-11.3121,-11.3297,-11.442,-11.5403,-11.5614,-11.4912,-11.4385,-11.4385,-11.428,-11.421,-11.421,-11.421,-11.3929,-11.3332,-11.2595,-11.1893,-11.1296,-11.1085,-11.1296,-11.1822,-11.263,-11.3016,-11.3016,-11.442,-11.5017,-11.4807,-11.4385,-11.3788,-11.3016,-11.3227,-11.2911,0.0,0.0,0.0,0.0,0.0,0.0,0.0,0.0,0.0,0.0,0.0,0.0,0.0,0.0,0.0,0.0,0.0,0.0,0.0,0.0,0.0,0.0,0.0,0.0,0.0,0.0,0.0,0.0,0.0,0.0,0.0,-9.948,-9.9281,-9.9281,-9.895,-9.8751,-9.8751,-9.8353,-9.8188,-9.8188,-9.7823,-9.7857,-9.8287,-9.9314,-9.9778,-9.9844,-10.0209,-10.0308,-10.0308,-10.0308,-10.0308,-10.0308,-10.0308,-10.0308,-10.0308,-10.0308,-10.0308,-10.0308,-10.0308,-10.0308,-10.0308,-10.0308,-10.0308,-10.0308,-10.0308,-10.0606,-10.1037,-10.1732,-10.2494,-10.3223,-10.3919,-10.4383,-10.4681,-10.4681,-10.4681,-10.4681,-10.4681,-10.6251,-10.7573,-10.7796,-11.0623,-11.3072,-11.3281,-11.4596,-11.5614,-11.5614,-11.5228,-11.5017,-11.5017,-11.5017,-11.5017,-11.5017,-11.5017,-11.4701,-11.3894,-11.3121,-11.2314,-11.1577,-11.119,-11.1296,-11.2103,-11.2911,-11.3508,-11.3824,-11.5017,-11.5403,-11.5017,-11.5017,-11.4596,-11.3824,-11.421,-11.3999,0.0,0.0,0.0,0.0,0.0,0.0,0.0,0.0,0.0,0.0,0.0,0.0,0.0,0.0,0.0,0.0,0.0,0.0,0.0,0.0,0.0,0.0,0.0,0.0,0.0,0.0,0.0,0.0,0.0,0.0,-9.9082,-9.8387,-9.7989,-9.7989,-9.7724,-9.7658,-9.779,-9.7558,-9.7459,-9.7592,-9.7128,-9.6863,-9.6797,-9.895,-9.9612,-9.9115,-9.9712,-10.001,-10.0109,-10.0109,-10.0209,-10.0308,-10.0308,-10.0308,-10.0308,-10.0308,-10.0308,-10.0308,-10.0308,-10.0308,-10.0308,-10.0308,-10.0308,-10.0308,-10.0308,-10.0308,-10.0606,-10.1931,-10.2428,-10.2826,-10.4184,-10.4581,-10.4681,-10.4681,-10.4681,-10.4681,-10.4681,-10.6136,-10.7509,-10.7864,-11.0644,-11.3081,-11.3632,-11.4807,-11.5614,-11.5614,-11.5614,-11.5614,-11.5614,-11.5614,-11.5614,-11.5614,-11.5509,-11.5088,-11.4315,-11.3508,-11.2805,-11.1998,-11.1471,-11.1506,-11.2314,-11.3121,-11.3824,-11.4596,-11.5298,-11.5298,-11.4596,-11.5298,-11.5193,-11.442,-11.5193,-11.5193,0.0,0.0,0.0,0.0,0.0,0.0,0.0,0.0,0.0,0.0,0.0,0.0,0.0,0.0,0.0,0.0,0.0,0.0,0.0,0.0,0.0,0.0,0.0,0.0,0.0,0.0,0.0,0.0,0.0,0.0,-9.8353,-9.7658,-9.726,-9.726,-9.6001,-9.5637,-9.63,-9.5041,-9.471,-9.5339,-9.5902,-9.5803,-9.5273,-9.7459,-9.842,-9.832,-9.842,-9.8817,-9.9414,-9.9414,-9.9778,-10.0308,-10.0308,-10.0308,-10.0308,-10.0308,-10.0308,-10.0308,-10.0308,-10.0308,-10.0308,-10.0308,-10.0308,-10.0308,-10.0308,-10.0308,-10.0507,-10.1302,-10.2031,-10.2726,-10.3488,-10.4184,-10.4681,-10.4681,-10.4681,-10.4681,-10.4681,-10.6323,-10.783,-10.7858,-11.0703,-11.3737,-11.5123,-11.5509,-11.5614,-11.5614,-11.5614,-11.5614,-11.5614,-11.5614,-11.5614,-11.5614,-11.5017,-11.428,-11.3508,-11.27,-11.1928,-11.119,-11.1682,-11.2314,-11.3121,-11.3894,-11.4596,-11.5403,-11.5509,-11.5509,-11.5403,-11.5509,-11.5193,-11.442,-11.5193,-11.5193,0.0,0.0,0.0,0.0,0.0,0.0,0.0,0.0,0.0,0.0,0.0,0.0,0.0,0.0,0.0,0.0,0.0,0.0,0.0,0.0,0.0,0.0,0.0,0.0,0.0,0.0,0.0,0.0,0.0,-9.8353,-9.7625,-9.6498,-9.5869,-9.5869,-9.4842,-9.4445,-9.4743,-9.4113,-9.3948,-9.4279,-9.461,-9.461,-9.4312,-9.5703,-9.6797,-9.7592,-9.7989,-9.8585,-9.9248,-9.8817,-9.9314,-10.0308,-9.9877,-9.9977,-10.0308,-10.0308,-10.0308,-10.0308,-10.0308,-10.0308,-10.0308,-10.0308,-10.0308,-10.0308,-10.0308,-10.0308,-10.0507,-10.1732,-10.2229,-10.2792,-10.3886,-10.4482,-10.4681,-10.4681,-10.4681,-10.4681,-10.4681,-10.6481,-10.8794,-11.0875,-11.2698,-11.4315,-11.5403,-11.5614,-11.5614,-11.5614,-11.5614,-11.5614,-11.5614,-11.5614,-11.5614,-11.5614,-11.4912,-11.428,-11.3929,-11.3227,-11.263,-11.2314,-11.2595,-11.3121,-11.3894,-11.4701,-11.5228,-11.5614,-11.5614,-11.5614,-11.5614,-11.5614,-11.5403,-11.5088,-11.5403,-11.5403,0.0,0.0,0.0,0.0,0.0,0.0,0.0,0.0,0.0,0.0,0.0,0.0,0.0,0.0,0.0,0.0,0.0,0.0,0.0,0.0,0.0,0.0,0.0,0.0,0.0,0.0,0.0,0.0,0.0,-9.7492,-9.6598,-9.5339,-9.4544,-9.4345,-9.3616,-9.3318,-9.3517,-9.3517,-9.3418,-9.3219,-9.3418,-9.3517,-9.355,-9.4279,-9.5339,-9.6598,-9.7293,-9.8055,-9.8685,-9.8122,-9.8751,-10.001,-9.948,-9.9712,-10.0308,-10.0308,-10.0308,-10.0308,-10.0308,-10.0308,-10.0308,-10.0308,-10.0308,-10.0308,-10.0308,-10.0308,-10.0606,-10.213,-10.2527,-10.2826,-10.4283,-10.4681,-10.4681,-10.4681,-10.4681,-10.4856,-10.5555,-10.7094,-10.9406,-11.3094,-11.3999,-11.4315,-11.4912,-11.5193,-11.5298,-11.5298,-11.5298,-11.5403,-11.5614,-11.5614,-11.5614,-11.5614,-11.4701,-11.421,-11.4385,-11.3508,-11.3121,-11.3297,-11.3508,-11.3929,-11.4701,-11.5298,-11.5719,-11.5895,-11.5719,-11.5614,-11.5614,-11.5614,-11.5614,-11.5614,-11.5614,-11.5614,0.0,0.0,0.0,0.0,0.0,0.0,0.0,0.0,0.0,0.0,0.0,0.0,0.0,0.0,0.0,0.0,0.0,0.0,0.0,0.0,0.0,0.0,0.0,0.0,0.0,0.0,0.0,0.0,0.0,-9.6532,-9.5074,-9.4279,-9.3517,-9.2821,-9.2093,-9.2026,-9.2722,-9.2755,-9.2391,-9.1695,-9.2391,-9.2755,-9.2755,-9.3517,-9.4279,-9.5074,-9.5803,-9.6532,-9.7227,-9.7194,-9.8022,-9.9314,-9.9281,-9.9712,-10.0308,-10.0308,-10.0308,-10.0308,-10.0308,-10.0308,-10.0308,-10.0308,-10.0308,-10.0308,-10.0308,-10.0308,-10.0606,-10.213,-10.2527,-10.2826,-10.4283,-10.4681,-10.4681,-10.4681,-10.4681,-10.5381,-10.8216,-10.8273,-10.8891,-11.2566,-11.3367,-11.3402,-11.3402,-11.3999,-11.4491,-11.4491,-11.4491,-11.4701,-11.5509,-11.5614,-11.5614,-11.5614,-11.4315,-11.3613,-11.4315,-11.3016,-11.2525,-11.3297,-11.3999,-11.4701,-11.5509,-11.5614,-11.6,-11.6667,-11.6,-11.5614,-11.5614,-11.5614,-11.5614,-11.5614,-11.5614,-11.5614,0.0,0.0,0.0,0.0,0.0,0.0,0.0,0.0,0.0,0.0,0.0,0.0,0.0,0.0,0.0,0.0,0.0,0.0,0.0,0.0,0.0,0.0,0.0,0.0,0.0,0.0,0.0,0.0,0.0,0.0,-9.4941,-9.3749,-9.2954,-9.2689,-9.196,-9.1728,-9.196,-9.196,-9.1861,-9.1596,-9.1861,-9.196,-9.1993,-9.2755,-9.3484,-9.4246,-9.4975,-9.6001,-9.7062,-9.6598,-9.7525,-9.9215,-9.8751,-9.9281,-10.0308,-10.0308,-10.0308,-10.0308,-10.0308,-10.0308,-10.0308,-10.0308,-10.0308,-10.0308,-10.0308,-10.0606,-10.1236,-10.2229,-10.2826,-10.3422,-10.4416,-10.4681,-10.4813,-10.5277,-10.5012,-10.5373,-10.808,-10.9064,-10.9859,-11.1856,-11.274,-11.3508,-11.3894,-11.421,-11.4596,-11.5088,-11.5193,-11.5298,-11.5614,-11.5614,-11.5614,-11.5614,-11.4631,-11.4315,-11.5088,-11.421,-11.4104,-11.5474,-11.579,-11.6281,-11.7019,-11.758,-11.7721,-11.7475,-11.7194,-11.6597,-11.5614,-11.5614,-11.5614,-11.5614,-11.5614,-11.5614,-7.4854,0.0,0.0,0.0,0.0,0.0,0.0,0.0,0.0,0.0,0.0,0.0,0.0,0.0,0.0,0.0,0.0,0.0,0.0,0.0,0.0,0.0,0.0,0.0,0.0,0.0,0.0,0.0,0.0,0.0,-9.3848,-9.2854,-9.2093,-9.1596,-9.1364,-9.1231,-9.1231,-9.1463,-9.1596,-9.1596,-9.1596,-9.1596,-9.1629,-9.2358,-9.3086,-9.3848,-9.4577,-9.5604,-9.6697,-9.62,-9.7161,-9.885,-9.8353,-9.9049,-10.0308,-10.0308,-10.0308,-10.0308,-10.0308,-10.0308,-10.0308,-10.0308,-10.0308,-10.0308,-10.0308,-10.0639,-10.1236,-10.2229,-10.2892,-10.3488,-10.4416,-10.4681,-10.4813,-10.531,-10.5078,-10.5231,-10.6871,-10.8219,-10.9659,-11.1131,-11.2443,-11.3402,-11.3613,-11.4104,-11.4596,-11.5123,-11.5193,-11.5298,-11.5614,-11.5825,-11.5895,-11.5614,-11.5123,-11.5017,-11.5614,-11.5123,-11.5403,-11.6667,-11.6983,-11.7475,-11.8282,-11.8598,-11.8598,-11.8318,-11.7791,-11.6983,-11.6,-11.5719,-11.5614,-11.5614,-11.5614,-11.5719,0.0,0.0,0.0,0.0,0.0,0.0,0.0,0.0,0.0,0.0,0.0,0.0,0.0,0.0,0.0,0.0,0.0,0.0,0.0,0.0,0.0,0.0,0.0,0.0,0.0,0.0,0.0,0.0,0.0,-9.3119,-9.1662,-9.1529,-9.0867,-8.9475,-9.0105,-9.0502,-9.0536,-9.1198,-9.1562,-9.1596,-9.1596,-9.1596,-9.1629,-9.2358,-9.3086,-9.3815,-9.4577,-9.5306,-9.5968,-9.6001,-9.6863,-9.8155,-9.8155,-9.9049,-10.0308,-10.0308,-10.0308,-10.0308,-10.0308,-10.0308,-10.0308,-10.0308,-10.0308,-10.0308,-10.0308,-10.0308,-10.0606,-10.213,-10.2527,-10.2925,-10.4316,-10.4681,-10.4681,-10.4714,-10.4681,-10.4681,-10.4714,-10.6256,-10.8289,-11.0139,-11.1936,-11.3016,-11.2314,-11.3402,-11.4385,-11.442,-11.442,-11.4701,-11.5509,-11.6281,-11.6492,-11.5719,-11.5614,-11.5614,-11.5614,-11.5614,-11.6,-11.6773,-11.751,-11.8318,-11.909,-11.8388,-11.8318,-11.909,-11.758,-11.6773,-11.6773,-11.6,-11.5614,-11.5614,-11.5614,-11.6071,-7.3578,0.0,0.0,0.0,0.0,0.0,0.0,0.0,0.0,0.0,0.0,0.0,0.0,0.0,0.0,0.0,0.0,0.0,0.0,0.0,0.0,0.0,0.0,0.0,0.0,0.0,0.0,0.0,-9.3418,-9.2589,-9.1629,-9.0602,-8.984,-8.9442,-8.9608,-8.9972,-9.0502,-9.0701,-9.1066,-9.1596,-9.1596,-9.1596,-9.1629,-9.2358,-9.2788,-9.3053,-9.4345,-9.5008,-9.524,-9.577,-9.6565,-9.7459,-9.7956,-9.8751,-9.9612,-10.0109,-10.0308,-10.0308,-10.0308,-10.0308,-10.0308,-10.0308,-10.0308,-10.0308,-10.0308,-10.0705,-10.1302,-10.2229,-10.2892,-10.3488,-10.4482,-10.4681,-10.4813,-10.5376,-10.5078,-10.4813,-10.5376,-10.6108,-10.7134,-10.8323,-11.0243,-11.1893,-11.2805,-11.3332,-11.3999,-11.5088,-11.5298,-11.5298,-11.5614,-11.6281,-11.6492,-11.5719,-11.6106,-11.6492,-11.6492,-11.6492,-11.6983,-11.8388,-11.8704,-11.909,-11.9897,-11.9687,-11.9406,-11.909,-11.8107,-11.7299,-11.6773,-11.6562,-11.6176,-11.5614,-11.6176,-11.6562,-7.3112,-7.3586,-7.4175,0.0,0.0,0.0,-7.5992,-7.7368,0.0,0.0,0.0,0.0,0.0,0.0,0.0,0.0,0.0,0.0,0.0,0.0,0.0,0.0,0.0,0.0,0.0,0.0,0.0,-9.3318,-9.2358,-9.1331,-9.0271,-8.9144,-8.8515,-8.8515,-8.8813,-8.931,-9.0039,-9.037,-9.0867,-9.1596,-9.1596,-9.1596,-9.1629,-9.2656,-9.2987,-9.2788,-9.4577,-9.5173,-9.4975,-9.5703,-9.6631,-9.7592,-9.8022,-9.8817,-9.9745,-10.0209,-10.0308,-10.0308,-10.0308,-10.0308,-10.0308,-10.0308,-10.0308,-10.0308,-10.0308,-10.0606,-10.1202,-10.2229,-10.3289,-10.4184,-10.4581,-10.4681,-10.478,-10.5211,-10.4979,-10.478,-10.5211,-10.5762,-10.6528,-10.7562,-10.9379,-11.1377,-11.2966,-11.3613,-11.421,-11.5403,-11.5614,-11.5614,-11.5614,-11.6597,-11.6808,-11.5719,-11.6597,-11.6983,-11.6387,-11.6878,-11.758,-11.8493,-11.9195,-11.9792,-12.0178,-12.0178,-12.0003,-11.9581,-11.8809,-11.8002,-11.7264,-11.6597,-11.6211,-11.6106,-11.6562,-11.7089,-7.2506,-7.3043,-7.4081,-7.5304,-7.447,0.0,-7.552,-7.5776,-7.6072,0.0,0.0,0.0,0.0,0.0,0.0,0.0,0.0,0.0,0.0,0.0,0.0,0.0,0.0,0.0,0.0,-9.2192,-9.1662,-9.2391,-9.1099,-8.9707,-8.8382,-8.7654,-8.7289,-8.7289,-8.7885,-8.8548,-8.9277,-9.0039,-9.0767,-9.1463,-9.1529,-9.1596,-9.1629,-9.302,-9.3285,-9.2689,-9.4842,-9.5372,-9.4842,-9.5571,-9.6697,-9.7923,-9.8022,-9.8817,-9.9977,-10.0109,-10.0209,-10.0209,-10.0308,-10.0308,-10.0308,-10.0308,-10.0308,-10.0308,-10.0308,-10.0308,-10.0606,-10.213,-10.3521,-10.4581,-10.4681,-10.4681,-10.4681,-10.4681,-10.4681,-10.4681,-10.4681,-10.5461,-10.6426,-10.7562,-10.9344,-11.1147,-11.2966,-11.3894,-11.4596,-11.5403,-11.5509,-11.5614,-11.5614,-11.6913,-11.7299,-11.5895,-11.7019,-11.7299,-11.6,-11.7089,-11.7896,-11.8002,-11.9406,-12.0178,-12.0178,-12.0178,-12.0178,-12.0073,-11.9301,-11.8598,-11.7896,-11.6492,-11.6211,-11.6878,-11.6983,-11.7686,0.0,0.0,0.0,0.0,0.0,0.0,-7.2261,-7.286,-7.391,0.0,0.0,0.0,0.0,0.0,0.0,0.0,0.0,0.0,0.0,0.0,0.0,0.0,0.0,0.0,0.0,-9.0701,-9.0138,-9.09,-8.9575,-8.8614,-8.8316,-8.7654,-8.7289,-8.7289,-8.7422,-8.7819,-8.8515,-8.9277,-9.0006,-9.0734,-9.1297,-9.1596,-9.1629,-9.249,-9.249,-9.1894,-9.3517,-9.4146,-9.408,-9.4809,-9.5637,-9.6498,-9.7095,-9.7492,-9.789,-9.9049,-9.948,-9.9546,-10.0109,-10.0308,-10.0308,-10.0308,-10.0308,-10.0308,-10.0308,-10.0308,-10.0606,-10.213,-10.3124,-10.3985,-10.4515,-10.4681,-10.4681,-10.4681,-10.4681,-10.4681,-10.4681,-10.4856,-10.5634,-10.7396,-10.9344,-11.1043,-11.2039,-11.3508,-11.4491,-11.4596,-11.5193,-11.5614,-11.5614,-11.6913,-11.758,-11.6667,-11.737,-11.7791,-11.751,-11.7721,-11.8212,-11.8809,-11.9687,-12.0178,-12.0178,-12.0178,-11.9897,-11.9301,-11.8493,-11.8107,-11.7896,-11.7615,-11.751,-11.7686,-11.8318,-11.8493,0.0,0.0,0.0,-7.3539,0.0,0.0,0.0,-7.2479,-7.3447,0.0,0.0,0.0,0.0,0.0,0.0,0.0,0.0,0.0,0.0,0.0,0.0,0.0,0.0,0.0,0.0,-8.984,-8.9409,-8.9409,-8.8747,-8.815,-8.7819,-8.7455,-8.709,-8.6726,-8.709,-8.7455,-8.7786,-8.8515,-8.9409,-9.0536,-9.0867,-9.1231,-9.1629,-9.2358,-9.2291,-9.1662,-9.3153,-9.3782,-9.3848,-9.461,-9.5339,-9.6068,-9.683,-9.7558,-9.8287,-9.9016,-9.948,-9.9844,-10.0209,-10.0308,-10.0308,-10.0308,-10.0308,-10.0308,-10.0308,-10.0606,-10.1103,-10.2229,-10.3024,-10.3786,-10.4482,-10.4681,-10.4681,-10.4681,-10.4681,-10.4681,-10.4681,-10.4681,-10.5347,-10.7137,-10.9151,-11.0865,-11.2424,-11.3332,-11.4104,-11.4912,-11.5017,-11.5123,-11.5509,-11.6913,-11.758,-11.6878,-11.7791,-11.8318,-11.7896,-11.8282,-11.8704,-11.909,-11.9792,-12.0178,-12.0178,-12.0178,-11.9897,-11.9125,-11.909,-11.8704,-11.7896,-11.8704,-11.8879,-11.8493,-11.8914,-11.909,0.0,0.0,0.0,0.0,0.0,-7.4137,0.0,0.0,0.0,-7.1213,0.0,0.0,0.0,0.0,0.0,0.0,0.0,0.0,0.0,0.0,0.0,0.0,0.0,0.0,0.0,-8.8758,-8.8614,-8.815,-8.7985,-8.7654,-8.709,-8.719,-8.6892,-8.5997,-8.6693,-8.7057,-8.7057,-8.7753,-8.878,-9.0105,-9.0237,-9.0668,-9.1397,-9.1993,-9.2026,-9.1662,-9.2854,-9.3451,-9.3649,-9.4378,-9.5107,-9.5869,-9.6598,-9.7625,-9.8685,-9.895,-9.9414,-9.9944,-10.0209,-10.0308,-10.0308,-10.0308,-10.0308,-10.0308,-10.0308,-10.0705,-10.1335,-10.213,-10.2826,-10.3588,-10.4283,-10.4581,-10.4681,-10.4681,-10.4681,-10.4681,-10.4681,-10.4681,-10.5131,-10.6956,-10.8626,-11.0476,-11.2618,-11.3422,-11.4104,-11.5193,-11.4912,-11.4912,-11.5719,-11.7019,-11.7686,-11.7264,-11.8388,-11.8809,-11.8212,-11.8704,-11.909,-11.909,-11.9792,-12.0178,-12.0178,-12.0178,-11.9897,-11.9301,-11.9897,-11.9581,-11.8318,-11.9581,-11.9792,-11.909,-11.9195,-11.9581,0.0,0.0,0.0,0.0,-7.5798,0.0,0.0,0.0,-7.2641,-7.0736,0.0,0.0,0.0,0.0,0.0,0.0,0.0,0.0,0.0,0.0,0.0,0.0,0.0,0.0,0.0,0.0,-8.6792,-8.7355,-8.6792,-8.6395,-8.6295,-8.6925,-8.666,-8.5268,-8.5931,-8.6295,-8.6295,-8.7024,-8.7786,-8.8581,-8.921,-8.9939,-9.0635,-9.0734,-9.1066,-9.1596,-9.1761,-9.2192,-9.2888,-9.3616,-9.4345,-9.5107,-9.5836,-9.6233,-9.6532,-9.7823,-9.8353,-9.8585,-9.9877,-10.0308,-10.0308,-10.0308,-10.0308,-10.0308,-10.0308,-10.0407,-10.0606,-10.1335,-10.2097,-10.2826,-10.3488,-10.4184,-10.4681,-10.4681,-10.4681,-10.4681,-10.4681,-10.4681,-10.5131,-10.6956,-10.8111,-10.9441,-11.1453,-11.377,-11.5193,-11.4596,-11.5088,-11.579,-11.6562,-11.7405,-11.8107,-11.8809,-11.902,-11.909,-11.8985,-11.902,-11.909,-11.909,-11.9792,-12.0178,-12.0178,-12.0178,-12.0178,-12.0073,-12.0178,-12.0108,-11.9897,-12.0108,-11.9792,-11.9125,-11.9792,-11.9792,0.0,0.0,0.0,0.0,0.0,0.0,-7.3008,0.0,-7.256,0.0,0.0,0.0,0.0,0.0,0.0,0.0,-7.6143,0.0,0.0,0.0,0.0,0.0,0.0,0.0,0.0,0.0,0.0,0.0,-8.5235,-8.5368,-8.4937,-8.56,-8.5533,-8.4506,-8.5169,-8.5368,-8.4937,-8.6063,-8.6991,-8.772,-8.8449,-8.9376,-9.0536,-9.0536,-9.09,-9.1596,-9.1596,-9.1993,-9.2722,-9.302,-9.3848,-9.4941,-9.524,-9.5902,-9.6763,-9.779,-9.8453,-9.895,-9.9977,-10.0308,-10.0308,-10.0308,-10.0308,-10.0308,-10.0308,-10.0308,-10.0507,-10.1202,-10.1633,-10.213,-10.3289,-10.3786,-10.4184,-10.4581,-10.4681,-10.4681,-10.4681,-10.5012,-10.5686,-10.6846,-10.8225,-10.9809,-11.171,-11.3163,-11.4134,-11.4965,-11.5017,-11.5193,-11.6,-11.6773,-11.758,-11.8318,-11.8809,-11.9301,-11.9687,-11.9687,-11.9687,-11.9687,-11.9617,-11.9581,-11.9581,-11.9581,-11.9581,-11.9581,-12.0003,-12.0003,-11.9581,-12.0003,-12.0003,-11.9687,-12.0073,-12.0003,-7.6259,0.0,0.0,0.0,0.0,0.0,0.0,0.0,0.0,0.0,0.0,0.0,0.0,0.0,-7.2668,-7.4088,0.0,-7.636,0.0,0.0,0.0,0.0,0.0,0.0,0.0,0.0,0.0,0.0,0.0,-8.4308,-8.4043,-8.4705,-8.4672,-8.3745,-8.4407,-8.454,-8.401,-8.5268,-8.6262,-8.6991,-8.7687,-8.868,-8.9906,-8.9906,-9.0436,-9.1297,-9.1297,-9.1695,-9.2391,-9.2623,-9.3451,-9.461,-9.4809,-9.567,-9.6896,-9.7625,-9.8353,-9.9082,-9.9778,-10.0109,-10.0308,-10.0308,-10.0308,-10.0308,-10.0308,-10.0308,-10.0407,-10.0937,-10.1236,-10.1633,-10.2693,-10.3289,-10.3687,-10.4283,-10.4581,-10.4681,-10.4681,-10.5277,-10.6006,-10.6801,-10.8443,-11.0245,-11.2061,-11.2858,-11.3755,-11.5421,-11.5088,-11.5017,-11.579,-11.6387,-11.7159,-11.8107,-11.8809,-11.9406,-12.0108,-12.0178,-12.0178,-12.0178,-11.9687,-11.9406,-11.9406,-11.9406,-11.9406,-11.9406,-11.9897,-11.9897,-11.9406,-11.9897,-12.0178,-12.0178,-12.0178,-12.0178,0.0,0.0,0.0,-7.6927,0.0,0.0,0.0,0.0,-7.4111,0.0,0.0,0.0,-7.3531,-7.3245,-7.4015,-7.6365,-7.6024,0.0,0.0,0.0,0.0,0.0,0.0,0.0,0.0,0.0,0.0,0.0,0.0,0.0,-8.401,-8.4705,-8.444,-8.2983,-8.3645,-8.4043,-8.401,-8.4771,-8.55,-8.6229,-8.6958,-8.7687,-8.8382,-8.8382,-8.9177,-9.0569,-9.0569,-9.0966,-9.1662,-9.2391,-9.3153,-9.3914,-9.461,-9.5372,-9.6134,-9.6863,-9.7592,-9.832,-9.9049,-9.9745,-10.0308,-10.0308,-10.0308,-10.0308,-10.0308,-10.0308,-10.0308,-10.0308,-10.0838,-10.1434,-10.1501,-10.2494,-10.3588,-10.3588,-10.4184,-10.4681,-10.4681,-10.5277,-10.6006,-10.6801,-10.8443,-11.0245,-11.2061,-11.3237,-11.4346,-11.5421,-11.5614,-11.5895,-11.6667,-11.6773,-11.737,-11.8914,-11.909,-11.9406,-12.0108,-12.0178,-12.0178,-12.0178,-12.0178,-12.0178,-12.0178,-12.0178,-12.0178,-12.0178,-12.0178,-12.0178,-12.0178,-12.0178,-12.0178,-12.0178,-12.0178,-12.0178,0.0,0.0,-7.9511,-7.7566,0.0,0.0,0.0,0.0,0.0,0.0,0.0,0.0,-7.3211,-7.3392,-7.4039,-7.4343,-7.5378,-7.6046,0.0,0.0,0.0,0.0,0.0,0.0,0.0,0.0,0.0,0.0,0.0,0.0,0.0,-8.2718,-8.3181,-8.2188,-8.2883,-8.3281,-8.3281,-8.4506,-8.5235,-8.55,-8.6693,-8.7654,-8.8316,-8.8316,-8.8846,-8.9807,-9.0304,-9.0668,-9.0933,-9.1662,-9.2689,-9.3815,-9.408,-9.4908,-9.6101,-9.683,-9.7558,-9.8353,-9.9546,-10.0109,-10.0308,-10.0308,-10.0308,-10.0308,-10.0308,-10.0308,-10.0308,-10.0308,-10.0507,-10.0904,-10.1898,-10.2527,-10.3124,-10.4084,-10.4482,-10.4681,-10.4681,-10.5277,-10.5873,-10.6105,-10.7456,-10.9155,-11.1243,-11.2262,-11.3569,-11.5297,-11.5614,-11.5719,-11.6,-11.6,-11.6597,-11.8107,-11.8318,-11.8809,-12.0073,-12.0178,-12.0003,-11.9511,-11.9511,-11.9511,-11.9511,-11.9511,-11.9687,-12.0178,-12.0178,-12.0178,-12.0178,-12.0178,-12.0178,-12.0178,-12.0178,-12.0178,-7.9598,-7.9946,0.0,-7.8494,-7.8233,0.0,-7.623,0.0,-7.6317,0.0,0.0,0.0,-7.4256,-7.4164,-7.4403,-7.4268,-7.4811,-7.4881,0.0,-7.4979,0.0,0.0,0.0,0.0,0.0,0.0,0.0,0.0,0.0,0.0,0.0,0.0,-8.2552,-8.1823,-8.2519,-8.3016,-8.3281,-8.4506,-8.5235,-8.55,-8.6693,-8.7521,-8.7952,-8.7952,-8.8349,-8.9078,-8.9807,-9.0138,-9.0204,-9.1198,-9.2159,-9.3053,-9.3583,-9.4544,-9.5703,-9.6432,-9.7327,-9.8387,-9.9811,-10.0308,-10.0308,-10.0308,-10.0308,-10.0308,-10.0308,-10.0308,-10.0507,-10.1302,-10.1103,-10.1103,-10.2826,-10.3091,-10.3124,-10.4084,-10.4482,-10.4681,-10.4681,-10.5277,-10.5873,-10.6105,-10.7456,-10.9121,-11.1243,-11.2262,-11.3535,-11.5297,-11.5614,-11.5614,-11.5614,-11.5614,-11.6106,-11.737,-11.7686,-11.8493,-12.0073,-12.0178,-12.0003,-11.9511,-11.9511,-11.9511,-11.9511,-11.9511,-12.0213,-12.1793,-12.0775,-12.0705,-12.1793,-12.0705,-12.0178,-12.0178,-12.0178,-12.0178]}]]